[[{"header":{"parameterUnit":"m.s-1","parameterCategory":1,"la1":31.0,"la2":29.5877,"lo1":-88.7671,"lo2":-86.6584,"dx":0.0162,"dy":0.0185,"nx":115,"ny":88,"refTime":"2022-12-09T06:00:00:Z","depth":0,"parameterNumber":2,"parameterNumberName":"U-component_of_WINDS"},"data":[0.0,0.0,0.0,0.0,0.0,0.0,0.0,0.0,0.0,0.0,0.0,0.0,0.0,0.0,0.0,0.0,0.0,0.0,0.0,0.0,0.0,0.0,0.0,0.0,0.0,0.0,0.0,0.0,0.0,0.0,0.0,0.0,0.0,0.0,0.0,0.0,0.0,0.0,0.0,0.0,0.0,0.0,0.0,0.0,0.0,0.0,0.0,0.0,0.0,0.0,0.0,0.0,0.0,0.0,0.0,0.0,0.0,0.0,0.0,0.0,0.0,0.0,0.0,0.0,0.0,0.0,0.0,0.0,0.0,0.0,0.0,0.0,0.0,0.0,0.0,0.0,0.0,0.0,0.0,0.0,0.0,0.0,0.0,0.0,0.0,0.0,0.0,0.0,0.0,0.0,0.0,0.0,0.0,0.0,0.0,0.0,0.0,0.0,0.0,0.0,0.0,0.0,0.0,0.0,0.0,0.0,0.0,0.0,0.0,0.0,0.0,0.0,0.0,0.0,0.0,0.0,0.0,0.0,0.0,0.0,0.0,0.0,0.0,0.0,0.0,0.0,0.0,0.0,0.0,0.0,0.0,0.0,0.0,0.0,0.0,0.0,0.0,0.0,0.0,0.0,0.0,0.0,0.0,0.0,0.0,0.0,0.0,0.0,0.0,0.0,0.0,0.0,0.0,0.0,0.0,0.0,0.0,0.0,0.0,0.0,0.0,0.0,0.0,0.0,0.0,0.0,0.0,0.0,0.0,0.0,0.0,0.0,0.0,0.0,0.0,0.0,0.0,0.0,0.0,0.0,0.0,0.0,0.0,0.0,0.0,0.0,0.0,0.0,0.0,0.0,0.0,0.0,0.0,0.0,0.0,0.0,0.0,0.0,0.0,0.0,0.0,0.0,0.0,0.0,0.0,0.0,0.0,0.0,0.0,0.0,0.0,0.0,0.0,0.0,0.0,0.0,0.0,0.0,0.0,0.0,0.0,0.0,0.0,0.0,0.0,0.0,0.0,0.0,0.0,0.0,0.0,0.0,0.0,0.0,0.0,0.0,0.0,0.0,0.0,0.0,0.0,0.0,0.0,0.0,0.0,0.0,0.0,0.0,0.0,0.0,0.0,0.0,0.0,0.0,0.0,0.0,0.0,0.0,0.0,0.0,0.0,0.0,0.0,0.0,0.0,0.0,0.0,0.0,0.0,0.0,0.0,0.0,0.0,0.0,0.0,0.0,0.0,0.0,0.0,0.0,0.0,0.0,0.0,0.0,0.0,0.0,0.0,0.0,0.0,0.0,0.0,0.0,0.0,0.0,0.0,0.0,0.0,0.0,0.0,0.0,0.0,0.0,0.0,0.0,0.0,0.0,0.0,0.0,0.0,0.0,0.0,0.0,0.0,0.0,0.0,0.0,0.0,0.0,0.0,0.0,0.0,0.0,0.0,0.0,0.0,0.0,0.0,0.0,0.0,0.0,0.0,0.0,0.0,0.0,0.0,0.0,0.0,0.0,0.0,0.0,0.0,0.0,0.0,0.0,0.0,0.0,0.0,0.0,0.0,0.0,0.0,0.0,0.0,0.0,0.0,0.0,0.0,0.0,0.0,0.0,0.0,0.0,0.0,0.0,0.0,0.0,0.0,0.0,0.0,0.0,0.0,0.0,0.0,0.0,0.0,0.0,0.0,0.0,0.0,0.0,0.0,0.0,0.0,0.0,0.0,0.0,0.0,0.0,0.0,0.0,0.0,0.0,0.0,0.0,0.0,0.0,0.0,0.0,0.0,0.0,0.0,0.0,0.0,0.0,0.0,0.0,0.0,0.0,0.0,0.0,0.0,0.0,0.0,0.0,0.0,0.0,0.0,0.0,0.0,0.0,0.0,0.0,0.0,0.0,0.0,0.0,0.0,0.0,0.0,0.0,0.0,0.0,0.0,0.0,0.0,0.0,0.0,0.0,0.0,0.0,0.0,0.0,0.0,0.0,0.0,0.0,0.0,0.0,0.0,0.0,0.0,0.0,0.0,0.0,0.0,0.0,0.0,0.0,0.0,0.0,0.0,0.0,0.0,0.0,0.0,0.0,0.0,0.0,0.0,0.0,0.0,0.0,0.0,0.0,0.0,0.0,0.0,0.0,0.0,0.0,0.0,0.0,0.0,0.0,0.0,0.0,0.0,0.0,0.0,0.0,0.0,0.0,0.0,0.0,0.0,0.0,0.0,0.0,0.0,0.0,0.0,0.0,0.0,0.0,0.0,0.0,0.0,0.0,0.0,0.0,0.0,0.0,0.0,0.0,0.0,0.0,0.0,0.0,0.0,0.0,0.0,0.0,0.0,0.0,0.0,0.0,0.0,0.0,0.0,0.0,0.0,0.0,0.0,0.0,0.0,0.0,0.0,0.0,0.0,0.0,0.0,0.0,0.0,0.0,0.0,0.0,0.0,0.0,0.0,0.0,0.0,0.0,0.0,0.0,0.0,0.0,0.0,0.0,0.0,0.0,0.0,0.0,0.0,0.0,0.0,0.0,0.0,0.0,0.0,0.0,0.0,0.0,0.0,0.0,0.0,0.0,0.0,0.0,0.0,0.0,0.0,0.0,0.0,0.0,0.0,0.0,0.0,0.0,0.0,0.0,0.0,0.0,0.0,0.0,0.0,0.0,0.0,0.0,0.0,0.0,0.0,0.0,0.0,0.0,0.0,0.0,0.0,0.0,0.0,0.0,0.0,0.0,0.0,0.0,0.0,0.0,0.0,0.0,0.0,0.0,0.0,0.0,0.0,0.0,0.0,0.0,0.0,0.0,0.0,0.0,0.0,0.0,0.0,0.0,0.0,0.0,0.0,0.0,0.0,0.0,0.0,0.0,0.0,0.0,0.0,0.0,0.0,0.0,0.0,0.0,0.0,0.0,0.0,0.0,0.0,0.0,0.0,0.0,0.0,0.0,0.0,0.0,0.0,0.0,0.0,0.0,0.0,0.0,0.0,0.0,0.0,0.0,0.0,0.0,0.0,0.0,0.0,0.0,0.0,0.0,0.0,0.0,0.0,0.0,0.0,0.0,0.0,0.0,0.0,0.0,0.0,0.0,0.0,0.0,0.0,0.0,0.0,0.0,0.0,0.0,0.0,0.0,0.0,0.0,0.0,0.0,0.0,0.0,0.0,0.0,0.0,0.0,0.0,0.0,0.0,0.0,0.0,0.0,0.0,0.0,0.0,0.0,0.0,0.0,0.0,0.0,0.0,0.0,0.0,0.0,0.0,0.0,0.0,0.0,0.0,0.0,0.0,0.0,0.0,0.0,0.0,0.0,0.0,0.0,0.0,0.0,0.0,0.0,0.0,0.0,0.0,0.0,0.0,0.0,0.0,0.0,0.0,0.0,0.0,0.0,0.0,0.0,0.0,0.0,0.0,0.0,0.0,0.0,0.0,0.0,0.0,0.0,0.0,0.0,0.0,0.0,0.0,0.0,0.0,0.0,0.0,0.0,0.0,0.0,0.0,0.0,0.0,0.0,0.0,0.0,0.0,0.0,0.0,0.0,0.0,0.0,0.0,0.0,0.0,0.0,0.0,0.0,0.0,0.0,0.0,0.0,0.0,0.0,0.0,0.0,0.0,0.0,0.0,0.0,0.0,0.0,0.0,0.0,0.0,0.0,0.0,0.0,0.0,0.0,0.0,0.0,0.0,0.0,0.0,0.0,0.0,0.0,0.0,0.0,0.0,0.0,0.0,0.0,0.0,0.0,0.0,0.0,0.0,0.0,0.0,0.0,0.0,0.0,0.0,0.0,0.0,0.0,0.0,0.0,0.0,0.0,0.0,0.0,0.0,0.0,0.0,0.0,0.0,0.0,0.0,0.0,0.0,0.0,0.0,0.0,0.0,0.0,0.0,0.0,0.0,0.0,0.0,0.0,0.0,0.0,0.0,0.0,0.0,0.0,0.0,0.0,0.0,0.0,0.0,0.0,0.0,0.0,0.0,0.0,0.0,0.0,0.0,0.0,0.0,0.0,0.0,0.0,0.0,0.0,0.0,0.0,0.0,0.0,0.0,0.0,0.0,0.0,0.0,0.0,0.0,0.0,0.0,0.0,0.0,0.0,0.0,0.0,0.0,0.0,0.0,0.0,0.0,0.0,0.0,0.0,0.0,0.0,0.0,0.0,0.0,0.0,0.0,0.0,0.0,0.0,0.0,0.0,0.0,0.0,0.0,0.0,0.0,0.0,0.0,0.0,0.0,0.0,0.0,0.0,0.0,0.0,0.0,0.0,0.0,0.0,0.0,0.0,-2.171,0.0,0.0,0.0,-1.9187,0.0,0.0,0.0,0.0,0.0,0.0,0.0,0.0,0.0,0.0,0.0,0.0,0.0,0.0,0.0,0.0,0.0,0.0,0.0,0.0,0.0,0.0,0.0,0.0,0.0,0.0,0.0,0.0,0.0,0.0,0.0,0.0,0.0,0.0,0.0,0.0,0.0,0.0,0.0,0.0,0.0,0.0,0.0,0.0,0.0,0.0,0.0,0.0,0.0,0.0,0.0,0.0,0.0,0.0,0.0,0.0,0.0,0.0,0.0,0.0,0.0,0.0,0.0,0.0,0.0,0.0,0.0,0.0,0.0,0.0,0.0,0.0,0.0,0.0,0.0,0.0,0.0,0.0,0.0,0.0,0.0,0.0,0.0,0.0,0.0,0.0,0.0,0.0,0.0,0.0,0.0,0.0,0.0,0.0,0.0,0.0,0.0,0.0,0.0,0.0,0.0,0.0,0.0,0.0,0.0,0.0,0.0,0.0,0.0,0.0,-2.204,-2.2419,-2.1266,-2.0419,-2.0009,0.0,0.0,0.0,0.0,0.0,0.0,0.0,0.0,0.0,0.0,0.0,0.0,0.0,0.0,0.0,0.0,0.0,0.0,0.0,0.0,0.0,0.0,0.0,0.0,0.0,0.0,0.0,0.0,0.0,0.0,0.0,0.0,0.0,0.0,0.0,0.0,0.0,0.0,0.0,0.0,0.0,0.0,0.0,0.0,0.0,0.0,0.0,0.0,0.0,0.0,0.0,0.0,0.0,0.0,0.0,0.0,0.0,0.0,0.0,0.0,0.0,0.0,0.0,0.0,0.0,0.0,0.0,0.0,0.0,0.0,0.0,0.0,0.0,0.0,0.0,0.0,0.0,0.0,0.0,0.0,0.0,0.0,0.0,0.0,0.0,0.0,0.0,0.0,0.0,0.0,0.0,0.0,0.0,0.0,0.0,0.0,0.0,0.0,0.0,0.0,0.0,0.0,0.0,0.0,0.0,0.0,0.0,0.0,0.0,0.0,0.0,0.0,-2.1259,-2.039,-2.0125,0.0,0.0,0.0,0.0,0.0,0.0,0.0,0.0,0.0,0.0,0.0,0.0,0.0,0.0,0.0,0.0,0.0,0.0,0.0,0.0,0.0,0.0,0.0,0.0,0.0,0.0,0.0,0.0,0.0,0.0,0.0,0.0,0.0,0.0,0.0,0.0,0.0,0.0,0.0,0.0,0.0,0.0,0.0,0.0,0.0,0.0,0.0,0.0,0.0,0.0,0.0,0.0,0.0,0.0,0.0,0.0,0.0,0.0,0.0,0.0,0.0,0.0,0.0,0.0,0.0,0.0,0.0,0.0,0.0,0.0,0.0,0.0,0.0,0.0,0.0,0.0,0.0,0.0,0.0,0.0,0.0,0.0,0.0,0.0,0.0,0.0,0.0,0.0,0.0,0.0,0.0,0.0,0.0,0.0,0.0,0.0,0.0,0.0,0.0,0.0,0.0,0.0,0.0,0.0,0.0,0.0,0.0,0.0,0.0,0.0,-2.0439,-2.1158,-2.0404,0.0,-1.858,0.0,0.0,0.0,0.0,0.0,0.0,0.0,0.0,0.0,0.0,0.0,0.0,0.0,0.0,0.0,0.0,0.0,0.0,0.0,0.0,0.0,0.0,0.0,0.0,0.0,0.0,0.0,0.0,0.0,0.0,0.0,0.0,0.0,0.0,0.0,0.0,0.0,0.0,0.0,0.0,0.0,0.0,0.0,0.0,0.0,0.0,0.0,0.0,0.0,0.0,0.0,0.0,0.0,0.0,0.0,0.0,0.0,0.0,0.0,0.0,0.0,0.0,0.0,0.0,0.0,0.0,0.0,0.0,0.0,0.0,0.0,0.0,0.0,0.0,0.0,0.0,0.0,0.0,0.0,0.0,0.0,0.0,0.0,0.0,0.0,0.0,0.0,0.0,0.0,0.0,0.0,0.0,0.0,0.0,0.0,0.0,0.0,0.0,0.0,0.0,0.0,0.0,0.0,0.0,0.0,0.0,0.0,0.0,0.0,0.0,-2.0342,-2.1154,-2.0362,-1.9414,0.0,0.0,0.0,0.0,0.0,0.0,0.0,0.0,0.0,0.0,0.0,0.0,0.0,0.0,0.0,0.0,0.0,0.0,0.0,0.0,0.0,0.0,0.0,0.0,0.0,0.0,0.0,0.0,0.0,0.0,0.0,0.0,0.0,0.0,0.0,0.0,0.0,0.0,0.0,0.0,0.0,0.0,0.0,0.0,0.0,0.0,0.0,0.0,0.0,0.0,0.0,0.0,0.0,0.0,0.0,0.0,0.0,0.0,0.0,0.0,0.0,0.0,0.0,0.0,0.0,0.0,0.0,0.0,0.0,0.0,0.0,0.0,0.0,0.0,0.0,0.0,0.0,0.0,0.0,0.0,0.0,0.0,0.0,0.0,0.0,0.0,0.0,0.0,0.0,0.0,0.0,0.0,0.0,0.0,0.0,0.0,0.0,0.0,0.0,0.0,0.0,0.0,0.0,0.0,0.0,0.0,0.0,0.0,0.0,0.0,-1.9721,-2.0027,-2.0557,-1.9939,-1.9195,-1.8452,0.0,0.0,0.0,0.0,0.0,0.0,0.0,0.0,0.0,0.0,0.0,0.0,0.0,0.0,0.0,0.0,0.0,0.0,0.0,0.0,0.0,0.0,0.0,0.0,0.0,0.0,0.0,0.0,0.0,0.0,0.0,0.0,0.0,0.0,0.0,0.0,0.0,0.0,0.0,0.0,0.0,0.0,0.0,0.0,0.0,0.0,0.0,0.0,0.0,0.0,0.0,0.0,0.0,0.0,0.0,0.0,0.0,0.0,0.0,0.0,0.0,0.0,0.0,0.0,0.0,0.0,0.0,0.0,0.0,0.0,0.0,0.0,0.0,0.0,0.0,0.0,0.0,0.0,0.0,0.0,0.0,0.0,0.0,0.0,0.0,0.0,0.0,0.0,0.0,0.0,0.0,0.0,0.0,0.0,0.0,0.0,0.0,0.0,0.0,0.0,0.0,0.0,0.0,0.0,0.0,0.0,0.0,0.0,-1.895,-1.9012,-1.9047,-1.9048,-1.886,-1.8667,0.0,0.0,0.0,0.0,0.0,0.0,0.0,0.0,0.0,0.0,0.0,0.0,0.0,0.0,0.0,0.0,0.0,0.0,0.0,0.0,0.0,0.0,0.0,0.0,0.0,0.0,0.0,0.0,0.0,0.0,0.0,0.0,0.0,0.0,0.0,0.0,0.0,0.0,0.0,0.0,0.0,0.0,0.0,0.0,0.0,0.0,0.0,0.0,0.0,0.0,0.0,0.0,0.0,0.0,0.0,0.0,0.0,0.0,0.0,0.0,0.0,0.0,0.0,0.0,0.0,0.0,0.0,0.0,0.0,0.0,0.0,0.0,0.0,0.0,0.0,0.0,0.0,0.0,0.0,0.0,0.0,0.0,0.0,0.0,0.0,0.0,0.0,0.0,0.0,0.0,0.0,0.0,0.0,0.0,0.0,0.0,0.0,0.0,0.0,0.0,0.0,0.0,0.0,0.0,0.0,0.0,0.0,0.0,0.0,-1.8967,-1.9045,-1.9009,-1.8895,-1.8816,-1.8686,0.0,0.0,0.0,0.0,0.0,0.0,0.0,0.0,0.0,0.0,0.0,0.0,0.0,0.0,0.0,0.0,0.0,0.0,0.0,0.0,0.0,0.0,0.0,0.0,0.0,0.0,0.0,0.0,0.0,0.0,0.0,0.0,0.0,0.0,0.0,0.0,0.0,0.0,0.0,0.0,0.0,0.0,0.0,0.0,0.0,0.0,0.0,0.0,0.0,0.0,0.0,0.0,0.0,0.0,0.0,0.0,0.0,0.0,0.0,0.0,0.0,0.0,0.0,0.0,0.0,0.0,0.0,0.0,0.0,0.0,0.0,0.0,0.0,0.0,0.0,0.0,0.0,0.0,0.0,0.0,0.0,0.0,0.0,0.0,0.0,0.0,0.0,0.0,0.0,0.0,0.0,0.0,0.0,0.0,0.0,0.0,0.0,0.0,0.0,0.0,0.0,0.0,0.0,0.0,0.0,0.0,0.0,0.0,0.0,-1.9018,-1.9078,-1.9035,-1.8895,-1.8852,-1.8732,0.0,0.0,0.0,0.0,0.0,0.0,0.0,0.0,0.0,0.0,0.0,0.0,0.0,0.0,0.0,0.0,0.0,0.0,0.0,0.0,0.0,0.0,0.0,0.0,0.0,0.0,0.0,0.0,0.0,0.0,0.0,0.0,0.0,0.0,0.0,0.0,0.0,0.0,0.0,0.0,0.0,0.0,0.0,0.0,0.0,0.0,0.0,0.0,0.0,0.0,0.0,0.0,0.0,0.0,0.0,0.0,0.0,0.0,0.0,0.0,0.0,0.0,0.0,0.0,0.0,0.0,0.0,0.0,0.0,0.0,0.0,0.0,0.0,0.0,0.0,0.0,0.0,0.0,0.0,0.0,0.0,0.0,0.0,0.0,0.0,0.0,0.0,0.0,0.0,0.0,0.0,0.0,0.0,0.0,0.0,0.0,0.0,0.0,0.0,0.0,0.0,0.0,0.0,0.0,0.0,0.0,0.0,0.0,-1.8993,-1.9123,-1.9123,-1.9099,-1.8913,-1.8914,-1.8806,0.0,0.0,0.0,0.0,0.0,0.0,0.0,0.0,0.0,0.0,0.0,0.0,0.0,0.0,0.0,0.0,0.0,0.0,0.0,0.0,0.0,0.0,0.0,0.0,0.0,0.0,0.0,0.0,0.0,0.0,0.0,0.0,0.0,0.0,0.0,0.0,0.0,0.0,0.0,0.0,0.0,0.0,0.0,0.0,0.0,0.0,0.0,0.0,0.0,0.0,0.0,0.0,0.0,0.0,0.0,0.0,0.0,0.0,0.0,0.0,0.0,0.0,0.0,0.0,0.0,0.0,0.0,0.0,0.0,0.0,0.0,0.0,0.0,0.0,0.0,0.0,0.0,0.0,0.0,0.0,0.0,0.0,0.0,0.0,0.0,0.0,0.0,0.0,0.0,0.0,0.0,0.0,0.0,0.0,0.0,0.0,0.0,0.0,0.0,0.0,0.0,0.0,0.0,0.0,0.0,0.0,0.0,0.0,0.0,-1.992,-1.992,-1.9849,-1.9732,-1.9183,-1.8815,0.0,0.0,0.0,0.0,0.0,0.0,0.0,0.0,0.0,0.0,0.0,0.0,0.0,0.0,0.0,0.0,0.0,0.0,0.0,0.0,0.0,0.0,0.0,0.0,0.0,0.0,0.0,0.0,0.0,0.0,0.0,0.0,0.0,0.0,0.0,0.0,0.0,0.0,0.0,0.0,0.0,0.0,0.0,0.0,0.0,0.0,0.0,0.0,0.0,0.0,0.0,0.0,0.0,0.0,0.0,0.0,0.0,0.0,0.0,0.0,0.0,0.0,0.0,0.0,0.0,0.0,0.0,0.0,0.0,0.0,0.0,0.0,0.0,0.0,0.0,0.0,0.0,0.0,0.0,0.0,0.0,0.0,0.0,0.0,0.0,0.0,0.0,0.0,0.0,0.0,0.0,0.0,0.0,0.0,0.0,0.0,0.0,0.0,0.0,0.0,0.0,0.0,0.0,0.0,0.0,0.0,0.0,0.0,0.0,-2.0753,-2.0753,-2.0535,-2.0118,-1.9614,-1.911,-1.8592,0.0,0.0,0.0,0.0,0.0,0.0,0.0,0.0,0.0,0.0,0.0,0.0,0.0,0.0,0.0,0.0,0.0,0.0,0.0,0.0,0.0,0.0,0.0,0.0,0.0,0.0,0.0,0.0,0.0,0.0,0.0,0.0,0.0,0.0,0.0,0.0,0.0,0.0,0.0,0.0,0.0,0.0,0.0,0.0,0.0,0.0,0.0,0.0,0.0,0.0,0.0,0.0,0.0,0.0,0.0,0.0,0.0,0.0,0.0,0.0,0.0,0.0,0.0,0.0,0.0,0.0,0.0,0.0,0.0,0.0,0.0,0.0,0.0,0.0,0.0,0.0,0.0,0.0,0.0,0.0,0.0,0.0,0.0,0.0,0.0,0.0,0.0,0.0,0.0,0.0,0.0,0.0,0.0,0.0,0.0,0.0,0.0,0.0,0.0,0.0,0.0,0.0,0.0,0.0,0.0,0.0,0.0,0.0,-2.1559,-2.1604,-2.1195,-2.0299,-2.0145,-1.9639,0.0,0.0,0.0,0.0,0.0,0.0,0.0,0.0,0.0,0.0,0.0,0.0,0.0,0.0,0.0,0.0,0.0,0.0,0.0,0.0,0.0,0.0,0.0,0.0,0.0,0.0,0.0,0.0,0.0,0.0,0.0,0.0,0.0,0.0,0.0,0.0,0.0,0.0,0.0,0.0,0.0,0.0,0.0,0.0,0.0,0.0,0.0,0.0,0.0,0.0,0.0,0.0,0.0,0.0,0.0,0.0,0.0,0.0,0.0,0.0,0.0,0.0,0.0,0.0,0.0,0.0,0.0,0.0,0.0,0.0,0.0,0.0,0.0,0.0,0.0,0.0,0.0,0.0,0.0,0.0,0.0,0.0,0.0,0.0,0.0,0.0,0.0,0.0,0.0,0.0,0.0,0.0,0.0,0.0,0.0,0.0,0.0,0.0,0.0,0.0,0.0,0.0,0.0,0.0,0.0,0.0,0.0,0.0,0.0,-2.2378,-2.2911,-2.2777,-2.1882,-2.0728,-1.9895,0.0,0.0,0.0,0.0,0.0,0.0,0.0,0.0,0.0,0.0,0.0,0.0,0.0,0.0,0.0,0.0,0.0,0.0,0.0,0.0,0.0,0.0,0.0,0.0,0.0,0.0,0.0,0.0,0.0,0.0,0.0,0.0,0.0,0.0,0.0,0.0,0.0,0.0,0.0,0.0,0.0,0.0,0.0,0.0,0.0,0.0,0.0,0.0,0.0,0.0,0.0,0.0,0.0,0.0,0.0,0.0,0.0,0.0,0.0,0.0,0.0,0.0,0.0,0.0,0.0,0.0,0.0,0.0,0.0,0.0,0.0,0.0,0.0,0.0,0.0,0.0,0.0,0.0,0.0,0.0,0.0,0.0,0.0,0.0,0.0,0.0,0.0,0.0,0.0,0.0,0.0,0.0,0.0,0.0,0.0,0.0,0.0,0.0,0.0,0.0,0.0,0.0,0.0,0.0,0.0,0.0,0.0,0.0,-2.1925,-2.2689,-2.344,-2.3575,-2.3007,-2.1417,-2.0295,0.0,0.0,0.0,0.0,0.0,0.0,0.0,0.0,0.0,0.0,0.0,0.0,0.0,0.0,0.0,0.0,0.0,0.0,0.0,0.0,0.0,0.0,0.0,0.0,0.0,0.0,0.0,0.0,0.0,0.0,0.0,0.0,0.0,0.0,0.0,0.0,0.0,0.0,0.0,0.0,0.0,0.0,0.0,0.0,0.0,0.0,0.0,0.0,0.0,0.0,0.0,0.0,0.0,0.0,0.0,0.0,0.0,0.0,0.0,0.0,0.0,0.0,0.0,0.0,0.0,0.0,0.0,0.0,0.0,0.0,0.0,0.0,0.0,0.0,0.0,0.0,0.0,0.0,0.0,0.0,0.0,0.0,0.0,0.0,0.0,0.0,0.0,0.0,0.0,0.0,0.0,0.0,0.0,0.0,0.0,0.0,0.0,0.0,0.0,0.0,0.0,0.0,0.0,0.0,0.0,0.0,0.0,0.0,-2.1999,-2.2835,-2.3534,-2.3842,-2.3666,-2.2063,-2.0758,0.0,0.0,0.0,0.0,0.0,0.0,0.0,0.0,0.0,0.0,0.0,0.0,0.0,0.0,0.0,0.0,0.0,0.0,0.0,0.0,0.0,0.0,0.0,0.0,0.0,0.0,0.0,0.0,0.0,0.0,0.0,0.0,0.0,0.0,0.0,0.0,0.0,0.0,0.0,0.0,0.0,0.0,0.0,0.0,0.0,0.0,0.0,0.0,0.0,0.0,0.0,0.0,0.0,0.0,0.0,0.0,0.0,0.0,0.0,0.0,0.0,0.0,0.0,0.0,0.0,0.0,0.0,0.0,0.0,0.0,0.0,0.0,0.0,0.0,0.0,0.0,0.0,0.0,0.0,0.0,0.0,0.0,0.0,0.0,0.0,0.0,0.0,0.0,0.0,0.0,0.0,0.0,0.0,0.0,0.0,0.0,0.0,0.0,0.0,0.0,0.0,0.0,0.0,0.0,0.0,0.0,0.0,0.0,-2.2291,-2.3685,-2.3826,-2.3842,-2.3691,-2.2079,-2.1003,0.0,0.0,0.0,0.0,0.0,0.0,0.0,0.0,0.0,0.0,0.0,0.0,0.0,0.0,0.0,0.0,0.0,0.0,0.0,0.0,0.0,0.0,0.0,0.0,0.0,0.0,0.0,0.0,0.0,0.0,0.0,0.0,0.0,0.0,0.0,0.0,0.0,0.0,0.0,0.0,0.0,0.0,0.0,0.0,0.0,0.0,0.0,0.0,-2.155,0.0,0.0,0.0,0.0,0.0,0.0,0.0,0.0,0.0,0.0,0.0,0.0,0.0,0.0,0.0,0.0,0.0,0.0,0.0,0.0,0.0,0.0,0.0,0.0,0.0,0.0,0.0,0.0,0.0,0.0,0.0,0.0,0.0,0.0,0.0,0.0,0.0,0.0,0.0,0.0,0.0,0.0,0.0,0.0,0.0,0.0,0.0,0.0,0.0,0.0,0.0,0.0,0.0,0.0,0.0,0.0,0.0,0.0,0.0,-2.2447,-2.3923,-2.3957,-2.3864,-2.3648,-2.207,-2.1073,0.0,0.0,0.0,0.0,0.0,0.0,0.0,0.0,0.0,0.0,0.0,0.0,0.0,0.0,0.0,0.0,0.0,0.0,0.0,0.0,0.0,0.0,0.0,0.0,0.0,0.0,0.0,0.0,0.0,0.0,0.0,0.0,0.0,0.0,0.0,0.0,0.0,0.0,0.0,0.0,0.0,0.0,0.0,0.0,0.0,0.0,0.0,0.0,0.0,0.0,0.0,0.0,0.0,0.0,0.0,0.0,0.0,0.0,0.0,0.0,0.0,0.0,0.0,0.0,0.0,0.0,0.0,0.0,0.0,0.0,0.0,0.0,0.0,0.0,0.0,0.0,0.0,0.0,0.0,0.0,0.0,0.0,0.0,0.0,0.0,0.0,0.0,0.0,0.0,0.0,0.0,0.0,0.0,0.0,0.0,0.0,0.0,0.0,0.0,0.0,0.0,0.0,0.0,0.0,0.0,0.0,0.0,-2.1794,-2.252,-2.3924,-2.3988,-2.3903,-2.3684,-2.2088,-2.1081,-2.0782,0.0,0.0,0.0,0.0,0.0,0.0,0.0,0.0,0.0,0.0,0.0,0.0,0.0,0.0,0.0,0.0,0.0,0.0,0.0,0.0,0.0,0.0,0.0,0.0,0.0,0.0,0.0,0.0,0.0,0.0,0.0,0.0,0.0,0.0,0.0,0.0,0.0,0.0,-2.1348,-2.1511,0.0,0.0,0.0,0.0,0.0,0.0,0.0,0.0,-2.1789,0.0,0.0,0.0,0.0,0.0,0.0,0.0,0.0,0.0,0.0,0.0,0.0,0.0,0.0,0.0,0.0,0.0,0.0,0.0,0.0,0.0,0.0,0.0,0.0,0.0,0.0,0.0,0.0,0.0,0.0,0.0,0.0,0.0,0.0,0.0,0.0,0.0,0.0,0.0,0.0,0.0,0.0,0.0,0.0,0.0,0.0,0.0,0.0,0.0,0.0,0.0,0.0,0.0,0.0,0.0,0.0,-2.1766,-2.1794,-2.2502,-2.3951,-2.3988,-2.3904,-2.3666,-2.2079,-2.1073,-2.0754,0.0,0.0,0.0,0.0,0.0,0.0,0.0,0.0,0.0,0.0,0.0,0.0,0.0,0.0,0.0,0.0,0.0,0.0,0.0,0.0,0.0,0.0,0.0,0.0,0.0,0.0,0.0,0.0,0.0,0.0,0.0,0.0,0.0,0.0,0.0,0.0,0.0,0.0,0.0,-2.1672,-2.1709,0.0,0.0,0.0,0.0,0.0,0.0,0.0,0.0,-2.1789,0.0,0.0,0.0,0.0,0.0,0.0,0.0,0.0,0.0,0.0,0.0,0.0,0.0,0.0,0.0,0.0,0.0,0.0,0.0,0.0,0.0,0.0,0.0,0.0,0.0,0.0,0.0,0.0,0.0,0.0,0.0,0.0,0.0,0.0,0.0,0.0,0.0,0.0,0.0,0.0,0.0,0.0,0.0,0.0,0.0,0.0,0.0,0.0,0.0,0.0,0.0,0.0,0.0,0.0,0.0,-2.1675,-2.1794,-2.2502,-2.3933,-2.3958,-2.3882,-2.3673,-2.2047,-2.1032,0.0,0.0,0.0,0.0,0.0,0.0,0.0,0.0,0.0,0.0,0.0,0.0,0.0,0.0,0.0,0.0,0.0,0.0,0.0,0.0,0.0,0.0,0.0,0.0,0.0,0.0,0.0,0.0,0.0,0.0,0.0,0.0,0.0,0.0,0.0,0.0,0.0,0.0,0.0,0.0,-2.1746,-2.1768,-2.1789,0.0,0.0,0.0,0.0,0.0,0.0,-2.1789,-2.1789,0.0,0.0,0.0,0.0,0.0,0.0,0.0,0.0,0.0,0.0,0.0,0.0,0.0,0.0,0.0,0.0,0.0,0.0,0.0,0.0,0.0,0.0,0.0,0.0,0.0,0.0,0.0,0.0,0.0,0.0,0.0,0.0,0.0,0.0,0.0,0.0,0.0,0.0,0.0,0.0,0.0,0.0,0.0,0.0,0.0,0.0,0.0,0.0,0.0,0.0,0.0,0.0,0.0,0.0,0.0,-2.1446,-2.1721,-2.2429,-2.3695,-2.3863,-2.3833,-2.3675,-2.2016,-2.0999,0.0,0.0,0.0,0.0,0.0,0.0,0.0,0.0,0.0,0.0,0.0,0.0,0.0,0.0,0.0,0.0,0.0,0.0,0.0,0.0,0.0,0.0,0.0,0.0,0.0,0.0,0.0,0.0,0.0,0.0,0.0,0.0,0.0,0.0,0.0,0.0,0.0,0.0,0.0,0.0,0.0,-2.1804,-2.1819,-2.1827,0.0,0.0,0.0,0.0,-2.1789,-2.1789,0.0,0.0,0.0,0.0,0.0,0.0,0.0,0.0,0.0,0.0,0.0,0.0,0.0,0.0,0.0,0.0,0.0,0.0,0.0,0.0,0.0,0.0,0.0,0.0,0.0,0.0,0.0,0.0,0.0,0.0,0.0,0.0,0.0,0.0,0.0,0.0,0.0,0.0,0.0,0.0,0.0,0.0,0.0,0.0,0.0,0.0,0.0,0.0,0.0,0.0,0.0,0.0,0.0,0.0,0.0,0.0,-2.0593,-2.1399,-2.2172,-2.2929,-2.3553,-2.3833,-2.3691,-2.1998,-2.1018,0.0,0.0,0.0,0.0,0.0,0.0,0.0,0.0,0.0,0.0,0.0,0.0,0.0,0.0,0.0,0.0,0.0,0.0,0.0,0.0,0.0,0.0,0.0,0.0,0.0,0.0,0.0,0.0,0.0,0.0,0.0,0.0,0.0,0.0,0.0,0.0,0.0,0.0,0.0,0.0,0.0,-2.1819,-2.1884,-2.1848,-2.1819,0.0,0.0,-2.1789,-2.1789,-2.1789,0.0,0.0,0.0,0.0,0.0,0.0,0.0,0.0,0.0,0.0,0.0,0.0,0.0,0.0,0.0,0.0,0.0,0.0,0.0,0.0,0.0,0.0,0.0,0.0,0.0,0.0,0.0,0.0,0.0,0.0,0.0,0.0,0.0,0.0,0.0,0.0,0.0,0.0,0.0,0.0,0.0,0.0,0.0,0.0,0.0,0.0,0.0,0.0,0.0,0.0,0.0,0.0,0.0,0.0,0.0,-1.8447,-2.0447,-2.1363,-2.2136,-2.2783,-2.3488,-2.3812,-2.3711,-2.1966,-2.0967,0.0,0.0,0.0,0.0,0.0,0.0,0.0,0.0,0.0,0.0,0.0,0.0,0.0,0.0,0.0,0.0,0.0,0.0,0.0,0.0,0.0,0.0,0.0,0.0,0.0,0.0,0.0,0.0,0.0,0.0,0.0,0.0,0.0,0.0,0.0,0.0,0.0,0.0,0.0,0.0,0.0,0.0,-2.194,-2.1949,0.0,0.0,0.0,-2.1911,-2.1911,0.0,0.0,0.0,0.0,0.0,0.0,0.0,0.0,0.0,0.0,0.0,0.0,0.0,0.0,0.0,0.0,0.0,0.0,0.0,0.0,0.0,0.0,0.0,0.0,0.0,0.0,0.0,0.0,0.0,0.0,0.0,0.0,0.0,0.0,0.0,0.0,0.0,0.0,0.0,0.0,0.0,0.0,0.0,0.0,0.0,0.0,0.0,0.0,0.0,0.0,0.0,0.0,0.0,0.0,0.0,0.0,0.0,-2.0457,-2.1363,-2.2126,-2.2792,-2.3439,-2.3771,-2.3673,-2.1945,0.0,0.0,0.0,0.0,0.0,0.0,0.0,0.0,0.0,0.0,0.0,0.0,0.0,0.0,0.0,0.0,0.0,0.0,0.0,0.0,0.0,0.0,0.0,0.0,0.0,0.0,0.0,-1.5123,0.0,0.0,0.0,0.0,0.0,0.0,0.0,0.0,0.0,0.0,0.0,0.0,0.0,0.0,-2.1955,-2.2044,-2.2036,-2.2004,0.0,0.0,-2.1998,-2.1998,-2.1998,-2.1998,0.0,0.0,0.0,0.0,0.0,0.0,0.0,0.0,0.0,0.0,0.0,0.0,0.0,0.0,0.0,0.0,0.0,0.0,0.0,0.0,0.0,0.0,0.0,0.0,0.0,0.0,0.0,0.0,0.0,0.0,0.0,0.0,0.0,0.0,0.0,0.0,0.0,0.0,0.0,0.0,0.0,0.0,0.0,0.0,0.0,0.0,0.0,0.0,0.0,0.0,0.0,0.0,0.0,0.0,0.0,-2.0429,-2.1354,-2.2126,-2.2792,-2.3466,-2.3771,-2.3684,-2.1954,-2.0937,0.0,0.0,0.0,0.0,0.0,0.0,0.0,0.0,0.0,0.0,0.0,0.0,0.0,0.0,0.0,0.0,0.0,0.0,0.0,0.0,0.0,0.0,0.0,0.0,0.0,0.0,0.0,0.0,0.0,0.0,0.0,0.0,0.0,0.0,0.0,0.0,0.0,0.0,0.0,0.0,0.0,-2.2044,-2.2168,-2.2067,-2.2044,0.0,0.0,-2.1998,-2.1998,-2.1998,-2.1998,-2.1998,0.0,0.0,0.0,0.0,0.0,0.0,0.0,0.0,0.0,0.0,0.0,0.0,0.0,0.0,0.0,0.0,0.0,0.0,0.0,0.0,0.0,0.0,0.0,0.0,0.0,0.0,0.0,0.0,0.0,0.0,0.0,0.0,0.0,0.0,0.0,0.0,0.0,0.0,0.0,0.0,0.0,0.0,0.0,0.0,0.0,0.0,0.0,0.0,0.0,0.0,0.0,0.0,0.0,-1.8082,-2.0456,-2.1363,-2.2126,-2.2783,-2.3507,-2.3782,-2.3643,-2.1973,-2.0958,0.0,0.0,0.0,0.0,0.0,0.0,0.0,0.0,0.0,0.0,0.0,0.0,0.0,0.0,0.0,0.0,0.0,0.0,0.0,0.0,0.0,0.0,0.0,0.0,0.0,0.0,0.0,0.0,-1.6501,-1.6865,-1.7187,0.0,0.0,0.0,0.0,0.0,0.0,0.0,0.0,0.0,0.0,-2.2166,-2.2248,-2.2214,0.0,0.0,-2.2223,-2.2192,-2.2192,-2.2192,-2.2183,-2.2192,-2.2183,0.0,0.0,0.0,0.0,0.0,0.0,0.0,0.0,0.0,0.0,0.0,0.0,0.0,0.0,0.0,0.0,0.0,0.0,0.0,0.0,0.0,0.0,0.0,0.0,0.0,0.0,0.0,0.0,0.0,0.0,0.0,0.0,0.0,0.0,0.0,0.0,0.0,0.0,0.0,0.0,0.0,0.0,0.0,0.0,0.0,0.0,0.0,0.0,0.0,0.0,0.0,0.0,-1.8218,-2.0849,-2.1483,-2.2255,-2.3186,-2.3655,-2.3812,-2.3636,-2.2218,-2.1208,0.0,0.0,0.0,0.0,0.0,0.0,0.0,0.0,0.0,0.0,0.0,0.0,0.0,0.0,0.0,0.0,0.0,0.0,0.0,0.0,0.0,0.0,0.0,0.0,0.0,0.0,0.0,0.0,-1.6882,-1.7075,-1.7301,0.0,0.0,0.0,0.0,0.0,0.0,0.0,0.0,0.0,0.0,-2.2248,-2.2288,-2.2305,-2.2305,-2.2305,-2.2305,-2.2305,-2.2305,-2.2305,-2.2305,-2.2305,0.0,0.0,0.0,0.0,0.0,0.0,0.0,0.0,0.0,0.0,0.0,0.0,0.0,0.0,0.0,0.0,0.0,0.0,0.0,0.0,0.0,0.0,0.0,0.0,0.0,0.0,0.0,0.0,0.0,0.0,-1.9369,0.0,0.0,0.0,0.0,0.0,0.0,0.0,0.0,0.0,0.0,0.0,0.0,0.0,0.0,0.0,0.0,0.0,0.0,0.0,0.0,0.0,0.0,-1.8511,-2.1702,-2.1766,-2.2538,-2.4002,-2.3967,-2.3864,-2.3766,-2.2742,-2.1742,-2.0798,0.0,0.0,0.0,0.0,0.0,0.0,0.0,0.0,0.0,0.0,0.0,0.0,0.0,0.0,0.0,0.0,0.0,0.0,0.0,0.0,0.0,0.0,0.0,0.0,0.0,0.0,-1.707,-1.7273,-1.7378,0.0,0.0,0.0,0.0,0.0,0.0,0.0,0.0,0.0,0.0,-2.2245,-2.2305,-2.2305,-2.2305,-2.2305,-2.2305,-2.2305,-2.2305,-2.2305,-2.2305,-2.2305,0.0,0.0,0.0,0.0,0.0,0.0,0.0,0.0,0.0,0.0,0.0,0.0,0.0,0.0,0.0,0.0,0.0,0.0,0.0,0.0,0.0,0.0,0.0,0.0,0.0,0.0,0.0,-2.2375,-2.1786,0.0,0.0,0.0,0.0,0.0,0.0,0.0,0.0,0.0,0.0,0.0,-2.1105,-2.1088,0.0,0.0,0.0,0.0,0.0,0.0,0.0,0.0,0.0,0.0,0.0,0.0,-1.9051,-2.1656,-2.1794,-2.2529,-2.3971,-2.3996,-2.3873,-2.3665,-2.2758,-2.1518,-1.9913,0.0,0.0,0.0,0.0,0.0,0.0,0.0,0.0,0.0,0.0,0.0,0.0,0.0,0.0,0.0,0.0,0.0,0.0,0.0,0.0,0.0,0.0,0.0,0.0,0.0,-1.7108,0.0,0.0,0.0,0.0,0.0,0.0,0.0,0.0,0.0,0.0,0.0,-2.2214,-2.2262,-2.2274,-2.2305,-2.2305,-2.2305,-2.2305,0.0,0.0,0.0,0.0,0.0,0.0,0.0,0.0,0.0,0.0,0.0,0.0,0.0,0.0,-2.2525,-2.256,-2.2587,-2.2619,-2.2712,0.0,0.0,0.0,0.0,0.0,0.0,0.0,0.0,0.0,0.0,0.0,0.0,0.0,0.0,-2.289,0.0,-2.1496,0.0,0.0,0.0,0.0,0.0,0.0,0.0,0.0,-2.1942,-2.1951,-2.1942,-2.1942,-2.1673,0.0,-2.1156,-2.0554,0.0,0.0,0.0,0.0,0.0,0.0,0.0,0.0,-1.96,-2.1702,-2.2088,-2.2813,-2.3953,-2.4015,-2.3893,-2.3674,-2.27,-2.1571,-2.024,-1.8741,-1.7454,0.0,0.0,0.0,0.0,0.0,0.0,0.0,0.0,0.0,0.0,0.0,0.0,0.0,0.0,0.0,0.0,0.0,0.0,0.0,0.0,0.0,0.0,0.0,-1.7236,0.0,0.0,0.0,0.0,0.0,0.0,0.0,0.0,0.0,-2.0389,-2.145,-2.2248,-2.2296,-2.2305,-2.2305,-2.2305,0.0,0.0,0.0,0.0,0.0,0.0,0.0,-2.2305,-2.2305,-2.2305,-2.231,-2.2338,-2.2413,-2.2501,-2.2587,0.0,0.0,-2.2649,-2.2667,-2.2707,-2.2777,-2.2833,-2.2893,-2.2914,-2.2999,-2.3065,0.0,0.0,0.0,0.0,0.0,0.0,0.0,0.0,-2.3793,-2.3362,0.0,-2.237,0.0,0.0,0.0,0.0,0.0,-2.2037,0.0,0.0,-2.2137,-2.2089,-2.2107,-2.2126,-2.2081,-2.2039,-2.2039,-2.1959,-2.1743,-1.9479,0.0,0.0,0.0,0.0,0.0,0.0,-2.0169,-2.1822,-2.2602,-2.3354,-2.4057,-2.4035,-2.3925,-2.3756,-2.2655,-2.1937,-2.1618,-1.9407,-1.8062,-1.7886,-1.642,0.0,0.0,0.0,0.0,0.0,0.0,0.0,0.0,0.0,0.0,0.0,0.0,0.0,0.0,0.0,0.0,0.0,0.0,0.0,0.0,-1.7128,0.0,0.0,0.0,0.0,0.0,0.0,0.0,0.0,0.0,0.0,-2.1103,-2.1798,-2.2296,-2.2305,0.0,0.0,0.0,0.0,-2.2305,-2.2305,-2.2305,-2.2305,-2.2305,-2.2305,-2.2305,-2.2305,0.0,0.0,-2.2391,-2.2506,-2.2601,-2.2623,-2.2667,-2.2712,-2.2699,-2.2751,-2.2803,-2.2808,-2.2902,-2.2995,-2.302,-2.3107,-2.3201,-2.5259,0.0,0.0,0.0,0.0,-2.4893,-2.4832,-2.4717,-2.4505,-2.4001,-2.3316,-2.3092,0.0,0.0,0.0,0.0,0.0,0.0,-2.3225,-2.3776,-2.3776,-2.3794,-2.3785,-2.3775,-2.3452,-2.286,-2.287,-2.2556,-2.1958,-2.1257,-2.0451,-1.9548,0.0,0.0,0.0,0.0,-2.0979,-2.2565,-2.2896,-2.3335,-2.4007,-2.4015,-2.3863,-2.3587,-2.3074,-2.2447,-2.1711,-2.0883,-1.9633,-1.7968,-1.7422,0.0,0.0,0.0,0.0,0.0,0.0,0.0,0.0,0.0,0.0,0.0,0.0,0.0,0.0,0.0,0.0,0.0,0.0,0.0,-1.7203,-1.7211,-1.7236,0.0,0.0,0.0,0.0,0.0,0.0,0.0,0.0,0.0,-2.1658,-2.2017,-2.2248,0.0,0.0,-2.2305,-2.2305,-2.2305,-2.2305,-2.2305,-2.2305,0.0,-2.2305,-2.2305,-2.2305,-2.2305,-2.2352,-2.2399,-2.2528,-2.2574,-2.2619,-2.265,-2.2738,-2.2777,-2.2769,-2.2782,-2.282,-2.2923,-2.2974,-2.3024,-2.3114,-2.3172,-2.3226,-2.5368,-2.526,-2.5207,-2.5157,-2.5064,-2.5003,-2.4932,-2.4886,-2.4875,-2.4533,-2.3982,-2.3982,-2.3697,-2.3155,-2.3152,0.0,0.0,0.0,-2.4082,-2.4533,-2.4506,-2.4507,-2.4507,-2.4508,-2.4231,-2.3739,-2.3712,-2.3462,-2.2981,-2.2631,-2.219,-2.1598,0.0,0.0,-2.1015,-2.1346,-2.1988,-2.296,-2.3318,-2.3647,-2.3988,-2.3934,-2.3765,-2.3496,-2.3241,-2.2814,-2.2196,-2.1665,-2.061,-1.8924,-1.8455,-1.7521,0.0,0.0,0.0,0.0,0.0,0.0,0.0,0.0,0.0,0.0,0.0,-1.3511,0.0,0.0,0.0,0.0,-1.6694,-1.725,-1.7548,-1.756,0.0,0.0,0.0,0.0,0.0,0.0,0.0,-2.0565,-2.0889,-2.124,-2.1811,-2.1961,-2.2059,-2.2163,-2.2169,-2.2192,-2.2178,0.0,-2.2262,-2.2262,-2.2282,-2.2305,-2.2305,-2.2305,-2.231,-2.2338,-2.2427,-2.2501,-2.2582,-2.2619,-2.2667,-2.2716,-2.2769,-2.2808,-2.2872,-2.2872,-2.2898,-2.2986,-2.3036,-2.3107,-2.3184,-2.325,-2.328,-2.546,-2.5393,-2.5279,-2.5208,-2.5202,-2.5149,-2.5086,-2.5003,-2.5022,-2.4971,-2.4912,-2.4905,-2.487,-2.4801,-2.4755,0.0,-2.4717,-2.4631,-2.4615,-2.4597,-2.4547,-2.4521,-2.4503,-2.4507,-2.45,-2.4499,-2.4509,-2.4509,-2.4453,-2.3695,-2.3307,-2.3263,-2.2429,-2.1965,-2.1931,-2.263,-2.3033,-2.3098,-2.3813,-2.4142,-2.4015,-2.3809,-2.3625,-2.3496,-2.3241,-2.3045,-2.2863,-2.1988,-2.1148,-2.04,-1.9486,-1.8312,-1.6888,0.0,0.0,0.0,0.0,0.0,0.0,0.0,0.0,0.0,0.0,0.0,0.0,0.0,0.0,0.0,-1.6643,0.0,-1.8022,-1.8133,0.0,0.0,0.0,-1.9316,-1.9435,-1.9982,-2.0415,-2.0544,0.0,0.0,-2.1656,-2.1671,-2.1738,-2.1934,-2.1961,-2.1998,-2.1998,-2.2098,-2.2183,-2.2183,-2.2223,-2.2282,-2.2291,-2.2305,-2.2333,-2.2394,-2.2509,-2.2574,-2.2592,-2.2667,-2.2725,-2.279,-2.2799,-2.2846,-2.2974,-2.3008,-2.3011,-2.3015,-2.3111,-2.3187,-2.3238,-2.3321,-2.3383,-2.5488,-2.5466,-2.538,-2.5327,-2.5269,-2.5268,-2.5221,-2.5149,-2.5149,-2.5081,-2.4977,-2.4968,-2.4941,-2.487,-2.4813,-2.4778,-2.4776,-2.4751,-2.472,-2.4683,-2.4658,-2.4623,-2.4581,-2.453,-2.4504,-2.4505,-2.4507,-2.4509,-2.45,-2.4296,-2.4168,-2.4088,-2.3895,-2.3426,-2.2738,-2.2905,-2.3299,-2.3924,-2.4098,-2.4132,-2.3996,-2.3798,-2.3625,-2.3505,-2.3241,-2.3011,-2.282,-2.2434,-2.1878,-2.1084,-2.0209,-1.9321,-1.8388,-1.7246,0.0,0.0,0.0,0.0,0.0,0.0,0.0,0.0,0.0,-1.5242,-1.5627,0.0,-1.6403,0.0,-1.7376,-1.7994,-1.8768,-1.8725,0.0,0.0,-1.9001,-1.9224,-1.98,-1.9994,-2.0329,-2.0955,-2.1165,-2.1294,-2.1395,-2.1395,-2.1394,-2.1472,-2.1728,-2.1911,-2.1934,-2.1984,-2.2044,-2.2044,-2.2073,-2.2112,-2.222,-2.2268,-2.2307,-2.2394,-2.2482,-2.2533,-2.2601,-2.2699,-2.2799,-2.2795,-2.2885,-2.2952,-2.299,-2.3074,-2.3147,-2.3156,-2.318,-2.3241,-2.3316,-2.3372,-2.343,-2.5507,-2.5497,-2.5451,-2.5404,-2.536,-2.5336,-2.5298,-2.5247,-2.5237,-2.5198,-2.5087,-2.5056,-2.5,-2.4941,-2.49,-2.4868,-2.4849,-2.4837,-2.4826,-2.4789,-2.4753,-2.4704,-2.4646,-2.458,-2.4529,-2.4503,-2.4507,-2.4509,-2.4509,-2.4509,-2.4474,-2.4447,-2.4412,-2.4144,-2.3638,-2.3557,-2.375,-2.4191,-2.4142,-2.4046,-2.3947,-2.3779,-2.3623,-2.345,-2.322,-2.302,-2.2838,-2.2627,-2.2138,-2.1365,-2.0823,-2.0027,-1.8953,-1.8093,-1.7314,0.0,0.0,0.0,0.0,0.0,0.0,0.0,0.0,0.0,0.0,0.0,-1.7362,-1.7933,-1.8246,-1.8673,-1.939,-1.9349,-1.9431,-1.9739,-1.9764,-1.9931,-2.0321,-2.0329,-2.0488,-2.095,-2.0998,-2.0998,-2.1071,-2.1079,-2.1087,-2.1103,-2.1347,-2.1577,-2.1668,-2.1781,-2.1861,-2.1878,-2.1911,-2.1984,-2.2106,-2.2194,-2.2265,-2.2344,-2.2424,-2.252,-2.2587,-2.2712,-2.2799,-2.2833,-2.2923,-2.3033,-2.3082,-2.3144,-2.3217,-2.3286,-2.3298,-2.3321,-2.3389,-2.3439,-2.3517,-2.5515,-2.5515,-2.5507,-2.5451,-2.5425,-2.5418,-2.5378,-2.5308,-2.5308,-2.5268,-2.5204,-2.5139,-2.5072,-2.5019,-2.5022,-2.4983,-2.4912,-2.4933,-2.4912,-2.4898,-2.4858,-2.4789,-2.4717,-2.4627,-2.458,-2.4512,-2.4507,-2.4508,-2.4509,-2.4509,-2.4509,-2.4509,-2.4448,-2.4412,-2.4412,-2.4284,-2.421,-2.4201,-2.4057,-2.3957,-2.3898,-2.3768,-2.36,-2.3395,-2.3205,-2.3028,-2.2876,-2.2632,-2.2199,-2.1558,-2.1321,-2.0589,-1.9283,-1.9088,-1.8439,0.0,-1.7031,0.0,0.0,0.0,0.0,0.0,0.0,0.0,0.0,-1.7678,-1.8608,-1.9106,-1.9141,-1.9369,-1.9963,-2.0004,-2.0242,-2.0749,-2.0795,-2.0761,-2.0761,-2.0694,-2.0685,-2.0753,-2.0702,-2.0661,-2.0736,-2.0745,-2.0786,-2.0844,-2.0974,-2.1151,-2.1301,-2.1518,-2.1671,-2.1686,-2.1797,-2.189,-2.1949,-2.2067,-2.2169,-2.2243,-2.2377,-2.2492,-2.2582,-2.2707,-2.2808,-2.2885,-2.2961,-2.3049,-2.3172,-2.3208,-2.3274,-2.338,-2.3424,-2.3436,-2.3439,-2.3517,-2.3596,-2.5511,-2.5511,-2.5515,-2.5488,-2.5484,-2.548,-2.5455,-2.5373,-2.5393,-2.5341,-2.5273,-2.5209,-2.518,-2.5164,-2.5107,-2.5081,-2.5054,-2.5076,-2.5031,-2.4987,-2.4964,-2.4903,-2.4781,-2.4707,-2.4645,-2.4572,-2.454,-2.4506,-2.4509,-2.4509,-2.4509,-2.4509,-2.4473,-2.4473,-2.4474,0.0,0.0,0.0,-2.4075,-2.3967,-2.3896,-2.3777,-2.3609,-2.3404,-2.3205,0.0,-2.2829,-2.2614,-2.2405,-2.2197,-2.1561,0.0,0.0,0.0,0.0,0.0,0.0,0.0,0.0,0.0,0.0,0.0,-1.8998,-1.8624,-1.7986,-1.8605,-1.9269,-1.9839,-1.9852,-2.0033,-2.0574,-2.0596,-2.0553,-2.0563,-2.057,-2.0561,-2.0561,-2.0509,-2.0458,-2.0466,-2.0415,-2.0381,-2.0382,-2.0433,-2.0475,-2.0526,-2.0703,-2.0852,-2.0917,-2.1238,-2.1495,-2.1603,-2.1671,-2.1723,-2.1761,-2.1869,-2.1972,-2.2058,-2.2206,-2.2372,-2.2501,-2.2632,-2.2764,-2.2863,-2.3008,-2.3107,-2.3193,-2.3271,-2.3348,-2.3413,-2.3485,-2.3571,-2.3571,-2.3582,-2.3638,-2.5517,0.0,-2.5511,-2.5513,0.0,-2.5515,-2.548,-2.545,-2.5418,-2.5387,-2.5351,-2.5282,-2.5241,-2.524,-2.5175,-2.5153,-2.5149,-2.5149,-2.5128,-2.5098,-2.506,-2.4994,-2.4903,-2.482,-2.4753,-2.4654,-2.4571,-2.4539,-2.4506,-2.4508,-2.4509,-2.4509,-2.4509,-2.4509,-2.4509,-2.4438,-2.433,-2.4201,-2.4096,-2.3986,-2.3856,-2.3748,-2.3598,-2.3366,-2.3193,0.0,0.0,0.0,0.0,0.0,0.0,0.0,0.0,0.0,0.0,-2.0018,-1.9993,-1.9989,-1.9951,-1.9865,-1.9766,-1.9704,-1.9858,-1.977,-1.9372,-1.953,-1.9923,-2.0525,-2.0456,-2.0496,-2.0713,-2.0618,-2.0517,-2.045,-2.0416,-2.0375,-2.0315,-2.0272,-2.0243,-2.0216,-2.0181,-2.0156,-2.0148,-2.0173,-2.0268,-2.0354,-2.045,-2.0603,-2.0745,-2.1038,-2.1302,-2.138,-2.1419,-2.1457,-2.1556,-2.1663,-2.1774,-2.189,-2.2089,-2.2279,-2.2386,-2.256,-2.2747,-2.2833,-2.2961,-2.3086,-2.3193,-2.3286,-2.3378,-2.3439,-2.3537,-2.3609,-2.3665,-2.3687,-2.3709,-2.5515,-2.5512,-2.5507,-2.5516,-2.5512,-2.5517,-2.5509,-2.5482,0.0,0.0,0.0,-2.5346,-2.5332,-2.5307,-2.5253,-2.5233,-2.5203,-2.5223,-2.5208,-2.5207,-2.5141,-2.507,-2.4998,-2.4929,-2.4842,-2.4723,-2.4645,-2.4597,-2.452,-2.4506,-2.4507,-2.4508,-2.4508,-2.4509,-2.4509,-2.4447,-2.4367,-2.4229,-2.4143,-2.3997,-2.3816,-2.3747,-2.3578,-2.3324,-2.318,-2.3033,-2.2893,-2.2632,-2.2501,-2.2479,-2.2372,-2.2017,-2.1436,-2.1393,-2.1092,-2.0471,-2.0377,-2.0355,-2.0303,-2.0207,-2.0087,-1.9904,-2.0303,-2.055,-2.0542,-2.0389,-2.05,-2.1023,-2.0916,-2.0761,-2.0676,-2.05,-2.0381,-2.0371,-2.0329,-2.0227,-2.0118,-2.0073,-2.0035,-1.9988,-1.9962,-1.9937,-1.9962,-1.9962,-2.0008,-2.0166,-2.0245,-2.0363,-2.0618,-2.0883,-2.1071,-2.1111,-2.1143,-2.1175,-2.1285,-2.1442,-2.1565,-2.1708,-2.1945,-2.2149,-2.2248,-2.2451,-2.2646,-2.2738,-2.2863,-2.3011,-2.3147,-2.3253,-2.3345,-2.3462,-2.3573,-2.3672,-2.3765,-2.3816,-2.3827,-2.5585,-2.5573,-2.5528,-2.5512,-2.5511,-2.5508,-2.5513,-2.5491,-2.5427,-2.5388,-2.5389,-2.5387,-2.5387,-2.5397,-2.5369,-2.5336,-2.5298,-2.5297,-2.5252,-2.5206,-2.5191,-2.5128,-2.5006,-2.4995,-2.491,-2.4789,-2.4723,-2.4678,-2.4657,-2.4555,-2.4504,-2.4505,-2.4507,-2.4509,-2.4509,-2.4491,-2.4456,-2.4376,-2.42,-2.4035,-2.3887,-2.3757,-2.36,-2.3383,-2.3205,-2.3003,-2.2829,-2.2605,-2.2482,-2.2419,-2.233,-2.2245,-2.2161,-2.2127,-2.2085,-2.1992,-2.1928,-2.1886,-2.1855,-2.1653,-2.138,-2.1094,-2.1084,-2.1086,-2.1078,-2.1062,-2.1007,-2.0942,-2.0852,-2.0736,-2.0569,-2.0441,-2.0371,-2.0304,-2.021,-2.0108,-2.009,-1.995,-1.9858,-1.9823,-1.978,-1.9759,-1.9769,-1.9797,-1.9841,-1.9894,-2.0061,-2.021,-2.0407,-2.0669,-2.0827,-2.0851,-2.0868,-2.0885,-2.099,-2.1143,-2.1293,-2.1433,-2.17,-2.1915,-2.2015,-2.222,-2.2402,-2.2601,-2.2729,-2.2885,-2.3074,-2.3217,-2.3345,-2.3462,-2.3587,-2.3702,-2.3791,-2.3834,-2.3876,-2.5603,-2.5605,-2.5564,-2.5553,-2.556,-2.5515,-2.5511,-2.5488,-2.5473,-2.5461,-2.5447,-2.5454,-2.5464,-2.5454,-2.5422,-2.5395,-2.535,-2.5356,-2.5327,-2.5302,-2.527,-2.5212,-2.5119,-2.5116,-2.5035,-2.4902,-2.4856,-2.4793,-2.474,-2.4673,-2.4597,-2.4588,-2.4549,-2.4507,-2.4509,-2.4509,-2.4474,-2.4394,-2.4238,-2.4103,-2.3966,-2.3779,-2.3623,-2.3453,-2.3256,-2.3074,-2.2919,-2.2712,-2.2569,-2.246,-2.2394,-2.2338,-2.2305,-2.2305,-2.2305,-2.2305,-2.2234,-2.2146,-2.2034,-2.1723,-2.1464,-2.1325,-2.1207,-2.1087,-2.099,-2.0998,-2.099,-2.086,-2.072,-2.057,-2.0458,-2.0373,-2.0304,-2.021,-2.0133,-2.0063,-1.995,-1.9869,-1.978,-1.9744,-1.9726,-1.9715,-1.9715,-1.9718,-1.9762,-1.9797,-1.9947,-2.0088,-2.0189,-2.0279,-2.045,-2.0578,-2.0637,-2.0679,-2.077,-2.0925,-2.1087,-2.1206,-2.1503,-2.1701,-2.1834,-2.2003,-2.2217,-2.2443,-2.2601,-2.2764,-2.2948,-2.3135,-2.3289,-2.3427,-2.358,-2.3694,-2.3792,-2.3907,-2.3997,-2.5607,-2.5621,-2.5627,-2.5607,-2.56,-2.5541,-2.5515,-2.5515,-2.5509,-2.5511,-2.552,-2.5517,-2.5517,-2.5494,-2.5439,-2.5418,-2.5419,-2.5438,-2.5416,-2.5388,-2.5346,-2.5287,-2.5238,-2.5227,-2.5141,-2.5047,-2.4961,-2.4896,-2.4847,-2.4764,-2.4723,-2.4682,-2.4564,-2.4505,-2.4507,-2.4508,-2.4474,-2.4421,-2.4257,-2.4142,-2.4025,-2.383,-2.3647,-2.3519,-2.3316,-2.3147,-2.2999,-2.2795,-2.2641,-2.2506,-2.2441,-2.2372,-2.231,-2.2305,-2.2296,-2.2282,-2.2197,-2.2034,-2.1787,-2.1456,-2.1238,-2.1199,-2.1038,-2.09,-2.0744,-2.0745,-2.0794,-2.072,-2.0578,-2.045,-2.0398,-2.0312,-2.022,-2.0108,-2.0055,-1.9967,-1.9841,-1.9795,-1.9762,-1.969,-1.9679,-1.9672,-1.9636,-1.9643,-1.9636,-1.9697,-1.9812,-1.9899,-1.9924,-1.9927,-2.0071,-2.0237,-2.0357,-2.0443,-2.0577,-2.0712,-2.0844,-2.099,-2.1286,-2.1465,-2.161,-2.1774,-2.1986,-2.2217,-2.2385,-2.2561,-2.279,-2.2995,-2.3172,-2.3336,-2.3542,-2.3711,-2.3843,-2.3995,-2.4084,-2.5686,-2.5689,-2.5699,-2.5663,-2.5603,-2.5583,-2.5585,-2.5576,-2.5528,-2.5535,-2.5586,-2.5534,-2.5511,-2.5508,-2.5489,-2.5494,-2.5491,-2.5488,-2.5452,-2.5403,-2.5393,-2.5389,-2.537,-2.5268,-2.5182,-2.516,-2.505,-2.4997,-2.4974,-2.4858,-2.4755,-2.4681,-2.4564,-2.4513,-2.4513,-2.4507,-2.4509,-2.45,-2.4303,-2.4172,-2.4094,-2.3905,-2.3736,-2.3585,-2.3404,-2.3205,-2.3003,-2.2825,-2.2632,-2.2506,-2.2424,-2.2363,-2.231,-2.2305,-2.2276,-2.2205,-2.2098,-2.1853,-2.1471,-2.1246,-2.1047,-2.0868,-2.0678,-2.0535,-2.0457,-2.0449,-2.0475,-2.0501,-2.0449,-2.0405,-2.0373,-2.0235,-2.0123,-2.0055,-1.9922,-1.9815,-1.9787,-1.9744,-1.9672,-1.9603,-1.9603,-1.9549,-1.9461,-1.9439,-1.9424,-1.9457,-1.9541,-1.9622,-1.9622,-1.9715,-1.9751,-1.9815,-1.9912,-2.0113,-2.0279,-2.0384,-2.0545,-2.077,-2.0998,-2.1175,-2.1324,-2.1503,-2.1709,-2.1943,-2.2084,-2.2268,-2.257,-2.279,-2.3003,-2.3253,-2.3473,-2.3687,-2.3913,-2.4054,-2.4103,-2.5695,-2.5701,-2.57,-2.5681,-2.5648,-2.562,-2.5605,-2.5607,-2.5578,-2.5569,-2.5601,-2.5579,-2.5564,-2.5544,-2.5554,-2.5564,-2.5563,-2.5511,-2.5487,-2.5466,-2.5466,-2.5455,-2.5456,-2.537,-2.5327,-2.5303,-2.518,-2.5115,-2.5107,-2.4987,-2.4873,-2.4763,-2.465,-2.4603,-2.4554,-2.4513,-2.4507,-2.4509,-2.4375,-2.4257,-2.4144,-2.3928,-2.378,-2.3707,-2.3485,-2.3289,-2.3119,-2.2932,-2.2738,-2.2574,-2.2492,-2.2405,-2.231,-2.2305,-2.2268,-2.2191,-2.1961,-2.1683,-2.1409,-2.1135,-2.0934,-2.0819,-2.0561,-2.0415,-2.0339,-2.027,-2.0227,-2.0193,-2.0227,-2.021,-2.0156,-2.0086,-1.9983,-1.9887,-1.978,-1.969,-1.9578,-1.9534,-1.9523,-1.9483,-1.9476,-1.9446,-1.935,-1.9276,-1.9232,-1.9221,-1.9269,-1.9302,-1.9313,-1.9398,-1.9435,-1.9391,-1.9479,-1.9697,-1.9947,-2.008,-2.0254,-2.0467,-2.0711,-2.0909,-2.1047,-2.1262,-2.1503,-2.1721,-2.1868,-2.2093,-2.2424,-2.2672,-2.291,-2.3135,-2.3453,-2.3711,-2.3864,-2.3996,-2.4084,-2.5698,-2.5696,-2.5698,-2.5693,-2.5691,-2.5644,-2.5623,-2.5617,-2.56,-2.5602,-2.5607,-2.5608,-2.561,-2.5604,-2.5602,-2.5602,-2.5593,-2.5541,-2.5525,-2.5528,-2.5516,-2.5511,-2.5494,-2.545,-2.543,-2.5402,-2.5313,-2.5228,-2.518,-2.5072,-2.4934,-2.4849,-2.4753,-2.4667,-2.463,-2.4545,-2.4505,-2.4499,-2.4438,-2.433,-2.422,-2.4027,-2.3864,-2.3784,-2.3555,-2.3357,-2.3196,-2.299,-2.2808,-2.2614,-2.2533,-2.2441,-2.2302,-2.2282,-2.222,-2.2088,-2.1792,-2.1519,-2.1348,-2.1031,-2.0795,-2.0678,-2.0458,-2.027,-2.0166,-2.0063,-1.9975,-1.9909,-1.9945,-1.9955,-1.9962,-1.9919,-1.9856,-1.9697,-1.9643,-1.9527,-1.9395,-1.9339,-1.931,-1.9291,-1.9272,-1.9235,-1.9127,-1.9014,-1.892,-1.8939,-1.8912,-1.8924,-1.895,-1.9052,-1.9127,-1.8976,-1.909,-1.9347,-1.9632,-1.9759,-1.9919,-2.0173,-2.0415,-2.0586,-2.0754,-2.0998,-2.1262,-2.1449,-2.167,-2.1913,-2.2212,-2.2494,-2.2808,-2.3028,-2.333,-2.3647,-2.3771,-2.3916,-2.4025,-2.5693,-2.5702,-2.5697,-2.5699,-2.5697,-2.5692,-2.5697,-2.5679,-2.5638,-2.5607,-2.561,-2.5608,-2.5608,-2.5601,-2.5607,-2.5601,-2.5605,-2.5593,-2.5586,-2.5586,-2.5541,-2.5511,-2.5511,-2.5506,-2.5503,-2.5489,-2.5419,-2.5322,-2.5189,-2.5065,-2.4996,-2.4977,-2.48,-2.469,-2.4676,-2.4588,-2.4503,-2.4496,-2.4456,-2.4367,-2.4284,-2.4209,-2.4043,-2.3825,-2.3618,-2.3398,-2.3196,-2.3003,-2.2808,-2.2623,-2.2533,-2.2432,-2.2302,-2.2225,-2.208,-2.1835,-2.151,-2.1294,-2.1175,-2.0908,-2.0618,-2.0424,-2.0237,-2.0045,-1.9869,-1.9808,-1.9733,-1.9629,-1.9622,-1.9658,-1.9726,-1.9708,-1.9687,-1.9593,-1.9413,-1.9328,-1.9276,-1.9146,-1.9097,-1.9024,-1.8993,-1.891,-1.8723,-1.8608,-1.8549,-1.8537,-1.853,-1.8523,-1.8535,-1.8683,-1.8721,-1.8659,-1.88,-1.91,-1.9347,-1.9457,-1.9614,-1.9858,-2.0088,-2.0254,-2.0469,-2.0712,-2.0949,-2.1183,-2.1434,-2.1686,-2.198,-2.2284,-2.2637,-2.2923,-2.3217,-2.3478,-2.3653,-2.3742,-2.3867,-2.5701,-2.5693,-2.5693,-2.5701,-2.5695,-2.5693,-2.5695,-2.5696,-2.567,-2.5656,-2.566,-2.5622,-2.5603,-2.5608,-2.5605,-2.5601,-2.5601,-2.5605,-2.5602,-2.5602,-2.5567,-2.5561,-2.5557,-2.5531,-2.551,-2.5497,-2.548,-2.5398,-2.5271,-2.5121,-2.5075,-2.5037,-2.4865,-2.4768,-2.474,-2.4681,-2.4572,-2.4513,-2.447,-2.441,-2.4321,-2.4229,-2.4095,-2.3864,-2.3721,-2.351,-2.3259,-2.3074,-2.2838,-2.2614,-2.2533,-2.2419,-2.224,-2.2051,-2.188,-2.1731,-2.1426,-2.1151,-2.0949,-2.0662,-2.0426,-2.022,-1.9985,-1.9808,-1.9726,-1.9581,-1.9468,-1.9395,-1.9313,-1.9262,-1.9206,-1.9325,-1.9413,-1.9276,-1.9108,-1.8943,-1.8908,-1.88,-1.8711,-1.868,-1.8583,-1.8439,-1.8373,-1.8242,-1.8123,-1.8123,-1.8103,-1.8123,-1.8143,-1.8294,-1.8359,-1.8293,-1.8457,-1.8704,-1.8781,-1.9036,-1.9261,-1.9545,-1.979,-2.002,-2.0264,-2.046,-2.0703,-2.0942,-2.1191,-2.145,-2.1744,-2.2152,-2.2494,-2.2833,-2.3132,-2.3348,-2.3529,-2.3664,-2.3803,-2.5695,-2.57,-2.57,-2.5693,-2.5693,-2.5693,-2.5699,-2.5698,-2.5695,-2.5693,-2.5696,-2.5648,-2.5638,-2.5636,-2.5639,-2.5608,-2.5604,-2.5603,-2.5607,-2.5601,-2.5599,-2.5605,-2.5596,-2.5554,-2.5541,-2.5523,-2.5496,-2.542,-2.5322,-2.52,-2.513,-2.5098,-2.4922,-2.4811,-2.4796,-2.472,-2.4667,-2.4572,-2.4547,-2.4489,-2.4384,-2.4303,-2.4182,-2.3977,-2.3812,-2.3594,-2.3295,-2.3107,-2.2881,-2.2649,-2.2542,-2.2391,-2.2115,-2.188,-2.1708,-2.1556,-2.1277,-2.099,-2.0769,-2.0503,-2.0264,-2.003,-1.9826,-1.9682,-1.9581,-1.9406,-1.925,-1.915,-1.9056,-1.8917,-1.8745,-1.8817,-1.892,-1.8874,-1.8728,-1.8593,-1.853,-1.84,-1.8321,-1.8282,-1.8156,-1.8029,-1.7969,-1.7842,-1.7733,-1.7693,-1.7666,-1.7666,-1.7693,-1.7835,-1.7929,-1.7875,-1.8135,-1.8288,-1.8386,-1.8581,-1.8953,-1.9243,-1.949,-1.9762,-2.001,-2.022,-2.046,-2.0679,-2.0942,-2.123,-2.1572,-2.1995,-2.2348,-2.2694,-2.297,-2.318,-2.3389,-2.3614,-2.3757,-2.5695,-2.5693,-2.5694,-2.5698,-2.5692,-2.5692,-2.5693,-2.57,-2.57,-2.5694,-2.5701,-2.5699,-2.568,-2.5694,-2.5685,-2.5673,-2.5629,-2.5617,-2.5606,-2.5604,-2.5611,-2.5608,-2.5608,-2.5598,-2.5586,-2.558,-2.5461,-2.5394,-2.5379,-2.5262,-2.5164,-2.5082,-2.4976,-2.487,-2.4813,-2.4734,-2.469,-2.4657,-2.4615,-2.4567,-2.449,-2.4411,-2.4275,-2.4084,-2.3905,-2.3642,-2.3316,-2.3111,-2.2881,-2.2632,-2.2533,-2.2318,-2.1957,-2.1759,-2.1572,-2.1324,-2.1071,-2.0844,-2.0677,-2.0432,-2.0108,-1.9864,-1.9729,-1.9537,-1.935,-1.9258,-1.9101,-1.8867,-1.8765,-1.8657,-1.8358,-1.8274,-1.8327,-1.8439,-1.8327,-1.8215,-1.8149,-1.8016,-1.7909,-1.7882,-1.7754,-1.7638,-1.7529,-1.7447,-1.7364,-1.7261,-1.724,-1.722,-1.7247,-1.7413,-1.7454,-1.7488,-1.772,-1.7969,-1.8029,-1.8155,-1.8579,-1.895,-1.9191,-1.9439,-1.9697,-1.9922,-2.016,-2.041,-2.0753,-2.1039,-2.1426,-2.1819,-2.211,-2.2431,-2.2708,-2.302,-2.3244,-2.3478,-2.3682,-2.5694,-2.5698,-2.5698,-2.5693,-2.57,-2.5693,-2.5699,-2.5693,-2.5693,-2.5692,-2.5697,-2.5696,-2.5698,-2.5696,-2.5699,-2.5688,-2.5675,-2.5665,-2.5647,-2.5608,-2.5607,-2.5601,-2.5601,-2.5601,-2.5602,-2.559,-2.5515,-2.5448,-2.5391,-2.5312,-2.5243,-2.5147,-2.5032,-2.4933,-2.4861,-2.4795,-2.4745,-2.4699,-2.4623,-2.4556,-2.45,-2.4384,-2.4247,-2.4103,-2.3907,-2.3657,-2.3392,-2.318,-2.2928,-2.2597,-2.2501,-2.2257,-2.1878,-2.1601,-2.141,-2.1222,-2.0933,-2.0661,-2.0424,-2.0141,-1.9876,-1.9654,-1.9453,-1.9262,-1.9139,-1.8908,-1.8736,-1.8555,-1.8385,-1.8188,-1.8049,-1.7916,-1.7949,-1.8121,-1.7996,-1.7842,-1.7821,-1.7686,-1.7536,-1.7406,-1.7288,-1.7205,-1.7164,-1.7093,-1.703,-1.6968,-1.6968,-1.6954,-1.6897,-1.701,-1.7122,-1.7114,-1.7399,-1.7646,-1.772,-1.7902,-1.826,-1.8625,-1.8896,-1.9179,-1.9424,-1.9661,-1.9897,-2.0195,-2.0544,-2.0893,-2.1277,-2.1602,-2.1892,-2.2215,-2.2544,-2.2829,-2.3102,-2.3351,-2.3571,-2.5701,-2.5694,-2.5694,-2.5699,-2.5696,-2.5701,-2.5697,-2.5695,-2.5698,-2.5692,-2.5693,-2.5693,-2.57,-2.5693,-2.57,-2.5701,-2.5701,-2.5694,-2.5677,-2.5625,-2.5608,-2.5607,-2.5607,-2.5601,-2.5602,-2.5583,-2.5527,-2.548,-2.5429,-2.537,-2.5282,-2.5189,-2.5072,-2.497,-2.4922,-2.4839,-2.4776,-2.4739,-2.4683,-2.4617,-2.4533,-2.4402,-2.4257,-2.4094,-2.3868,-2.3653,-2.3407,-2.3168,-2.2906,-2.2614,-2.2382,-2.2077,-2.1774,-2.1526,-2.1277,-2.1079,-2.0794,-2.0509,-2.0245,-1.9957,-1.9687,-1.9512,-1.925,-1.9064,-1.8969,-1.8678,-1.8478,-1.83,-1.8129,-1.7895,-1.774,-1.7597,-1.7577,-1.7612,-1.757,-1.7481,-1.7432,-1.7308,-1.7183,-1.7044,-1.6933,-1.6842,-1.6778,-1.6742,-1.6684,-1.6656,-1.6641,-1.6626,-1.6562,-1.6684,-1.6727,-1.6869,-1.7144,-1.7324,-1.7407,-1.7652,-1.7982,-1.8293,-1.8595,-1.8934,-1.9239,-1.945,-1.9679,-2.0035,-2.0382,-2.0662,-2.1023,-2.1348,-2.1648,-2.2007,-2.2359,-2.2664,-2.2961,-2.3253,-2.3499,-2.5695,-2.57,-2.57,-2.5697,-2.5697,-2.5699,-2.5693,-2.5698,-2.5695,-2.5693,-2.5699,-2.5702,-2.5693,-2.5693,-2.5701,-2.5697,-2.5698,-2.5698,-2.5694,-2.5679,-2.5642,-2.56,-2.5604,-2.5606,-2.5601,-2.5593,-2.5535,-2.5507,-2.5476,-2.5424,-2.5322,-2.5212,-2.5095,-2.5003,-2.4975,-2.4863,-2.4804,-2.4783,-2.4731,-2.4667,-2.459,-2.4446,-2.4284,-2.4113,-2.3855,-2.3622,-2.3386,-2.307,-2.2773,-2.2552,-2.2144,-2.1878,-2.1671,-2.1433,-2.1183,-2.0926,-2.0646,-2.0384,-2.01,-1.9851,-1.9581,-1.9369,-1.9183,-1.9014,-1.8791,-1.8555,-1.8307,-1.8075,-1.7902,-1.7713,-1.7453,-1.7302,-1.7184,-1.7051,-1.7149,-1.7122,-1.6918,-1.6869,-1.6833,-1.6718,-1.666,-1.6617,-1.6436,-1.6392,-1.6328,-1.6275,-1.6216,-1.6216,-1.6231,-1.6328,-1.6436,-1.6644,-1.6871,-1.7046,-1.715,-1.7399,-1.7727,-1.8002,-1.8294,-1.8632,-1.9014,-1.9265,-1.9541,-1.9902,-2.0218,-2.0484,-2.0761,-2.1111,-2.1457,-2.1804,-2.2158,-2.2494,-2.282,-2.3132,-2.3439,-2.5701,-2.5701,-2.5693,-2.5695,-2.5699,-2.5694,-2.5699,-2.5693,-2.57,-2.5699,-2.5697,-2.5701,-2.5698,-2.5702,-2.5693,-2.5693,-2.5699,-2.5696,-2.5698,-2.57,-2.5689,-2.5636,-2.5605,-2.5608,-2.5607,-2.56,-2.5582,-2.5544,-2.5488,-2.5423,-2.5364,-2.5264,-2.5183,-2.5075,-2.5002,-2.4964,-2.4887,-2.4806,-2.4731,-2.4641,-2.453,-2.4393,-2.4257,-2.4103,-2.3836,-2.36,-2.3372,-2.2932,-2.2565,-2.2318,-2.2052,-2.1758,-2.1502,-2.1277,-2.1039,-2.0819,-2.051,-2.0245,-2.0018,-1.9759,-1.9487,-1.9195,-1.8988,-1.8805,-1.8581,-1.8306,-1.8088,-1.7902,-1.7699,-1.746,-1.7274,-1.7122,-1.6975,-1.684,-1.6903,-1.6869,-1.6699,-1.662,-1.6556,-1.6389,-1.6346,-1.6297,-1.6247,-1.6154,-1.6082,-1.6022,-1.5963,-1.5925,-1.5935,-1.6022,-1.6154,-1.6312,-1.6528,-1.6742,-1.696,-1.7184,-1.7454,-1.7727,-1.8002,-1.8286,-1.8702,-1.9097,-1.9431,-1.9787,-2.0113,-2.0407,-2.0636,-2.0933,-2.1277,-2.1632,-2.1986,-2.2345,-2.2708,-2.3033,-2.336,-2.5699,-2.5699,-2.5699,-2.5699,-2.5699,-2.5695,-2.5697,-2.5699,-2.5699,-2.5696,-2.57,-2.5698,-2.5696,-2.5694,-2.5697,-2.5701,-2.5693,-2.5693,-2.5699,-2.57,-2.5694,-2.5658,-2.5619,-2.5603,-2.5605,-2.5601,-2.5603,-2.555,-2.5492,-2.5451,-2.5386,-2.5288,-2.5236,-2.5155,-2.5047,-2.4995,-2.4927,-2.4819,-2.4729,-2.4623,-2.4503,-2.4339,-2.4172,-2.4016,-2.3773,-2.3508,-2.3114,-2.2738,-2.2424,-2.2126,-2.1915,-2.167,-2.134,-2.1111,-2.086,-2.0654,-2.0348,-2.0078,-1.9858,-1.957,-1.9321,-1.9082,-1.8855,-1.8606,-1.8392,-1.8121,-1.7915,-1.772,-1.7481,-1.7274,-1.7122,-1.6975,-1.6818,-1.6663,-1.6663,-1.6614,-1.6472,-1.642,-1.6284,-1.616,-1.6078,-1.6019,-1.5997,-1.5836,-1.5758,-1.573,-1.5659,-1.5653,-1.5675,-1.5786,-1.5897,-1.605,-1.6225,-1.6463,-1.6705,-1.6954,-1.7205,-1.7481,-1.7835,-1.8095,-1.8528,-1.8972,-1.9302,-1.9669,-2.0008,-2.0295,-2.0526,-2.0786,-2.1127,-2.1486,-2.1845,-2.2212,-2.258,-2.2944,-2.3268,-2.5699,-2.5699,-2.5699,-2.5699,-2.5699,-2.5699,-2.5699,-2.5701,-2.5699,-2.5702,-2.5694,-2.5694,-2.5692,-2.5697,-2.5694,-2.5702,-2.57,-2.5692,-2.5693,-2.5699,-2.5697,-2.5684,-2.5628,-2.5628,-2.5607,-2.5605,-2.5607,-2.5559,-2.5518,-2.5491,-2.5414,-2.5313,-2.5231,-2.517,-2.5089,-2.5034,-2.4924,-2.4813,-2.4736,-2.4623,-2.4469,-2.4311,-2.4125,-2.3917,-2.3642,-2.3286,-2.2872,-2.2569,-2.2318,-2.189,-2.1776,-2.1542,-2.1223,-2.0933,-2.0678,-2.0418,-2.0158,-1.9876,-1.969,-1.9354,-1.9082,-1.8969,-1.8678,-1.8432,-1.8227,-1.7955,-1.7706,-1.7509,-1.7288,-1.7128,-1.6981,-1.6803,-1.6663,-1.6528,-1.6457,-1.6377,-1.6355,-1.6253,-1.6122,-1.5994,-1.5852,-1.5776,-1.5626,-1.547,-1.53,-1.539,-1.5311,-1.53,-1.5362,-1.5491,-1.5631,-1.577,-1.5985,-1.6225,-1.6463,-1.6705,-1.6981,-1.7253,-1.7679,-1.8035,-1.8496,-1.8896,-1.9216,-1.9549,-1.9891,-2.0138,-2.0346,-2.0645,-2.1023,-2.1363,-2.1735,-2.2101,-2.2467,-2.2833,-2.3172,-2.5699,-2.5699,-2.5699,-2.5699,-2.5699,-2.5699,-2.5699,-2.5699,-2.5701,-2.5693,-2.5695,-2.5692,-2.5697,-2.5699,-2.57,-2.5702,-2.5701,-2.5695,-2.5701,-2.57,-2.5694,-2.5702,-2.5671,-2.5671,-2.5646,-2.5617,-2.5605,-2.5564,-2.5512,-2.5491,-2.5423,-2.5298,-2.524,-2.5166,-2.5098,-2.5028,-2.4935,-2.4818,-2.474,-2.4621,-2.4443,-2.4275,-2.4087,-2.3865,-2.3506,-2.3114,-2.2777,-2.252,-2.2206,-2.1842,-2.1649,-2.1434,-2.1095,-2.0761,-2.0486,-2.0254,-1.9957,-1.9715,-1.9578,-1.9276,-1.8995,-1.8781,-1.8509,-1.824,-1.7982,-1.7693,-1.7453,-1.7268,-1.7073,-1.6903,-1.6754,-1.6614,-1.6522,-1.6457,-1.6334,-1.6231,-1.6216,-1.6122,-1.5969,-1.582,-1.5732,-1.5649,-1.5425,-1.5255,-1.5131,-1.5051,-1.4994,-1.496,-1.5051,-1.5204,-1.5311,-1.5474,-1.5675,-1.5891,-1.616,-1.6442,-1.6757,-1.7065,-1.7482,-1.7841,-1.83,-1.8736,-1.9014,-1.9376,-1.9774,-1.9998,-2.0218,-2.0611,-2.099,-2.1316,-2.1631,-2.2023,-2.2393,-2.2742,-2.307,-2.5699,-2.5699,-2.5699,-2.5699,-2.5699,-2.5699,-2.5699,-2.5699,-2.5699,-2.5699,-2.5699,-2.5695,-2.5697,-2.5697,-2.5697,-2.57,-2.5701,-2.5702,-2.57,-2.5693,-2.57,-2.5694,-2.5694,-2.57,-2.5676,-2.5644,-2.5617,-2.5563,-2.5512,-2.5501,-2.5423,-2.5308,-2.524,-2.516,-2.5114,-2.5031,-2.4916,-2.4816,-2.477,-2.4645,-2.4416,-2.4266,-2.3979,-2.3687,-2.333,-2.2986,-2.2627,-2.2379,-2.2069,-2.1724,-2.1465,-2.1191,-2.086,-2.0552,-2.0306,-2.0018,-1.9751,-1.9497,-1.9339,-1.904,-1.8762,-1.8622,-1.83,-1.7996,-1.774,-1.7467,-1.7204,-1.7002,-1.6833,-1.6663,-1.6482,-1.6411,-1.6355,-1.6334,-1.621,-1.6078,-1.6019,-1.5925,-1.5836,-1.5687,-1.5531,-1.539,-1.5204,-1.5017,-1.4932,-1.4863,-1.4697,-1.4662,-1.4834,-1.4966,-1.5011,-1.5147,-1.5334,-1.5558,-1.5824,-1.6154,-1.6558,-1.6884,-1.7253,-1.7584,-1.7936,-1.8359,-1.8772,-1.9157,-1.9552,-1.9876,-2.0125,-2.0538,-2.0942,-2.1277,-2.1609,-2.1968,-2.2318,-2.2672,-2.2982,-2.5699,-2.5699,-2.5699,-2.5699,-2.5699,-2.5699,-2.5699,-2.5699,-2.5699,-2.5699,-2.5699,-2.5699,-2.5701,-2.5701,-2.5697,-2.5697,-2.5696,-2.5694,-2.5692,-2.5693,-2.5692,-2.5699,-2.5702,-2.5701,-2.5697,-2.5695,-2.5631,-2.5556,-2.5509,-2.5499,-2.5423,-2.5322,-2.524,-2.516,-2.5104,-2.5044,-2.494,-2.4818,-2.4795,-2.4678,-2.4433,-2.4266,-2.3939,-2.3504,-2.3223,-2.291,-2.2557,-2.2257,-2.1949,-2.1573,-2.1254,-2.0893,-2.0544,-2.0314,-2.008,-1.97,-1.9479,-1.9265,-1.9064,-1.8748,-1.8491,-1.8432,-1.8076,-1.7747,-1.7482,-1.7213,-1.6947,-1.6742,-1.6549,-1.6411,-1.6237,-1.6188,-1.6194,-1.615,-1.6057,-1.5925,-1.5792,-1.5681,-1.5576,-1.5553,-1.5368,-1.5182,-1.4977,-1.4794,-1.4713,-1.4627,-1.4459,-1.4407,-1.4581,-1.4696,-1.4748,-1.4903,-1.5114,-1.5452,-1.5764,-1.6029,-1.6414,-1.6714,-1.7072,-1.7364,-1.7652,-1.8055,-1.8488,-1.8929,-1.9303,-1.9649,-2.0055,-2.0494,-2.0876,-2.1206,-2.1563,-2.193,-2.2268,-2.2592,-2.2893,-2.5699,-2.5699,-2.5699,-2.5699,-2.5699,-2.5699,-2.5699,-2.5699,-2.5699,-2.5699,-2.5699,-2.5699,-2.5699,-2.5699,-2.5699,-2.5694,-2.5694,-2.5694,-2.5701,-2.5693,-2.5693,-2.5699,-2.5694,-2.5693,-2.5701,-2.5678,-2.5632,-2.5571,-2.5518,-2.5509,-2.5423,-2.5303,-2.5231,-2.516,-2.5095,-2.5044,-2.4949,-2.4827,-2.4811,-2.4693,-2.4476,-2.4248,-2.3919,-2.3441,-2.3196,-2.2885,-2.253,-2.2212,-2.188,-2.1448,-2.1127,-2.0753,-2.0392,-2.0166,-1.9894,-1.9563,-1.9258,-1.9021,-1.8803,-1.8521,-1.8253,-1.8055,-1.7767,-1.7495,-1.722,-1.6877,-1.6659,-1.6515,-1.6355,-1.6216,-1.6216,-1.6078,-1.6029,-1.5985,-1.5881,-1.5732,-1.562,-1.5435,-1.5227,-1.5176,-1.5085,-1.4977,-1.4771,-1.4587,-1.4471,-1.4384,-1.4221,-1.4197,-1.4314,-1.4436,-1.45,-1.4708,-1.4943,-1.5345,-1.5742,-1.6013,-1.6297,-1.6549,-1.6876,-1.7178,-1.7488,-1.7814,-1.8219,-1.8674,-1.9135,-1.9559,-1.9977,-2.0409,-2.0819,-2.1167,-2.1533,-2.1901,-2.2181,-2.248,-2.2795,-2.5699,-2.5699,-2.5699,-2.5699,-2.5699,-2.5699,-2.5699,-2.5699,-2.5699,-2.5699,-2.5699,-2.5699,-2.5699,-2.5701,-2.5695,-2.5697,-2.5698,-2.5695,-2.57,-2.5693,-2.5693,-2.57,-2.5696,-2.5696,-2.5697,-2.5686,-2.566,-2.561,-2.5541,-2.5512,-2.5427,-2.5313,-2.5231,-2.517,-2.5095,-2.5031,-2.4933,-2.4834,-2.48,-2.4707,-2.4468,-2.422,-2.3803,-2.3426,-2.3172,-2.2859,-2.2443,-2.2164,-2.183,-2.1402,-2.1031,-2.0678,-2.0331,-2.0,-1.9715,-1.9424,-1.909,-1.8772,-1.8546,-1.826,-1.8036,-1.7835,-1.7529,-1.7261,-1.7031,-1.6735,-1.6423,-1.6235,-1.611,-1.5975,-1.5931,-1.5875,-1.5786,-1.5675,-1.5592,-1.5503,-1.5311,-1.5096,-1.496,-1.4806,-1.4771,-1.4685,-1.4569,-1.4407,-1.4257,-1.4093,-1.3957,-1.4004,-1.4075,-1.4145,-1.4244,-1.4518,-1.4771,-1.5136,-1.5564,-1.5919,-1.6166,-1.6399,-1.6748,-1.7052,-1.7344,-1.7666,-1.8015,-1.8429,-1.8903,-1.9413,-1.9864,-2.0273,-2.0704,-2.1111,-2.1457,-2.1791,-2.2081,-2.2376,-2.2694,-2.5699,-2.5699,-2.5699,-2.5699,-2.5699,-2.5699,-2.5699,-2.5699,-2.5699,-2.5699,-2.5699,-2.5699,-2.5699,-2.5693,-2.5692,-2.5696,-2.5699,-2.5695,-2.57,-2.5692,-2.5693,-2.5701,-2.5698,-2.5701,-2.5699,-2.5697,-2.5699,-2.5666,-2.5585,-2.5534,-2.543,-2.5337,-2.5262,-2.5178,-2.5098,-2.506,-2.4933,-2.4839,-2.4805,-2.4687,-2.4417,-2.4106,-2.3727,-2.3327,-2.316,-2.2846,-2.2363,-2.2115,-2.1764,-2.1355,-2.099,-2.0662,-2.0289,-1.9922,-1.9574,-1.9262,-1.895,-1.8592,-1.8273,-1.7969,-1.7747,-1.7577,-1.7309,-1.7059,-1.6799,-1.6543,-1.6262,-1.6001,-1.5852,-1.5748,-1.5703,-1.5626,-1.548,-1.5351,-1.5329,-1.5249,-1.4994,-1.4783,-1.4663,-1.4558,-1.4482,-1.4389,-1.4273,-1.4174,-1.4022,-1.3928,-1.3792,-1.3787,-1.3858,-1.3886,-1.4028,-1.4321,-1.4622,-1.4926,-1.5334,-1.578,-1.6001,-1.6213,-1.6614,-1.7002,-1.7253,-1.7529,-1.7922,-1.8345,-1.8765,-1.9266,-1.9696,-2.0179,-2.0605,-2.1023,-2.1364,-2.1694,-2.2001,-2.2315,-2.2632,-2.5699,-2.5699,-2.5699,-2.5699,-2.5699,-2.5699,-2.5699,-2.5699,-2.5699,-2.5699,-2.5699,-2.5699,-2.5699,-2.5695,-2.5701,-2.5699,-2.5701,-2.5694,-2.5701,-2.5693,-2.5693,-2.5699,-2.5694,-2.5695,-2.5698,-2.5699,-2.57,-2.5661,-2.5599,-2.5541,-2.5474,-2.5387,-2.5312,-2.5232,-2.5113,-2.5098,-2.4995,-2.4851,-2.4805,-2.4651,-2.4357,-2.4114,-2.3739,-2.338,-2.3135,-2.2846,-2.2369,-2.2087,-2.1764,-2.1348,-2.0974,-2.0645,-2.0306,-1.9922,-1.9519,-1.9139,-1.8774,-1.8386,-1.8069,-1.7774,-1.7495,-1.7316,-1.7065,-1.6806,-1.6537,-1.625,-1.5994,-1.5776,-1.5715,-1.5614,-1.5491,-1.5334,-1.5176,-1.5068,-1.5011,-1.488,-1.4673,-1.4553,-1.4437,-1.4228,-1.4145,-1.4085,-1.3991,-1.3892,-1.3792,-1.3721,-1.3644,-1.3644,-1.3663,-1.3716,-1.3863,-1.4163,-1.4512,-1.484,-1.5176,-1.5597,-1.5913,-1.6076,-1.65,-1.6945,-1.7177,-1.7467,-1.7909,-1.8333,-1.8733,-1.918,-1.9667,-2.0145,-2.0554,-2.0934,-2.1278,-2.1632,-2.1955,-2.2265,-2.2555,-2.5699,-2.5699,-2.5699,-2.5699,-2.5699,-2.5699,-2.5699,-2.5699,-2.5699,-2.5699,-2.5699,-2.5699,-2.5701,-2.5699,-2.5694,-2.5694,-2.5694,-2.5696,-2.5702,-2.5693,-2.5692,-2.5698,-2.5694,-2.5697,-2.5701,-2.5699,-2.5689,-2.5668,-2.561,-2.5534,-2.5466,-2.5405,-2.5322,-2.5273,-2.5149,-2.5117,-2.5018,-2.4882,-2.4755,-2.4554,-2.4321,-2.4085,-2.378,-2.3363,-2.3193,-2.2829,-2.2429,-2.2115,-2.1756,-2.1332,-2.0942,-2.0577,-2.0202,-1.9833,-1.9468,-1.9059,-1.8697,-1.834,-1.7975,-1.7652,-1.7357,-1.708,-1.6827,-1.6543,-1.6256,-1.6001,-1.5802,-1.5703,-1.5637,-1.5497,-1.5311,-1.517,-1.4943,-1.4789,-1.4713,-1.4505,-1.4395,-1.4332,-1.4228,-1.3994,-1.3787,-1.3744,-1.3702,-1.3678,-1.3597,-1.3525,-1.3449,-1.342,-1.3491,-1.3563,-1.3763,-1.4057,-1.4407,-1.4754,-1.5085,-1.5463,-1.5852,-1.6088,-1.6448,-1.684,-1.7086,-1.7413,-1.7882,-1.8293,-1.8669,-1.9154,-1.9657,-2.009,-2.0494,-2.0844,-2.1199,-2.1533,-2.1861,-2.2183,-2.2515,-2.5699,-2.5699,-2.5699,-2.5699,-2.5699,-2.5699,-2.5699,-2.5699,-2.5699,-2.5699,-2.5699,-2.5699,-2.5693,-2.5692,-2.5694,-2.5696,-2.5695,-2.5698,-2.5692,-2.5693,-2.5701,-2.5697,-2.5692,-2.5697,-2.5702,-2.5699,-2.5697,-2.5668,-2.5608,-2.5559,-2.5511,-2.5436,-2.536,-2.5282,-2.5205,-2.5122,-2.5018,-2.4863,-2.4726,-2.4531,-2.4303,-2.4096,-2.377,-2.3455,-2.3177,-2.2889,-2.2432,-2.2138,-2.1779,-2.1308,-2.0925,-2.0534,-2.0125,-1.9751,-1.9358,-1.8965,-1.8608,-1.8242,-1.7875,-1.7542,-1.7246,-1.6939,-1.658,-1.6256,-1.6022,-1.5776,-1.5576,-1.5497,-1.5446,-1.5272,-1.5068,-1.492,-1.4714,-1.4558,-1.4482,-1.4249,-1.4057,-1.4022,-1.3912,-1.3647,-1.3486,-1.3443,-1.3401,-1.343,-1.3382,-1.3329,-1.3276,-1.3223,-1.3295,-1.342,-1.3615,-1.3892,-1.4221,-1.4569,-1.4909,-1.5266,-1.5653,-1.6078,-1.6433,-1.6776,-1.708,-1.7433,-1.7868,-1.8247,-1.8642,-1.9117,-1.9621,-2.0028,-2.0424,-2.0786,-2.1127,-2.1433,-2.1753,-2.21,-2.2474,-2.5699,-2.5699,-2.5699,-2.5699,-2.5699,-2.5699,-2.5699,-2.5699,-2.5699,-2.5699,-2.5699,-2.5699,-2.5699,-2.5695,-2.5701,-2.5694,-2.5701,-2.5699,-2.5693,-2.5692,-2.5698,-2.5694,-2.5699,-2.5696,-2.5702,-2.5701,-2.5699,-2.5661,-2.5607,-2.5597,-2.5557,-2.5495,-2.54,-2.5313,-2.5216,-2.5112,-2.4986,-2.4842,-2.4711,-2.455,-2.4321,-2.4076,-2.377,-2.3389,-2.3147,-2.2855,-2.2361,-2.2104,-2.1773,-2.1293,-2.0876,-2.0484,-2.0048,-1.9661,-1.9246,-1.887,-1.8484,-1.8116,-1.776,-1.7426,-1.7135,-1.6806,-1.6408,-1.5994,-1.583,-1.5631,-1.5407,-1.5176,-1.5125,-1.4949,-1.472,-1.4512,-1.4414,-1.4285,-1.4174,-1.3981,-1.3815,-1.371,-1.3581,-1.3328,-1.3213,-1.3218,-1.3214,-1.3253,-1.3253,-1.3224,-1.3171,-1.3118,-1.318,-1.3276,-1.3449,-1.3692,-1.3999,-1.4326,-1.4639,-1.5045,-1.5513,-1.5963,-1.6362,-1.6742,-1.7115,-1.7509,-1.7909,-1.8293,-1.8688,-1.9143,-1.9574,-2.001,-2.0399,-2.0728,-2.1063,-2.1425,-2.1819,-2.2226,-2.2557,-2.5699,-2.5699,-2.5699,-2.5699,-2.5699,-2.5699,-2.5699,-2.5699,-2.5699,-2.5699,-2.5699,-2.5699,-2.5699,-2.5695,-2.5701,-2.5696,-2.5696,-2.5699,-2.5693,-2.5701,-2.5696,-2.5702,-2.5699,-2.5696,-2.5692,-2.5701,-2.5699,-2.5663,-2.5603,-2.5608,-2.5572,-2.5505,-2.5429,-2.5356,-2.5247,-2.5096,-2.4927,-2.482,-2.4686,-2.4524,-2.4321,-2.4095,-2.38,-2.3404,-2.3114,-2.282,-2.2399,-2.2046,-2.1654,-2.123,-2.077,-2.0351,-1.9952,-1.9545,-1.9146,-1.8755,-1.8347,-1.7989,-1.7604,-1.7247,-1.6918,-1.647,-1.6094,-1.5808,-1.5631,-1.5401,-1.5131,-1.4926,-1.4811,-1.4656,-1.4419,-1.4298,-1.4228,-1.4028,-1.3863,-1.3692,-1.3573,-1.3501,-1.3382,-1.3161,-1.3151,-1.3151,-1.3128,-1.3075,-1.3099,-1.3094,-1.3065,-1.3036,-1.3074,-1.3166,-1.3334,-1.3525,-1.3834,-1.4204,-1.4541,-1.4966,-1.5418,-1.5846,-1.6275,-1.6714,-1.7136,-1.7577,-1.7969,-1.8345,-1.8726,-1.9154,-1.9566,-1.9985,-2.0375,-2.0728,-2.1095,-2.1472,-2.1892,-2.2315,-2.2602,-2.5699,-2.5699,-2.5699,-2.5699,-2.5699,-2.5699,-2.5699,-2.5699,-2.5699,-2.5699,-2.5699,-2.5699,-2.5699,-2.5695,-2.5693,-2.5697,-2.57,-2.57,-2.5693,-2.57,-2.5695,-2.5701,-2.5698,-2.5696,-2.5693,-2.5693,-2.5697,-2.5671,-2.56,-2.5605,-2.5562,-2.5501,-2.5437,-2.5364,-2.5257,-2.5078,-2.4886,-2.4791,-2.466,-2.4471,-2.4266,-2.4027,-2.3718,-2.3348,-2.3061,-2.2686,-2.2274,-2.1884,-2.154,-2.1127,-2.0687,-2.0214,-1.98,-1.9409,-1.8995,-1.86,-1.8182,-1.7814,-1.7447,-1.7052,-1.6641,-1.6144,-1.5937,-1.5659,-1.5401,-1.5125,-1.488,-1.4651,-1.4518,-1.4355,-1.4116,-1.4017,-1.3918,-1.371,-1.361,-1.3467,-1.3387,-1.3301,-1.3186,-1.3065,-1.3031,-1.2973,-1.2978,-1.2929,-1.2881,-1.29,-1.29,-1.2871,-1.2895,-1.3012,-1.3229,-1.344,-1.3692,-1.4093,-1.4507,-1.492,-1.5328,-1.5802,-1.6225,-1.6699,-1.7122,-1.7577,-1.8009,-1.8399,-1.8772,-1.9154,-1.9577,-2.0003,-2.0375,-2.0728,-2.1159,-2.1624,-2.1968,-2.236,-2.2579,-2.5699,-2.5699,-2.5699,-2.5699,-2.5701,-2.5699,-2.5699,-2.5699,-2.5699,-2.5699,-2.5699,-2.5699,-2.5699,-2.5695,-2.5694,-2.5698,-2.5702,-2.5702,-2.5693,-2.57,-2.5694,-2.5698,-2.5697,-2.5696,-2.5692,-2.5693,-2.5697,-2.5671,-2.5608,-2.5605,-2.555,-2.5477,-2.5421,-2.534,-2.5269,-2.5087,-2.4926,-2.4795,-2.4662,-2.4427,-2.4164,-2.3929,-2.358,-2.3223,-2.291,-2.2553,-2.2107,-2.1713,-2.1363,-2.099,-2.0527,-2.008,-1.969,-1.918,-1.8733,-1.8288,-1.7835,-1.7461,-1.7171,-1.675,-1.6306,-1.5903,-1.5738,-1.5474,-1.5159,-1.4886,-1.4628,-1.4396,-1.428,-1.4098,-1.3881,-1.3692,-1.3592,-1.3467,-1.3367,-1.3305,-1.3229,-1.3138,-1.3046,-1.2925,-1.2832,-1.2759,-1.2774,-1.2774,-1.27,-1.2676,-1.2705,-1.2705,-1.2735,-1.2876,-1.3065,-1.3339,-1.3568,-1.3999,-1.4419,-1.4829,-1.5266,-1.5742,-1.6203,-1.6671,-1.7136,-1.7598,-1.8022,-1.8406,-1.8798,-1.918,-1.9603,-2.0028,-2.0469,-2.0925,-2.1386,-2.1819,-2.212,-2.2377,-2.2574,-2.5701,-2.5699,-2.5699,-2.5694,-2.5697,-2.5695,-2.5699,-2.5699,-2.5699,-2.5699,-2.5699,-2.5699,-2.5693,-2.5692,-2.5699,-2.5693,-2.5694,-2.5693,-2.5702,-2.57,-2.5692,-2.5699,-2.5697,-2.5696,-2.5702,-2.5693,-2.5697,-2.5671,-2.5608,-2.5597,-2.5554,-2.5489,-2.5378,-2.5288,-2.5149,-2.5006,-2.4872,-2.4778,-2.4613,-2.44,-2.4116,-2.3858,-2.3533,-2.3107,-2.2773,-2.2373,-2.1926,-2.1508,-2.1119,-2.0779,-2.0315,-1.9894,-1.949,-1.8974,-1.8514,-1.8095,-1.7652,-1.7149,-1.6684,-1.621,-1.6001,-1.5748,-1.5503,-1.5244,-1.4966,-1.4674,-1.4419,-1.4168,-1.4022,-1.381,-1.3586,-1.352,-1.342,-1.33,-1.3228,-1.3176,-1.3094,-1.3022,-1.2925,-1.2827,-1.2705,-1.2632,-1.2607,-1.2598,-1.2524,-1.2505,-1.2505,-1.2549,-1.2603,-1.2725,-1.292,-1.3214,-1.351,-1.3899,-1.4326,-1.4811,-1.5311,-1.5786,-1.6241,-1.6708,-1.715,-1.7632,-1.8049,-1.8452,-1.8824,-1.9206,-1.9675,-2.0152,-2.067,-2.1151,-2.1533,-2.1825,-2.2044,-2.2287,-2.2538,-2.5697,-2.5692,-2.5699,-2.5697,-2.57,-2.5697,-2.5699,-2.5695,-2.5693,-2.5701,-2.5699,-2.5693,-2.5697,-2.5697,-2.5694,-2.5698,-2.5697,-2.5693,-2.57,-2.5698,-2.5702,-2.5698,-2.5697,-2.5695,-2.5699,-2.57,-2.5699,-2.5681,-2.561,-2.5586,-2.5522,-2.5429,-2.5317,-2.5195,-2.5068,-2.4945,-2.4842,-2.4713,-2.4529,-2.4312,-2.4019,-2.3723,-2.3408,-2.2973,-2.2549,-2.2147,-2.1728,-2.1276,-2.0828,-2.0455,-2.0058,-1.9636,-1.9206,-1.8784,-1.8292,-1.7861,-1.7269,-1.6735,-1.6188,-1.5798,-1.5637,-1.5491,-1.5221,-1.4994,-1.4754,-1.4483,-1.4233,-1.4004,-1.3797,-1.3597,-1.3438,-1.3396,-1.3267,-1.3171,-1.3099,-1.3051,-1.3002,-1.2929,-1.2852,-1.2754,-1.2632,-1.2534,-1.2411,-1.2382,-1.2328,-1.2328,-1.2308,-1.2402,-1.2495,-1.2671,-1.2866,-1.3161,-1.351,-1.3947,-1.4402,-1.4891,-1.5368,-1.5859,-1.6328,-1.6793,-1.7248,-1.7706,-1.8109,-1.8498,-1.8862,-1.928,-1.9793,-2.0283,-2.077,-2.1175,-2.1519,-2.1766,-2.1961,-2.222,-2.2511,-2.5692,-2.5696,-2.5694,-2.5699,-2.5699,-2.5696,-2.5696,-2.5692,-2.5692,-2.5699,-2.5701,-2.5702,-2.5697,-2.5693,-2.5701,-2.5694,-2.5701,-2.5693,-2.57,-2.5695,-2.57,-2.5698,-2.5695,-2.5692,-2.5694,-2.5694,-2.5691,-2.5657,-2.5604,-2.5528,-2.5459,-2.5373,-2.5267,-2.514,-2.5035,-2.4922,-2.4799,-2.4634,-2.4444,-2.4192,-2.3869,-2.3591,-2.323,-2.2803,-2.2354,-2.1911,-2.1455,-2.0966,-2.0539,-2.0147,-1.9767,-1.9314,-1.891,-1.8514,-1.8035,-1.7435,-1.6725,-1.625,-1.5881,-1.5553,-1.5278,-1.5176,-1.5057,-1.4806,-1.453,-1.4298,-1.4069,-1.3858,-1.3644,-1.3515,-1.3367,-1.3248,-1.3128,-1.3051,-1.2973,-1.2954,-1.2934,-1.2886,-1.2808,-1.271,-1.2558,-1.2436,-1.2258,-1.218,-1.22,-1.2204,-1.2229,-1.2357,-1.248,-1.2754,-1.2939,-1.3156,-1.3563,-1.3999,-1.4471,-1.4937,-1.5464,-1.5953,-1.6463,-1.6947,-1.7379,-1.7801,-1.8168,-1.8555,-1.892,-1.9354,-1.9889,-2.0376,-2.0827,-2.1198,-2.1488,-2.1751,-2.1947,-2.2237,-2.2506,-2.5696,-2.5699,-2.5697,-2.5693,-2.5696,-2.5695,-2.5696,-2.5697,-2.5696,-2.5694,-2.5701,-2.5699,-2.5694,-2.5701,-2.5696,-2.5701,-2.5693,-2.5701,-2.5698,-2.5693,-2.5698,-2.5695,-2.5693,-2.5698,-2.5699,-2.5683,-2.5662,-2.5627,-2.5579,-2.5488,-2.5393,-2.5327,-2.5219,-2.5118,-2.5009,-2.49,-2.4717,-2.4536,-2.4348,-2.4058,-2.3724,-2.3445,-2.3072,-2.2673,-2.2144,-2.1713,-2.1269,-2.0778,-2.0351,-1.9919,-1.9518,-1.9084,-1.8616,-1.8234,-1.7747,-1.6968,-1.6408,-1.5973,-1.5726,-1.5368,-1.508,-1.4869,-1.472,-1.4581,-1.4344,-1.4111,-1.3905,-1.371,-1.3544,-1.3396,-1.3281,-1.3157,-1.3056,-1.2983,-1.2934,-1.291,-1.2886,-1.2832,-1.2759,-1.2637,-1.2485,-1.2308,-1.213,-1.2056,-1.2076,-1.2076,-1.215,-1.2278,-1.2455,-1.273,-1.2988,-1.3204,-1.3586,-1.4028,-1.4494,-1.4989,-1.5531,-1.6063,-1.6592,-1.7073,-1.7523,-1.7902,-1.826,-1.8649,-1.9101,-1.9537,-2.002,-2.0452,-2.0835,-2.1111,-2.1395,-2.1668,-2.194,-2.2217,-2.2474,-2.5701,-2.5694,-2.5699,-2.5702,-2.5693,-2.5693,-2.57,-2.5699,-2.5693,-2.5699,-2.5698,-2.5694,-2.5698,-2.5694,-2.5701,-2.5693,-2.5701,-2.5696,-2.57,-2.5697,-2.5696,-2.5693,-2.5699,-2.5692,-2.5699,-2.5679,-2.5642,-2.5579,-2.5525,-2.5429,-2.5327,-2.5257,-2.5178,-2.5054,-2.4911,-2.4781,-2.4567,-2.4373,-2.4183,-2.396,-2.3648,-2.3304,-2.2939,-2.2514,-2.1969,-2.1532,-2.1103,-2.0604,-2.0127,-1.9685,-1.9266,-1.8846,-1.8338,-1.7862,-1.733,-1.6607,-1.6203,-1.583,-1.5503,-1.5119,-1.4857,-1.4627,-1.4355,-1.4163,-1.4069,-1.3881,-1.3734,-1.3592,-1.3449,-1.3281,-1.3171,-1.3089,-1.3002,-1.291,-1.291,-1.291,-1.2856,-1.2779,-1.2656,-1.2534,-1.2357,-1.2175,-1.2051,-1.2002,-1.1972,-1.2022,-1.2121,-1.2298,-1.2475,-1.2705,-1.2958,-1.318,-1.3615,-1.4075,-1.4564,-1.5068,-1.5653,-1.6203,-1.672,-1.7199,-1.7639,-1.8009,-1.8352,-1.8829,-1.9336,-1.9736,-2.0098,-2.0433,-2.0801,-2.1063,-2.1324,-2.1593,-2.1876,-2.2163,-2.2382,-2.57,-2.5701,-2.5693,-2.5692,-2.5692,-2.5692,-2.5693,-2.5693,-2.5699,-2.5694,-2.5701,-2.5694,-2.5698,-2.5702,-2.5693,-2.5701,-2.5696,-2.5698,-2.5693,-2.5698,-2.5701,-2.5698,-2.5701,-2.5691,-2.5687,-2.5675,-2.5619,-2.5528,-2.5456,-2.5359,-2.5258,-2.5177,-2.5069,-2.4954,-2.4832,-2.4692,-2.4469,-2.4201,-2.403,-2.384,-2.3531,-2.3175,-2.2764,-2.2298,-2.1784,-2.1285,-2.0811,-2.0325,-1.9861,-1.9424,-1.9014,-1.8625,-1.8016,-1.7454,-1.6863,-1.6408,-1.6007,-1.5653,-1.5295,-1.4886,-1.461,-1.4332,-1.4028,-1.3834,-1.3734,-1.3687,-1.3586,-1.342,-1.3252,-1.3195,-1.3109,-1.2973,-1.2881,-1.2861,-1.2856,-1.2856,-1.2808,-1.2705,-1.2558,-1.2431,-1.2303,-1.2126,-1.2051,-1.2002,-1.2026,-1.2022,-1.2071,-1.2274,-1.2524,-1.2754,-1.2983,-1.3228,-1.3668,-1.4145,-1.4663,-1.521,-1.579,-1.6337,-1.6835,-1.7309,-1.7747,-1.8109,-1.8464,-1.895,-1.9435,-1.9797,-2.0158,-2.0475,-2.0768,-2.103,-2.1285,-2.1517,-2.1796,-2.2092,-2.2327,-2.5693,-2.5693,-2.5699,-2.5696,-2.5696,-2.5696,-2.5699,-2.5702,-2.5693,-2.5693,-2.5701,-2.5692,-2.5693,-2.5693,-2.5699,-2.5693,-2.5698,-2.5699,-2.5694,-2.5694,-2.5696,-2.5701,-2.5693,-2.5694,-2.5664,-2.5615,-2.5547,-2.5456,-2.5377,-2.5288,-2.522,-2.5182,-2.5057,-2.4908,-2.477,-2.4614,-2.4356,-2.4058,-2.3828,-2.3626,-2.3342,-2.2969,-2.2566,-2.2119,-2.1645,-2.1127,-2.0663,-2.0229,-1.9718,-1.9239,-1.886,-1.8299,-1.7611,-1.7078,-1.6654,-1.6259,-1.5852,-1.5491,-1.5131,-1.4725,-1.4419,-1.4181,-1.3928,-1.3663,-1.352,-1.3491,-1.342,-1.3228,-1.3142,-1.3084,-1.2997,-1.2881,-1.2783,-1.2783,-1.2803,-1.2779,-1.273,-1.2583,-1.2431,-1.2332,-1.2224,-1.215,-1.2051,-1.2051,-1.2076,-1.2076,-1.2081,-1.2254,-1.2578,-1.2827,-1.3104,-1.3353,-1.3721,-1.4192,-1.4749,-1.5288,-1.585,-1.6358,-1.6856,-1.7351,-1.7842,-1.8294,-1.8716,-1.9101,-1.9527,-1.9851,-2.0175,-2.0466,-2.0752,-2.103,-2.1254,-2.1501,-2.1728,-2.2017,-2.2231,-2.5699,-2.5697,-2.5699,-2.5695,-2.5695,-2.5694,-2.5698,-2.5693,-2.5694,-2.5696,-2.5701,-2.5702,-2.5701,-2.5699,-2.57,-2.5699,-2.5696,-2.5697,-2.5694,-2.5694,-2.5696,-2.5693,-2.5694,-2.5685,-2.5641,-2.5589,-2.5488,-2.5399,-2.5307,-2.5235,-2.5184,-2.511,-2.4982,-2.4839,-2.4693,-2.4487,-2.4238,-2.3948,-2.3666,-2.3392,-2.3111,-2.2751,-2.2409,-2.1984,-2.1485,-2.0966,-2.0462,-2.0013,-1.9556,-1.9033,-1.8574,-1.8009,-1.7419,-1.6952,-1.6568,-1.6194,-1.5786,-1.535,-1.4989,-1.4628,-1.4274,-1.4041,-1.3729,-1.3472,-1.3324,-1.33,-1.3277,-1.3138,-1.3113,-1.308,-1.2905,-1.2759,-1.2681,-1.2656,-1.2632,-1.2607,-1.2529,-1.2426,-1.2303,-1.2204,-1.2126,-1.2076,-1.2026,-1.2056,-1.2076,-1.2146,-1.215,-1.2377,-1.2676,-1.2939,-1.3195,-1.3525,-1.3886,-1.428,-1.4795,-1.5339,-1.5885,-1.6386,-1.6877,-1.7434,-1.7975,-1.8516,-1.8984,-1.9295,-1.9581,-1.9879,-2.0193,-2.0534,-2.0801,-2.1063,-2.1285,-2.1494,-2.1721,-2.198,-2.2226,-2.5695,-2.5693,-2.5693,-2.5699,-2.5697,-2.5699,-2.5693,-2.5698,-2.5698,-2.5698,-2.5692,-2.5694,-2.5693,-2.5699,-2.5694,-2.57,-2.5699,-2.5694,-2.5702,-2.5702,-2.5694,-2.5681,-2.5654,-2.564,-2.5598,-2.5528,-2.5435,-2.5355,-2.5276,-2.5185,-2.5088,-2.4986,-2.4854,-2.4713,-2.4538,-2.433,-2.4076,-2.3812,-2.3506,-2.3172,-2.2863,-2.2544,-2.2212,-2.1777,-2.1276,-2.073,-2.0216,-1.9749,-1.9343,-1.8817,-1.8288,-1.774,-1.7309,-1.6882,-1.6513,-1.6144,-1.5742,-1.5322,-1.4926,-1.4501,-1.4181,-1.3881,-1.3539,-1.33,-1.318,-1.3074,-1.3051,-1.3007,-1.3007,-1.2934,-1.2759,-1.2632,-1.2578,-1.2529,-1.248,-1.2406,-1.2328,-1.2278,-1.22,-1.2076,-1.2076,-1.2051,-1.2081,-1.2081,-1.2155,-1.2195,-1.2343,-1.2618,-1.2886,-1.3118,-1.3377,-1.3729,-1.4134,-1.4519,-1.4903,-1.5384,-1.5935,-1.6402,-1.6913,-1.7523,-1.8108,-1.8632,-1.9048,-1.9376,-1.9687,-1.9957,-2.0296,-2.0635,-2.0892,-2.1151,-2.1402,-2.1631,-2.1817,-2.2067,-2.2271,-2.5693,-2.5699,-2.5697,-2.5696,-2.5696,-2.5696,-2.5693,-2.57,-2.5701,-2.5701,-2.5692,-2.5694,-2.5696,-2.5693,-2.5694,-2.5694,-2.5692,-2.5695,-2.5701,-2.5701,-2.5687,-2.5652,-2.5628,-2.5598,-2.5534,-2.5456,-2.5378,-2.5302,-2.5228,-2.5127,-2.5035,-2.4984,-2.4733,-2.4575,-2.4425,-2.4201,-2.3966,-2.3682,-2.3324,-2.2977,-2.2669,-2.2328,-2.1959,-2.1538,-2.1071,-2.057,-2.008,-1.9628,-1.9161,-1.8623,-1.8022,-1.7564,-1.7205,-1.6876,-1.6513,-1.6116,-1.572,-1.5283,-1.4869,-1.4437,-1.4116,-1.3734,-1.3401,-1.3069,-1.2929,-1.2764,-1.27,-1.2647,-1.2627,-1.2627,-1.25,-1.2426,-1.2352,-1.2402,-1.2377,-1.2224,-1.2096,-1.2126,-1.2126,-1.2096,-1.2096,-1.215,-1.2204,-1.2283,-1.2377,-1.2446,-1.2544,-1.2813,-1.3113,-1.3324,-1.3557,-1.3959,-1.4362,-1.4691,-1.5034,-1.5463,-1.5979,-1.6429,-1.6955,-1.7618,-1.8214,-1.8704,-1.9119,-1.9476,-1.9777,-2.0071,-2.0407,-2.0752,-2.1022,-2.1285,-2.1572,-2.1812,-2.1972,-2.2138,-2.2332]},{"header":{"parameterUnit":"m.s-1","parameterCategory":1,"la1":31.0,"la2":29.5877,"lo1":-88.7671,"lo2":-86.6584,"dx":0.0162,"dy":0.0185,"nx":115,"ny":88,"refTime":"2022-12-09T06:00:00:Z","depth":0,"parameterNumber":3,"parameterNumberName":"V-component_of_WINDS"},"data":[0.0,0.0,0.0,0.0,0.0,0.0,0.0,0.0,0.0,0.0,0.0,0.0,0.0,0.0,0.0,0.0,0.0,0.0,0.0,0.0,0.0,0.0,0.0,0.0,0.0,0.0,0.0,0.0,0.0,0.0,0.0,0.0,0.0,0.0,0.0,0.0,0.0,0.0,0.0,0.0,0.0,0.0,0.0,0.0,0.0,0.0,0.0,0.0,0.0,0.0,0.0,0.0,0.0,0.0,0.0,0.0,0.0,0.0,0.0,0.0,0.0,0.0,0.0,0.0,0.0,0.0,0.0,0.0,0.0,0.0,0.0,0.0,0.0,0.0,0.0,0.0,0.0,0.0,0.0,0.0,0.0,0.0,0.0,0.0,0.0,0.0,0.0,0.0,0.0,0.0,0.0,0.0,0.0,0.0,0.0,0.0,0.0,0.0,0.0,0.0,0.0,0.0,0.0,0.0,0.0,0.0,0.0,0.0,0.0,0.0,0.0,0.0,0.0,0.0,0.0,0.0,0.0,0.0,0.0,0.0,0.0,0.0,0.0,0.0,0.0,0.0,0.0,0.0,0.0,0.0,0.0,0.0,0.0,0.0,0.0,0.0,0.0,0.0,0.0,0.0,0.0,0.0,0.0,0.0,0.0,0.0,0.0,0.0,0.0,0.0,0.0,0.0,0.0,0.0,0.0,0.0,0.0,0.0,0.0,0.0,0.0,0.0,0.0,0.0,0.0,0.0,0.0,0.0,0.0,0.0,0.0,0.0,0.0,0.0,0.0,0.0,0.0,0.0,0.0,0.0,0.0,0.0,0.0,0.0,0.0,0.0,0.0,0.0,0.0,0.0,0.0,0.0,0.0,0.0,0.0,0.0,0.0,0.0,0.0,0.0,0.0,0.0,0.0,0.0,0.0,0.0,0.0,0.0,0.0,0.0,0.0,0.0,0.0,0.0,0.0,0.0,0.0,0.0,0.0,0.0,0.0,0.0,0.0,0.0,0.0,0.0,0.0,0.0,0.0,0.0,0.0,0.0,0.0,0.0,0.0,0.0,0.0,0.0,0.0,0.0,0.0,0.0,0.0,0.0,0.0,0.0,0.0,0.0,0.0,0.0,0.0,0.0,0.0,0.0,0.0,0.0,0.0,0.0,0.0,0.0,0.0,0.0,0.0,0.0,0.0,0.0,0.0,0.0,0.0,0.0,0.0,0.0,0.0,0.0,0.0,0.0,0.0,0.0,0.0,0.0,0.0,0.0,0.0,0.0,0.0,0.0,0.0,0.0,0.0,0.0,0.0,0.0,0.0,0.0,0.0,0.0,0.0,0.0,0.0,0.0,0.0,0.0,0.0,0.0,0.0,0.0,0.0,0.0,0.0,0.0,0.0,0.0,0.0,0.0,0.0,0.0,0.0,0.0,0.0,0.0,0.0,0.0,0.0,0.0,0.0,0.0,0.0,0.0,0.0,0.0,0.0,0.0,0.0,0.0,0.0,0.0,0.0,0.0,0.0,0.0,0.0,0.0,0.0,0.0,0.0,0.0,0.0,0.0,0.0,0.0,0.0,0.0,0.0,0.0,0.0,0.0,0.0,0.0,0.0,0.0,0.0,0.0,0.0,0.0,0.0,0.0,0.0,0.0,0.0,0.0,0.0,0.0,0.0,0.0,0.0,0.0,0.0,0.0,0.0,0.0,0.0,0.0,0.0,0.0,0.0,0.0,0.0,0.0,0.0,0.0,0.0,0.0,0.0,0.0,0.0,0.0,0.0,0.0,0.0,0.0,0.0,0.0,0.0,0.0,0.0,0.0,0.0,0.0,0.0,0.0,0.0,0.0,0.0,0.0,0.0,0.0,0.0,0.0,0.0,0.0,0.0,0.0,0.0,0.0,0.0,0.0,0.0,0.0,0.0,0.0,0.0,0.0,0.0,0.0,0.0,0.0,0.0,0.0,0.0,0.0,0.0,0.0,0.0,0.0,0.0,0.0,0.0,0.0,0.0,0.0,0.0,0.0,0.0,0.0,0.0,0.0,0.0,0.0,0.0,0.0,0.0,0.0,0.0,0.0,0.0,0.0,0.0,0.0,0.0,0.0,0.0,0.0,0.0,0.0,0.0,0.0,0.0,0.0,0.0,0.0,0.0,0.0,0.0,0.0,0.0,0.0,0.0,0.0,0.0,0.0,0.0,0.0,0.0,0.0,0.0,0.0,0.0,0.0,0.0,0.0,0.0,0.0,0.0,0.0,0.0,0.0,0.0,0.0,0.0,0.0,0.0,0.0,0.0,0.0,0.0,0.0,0.0,0.0,0.0,0.0,0.0,0.0,0.0,0.0,0.0,0.0,0.0,0.0,0.0,0.0,0.0,0.0,0.0,0.0,0.0,0.0,0.0,0.0,0.0,0.0,0.0,0.0,0.0,0.0,0.0,0.0,0.0,0.0,0.0,0.0,0.0,0.0,0.0,0.0,0.0,0.0,0.0,0.0,0.0,0.0,0.0,0.0,0.0,0.0,0.0,0.0,0.0,0.0,0.0,0.0,0.0,0.0,0.0,0.0,0.0,0.0,0.0,0.0,0.0,0.0,0.0,0.0,0.0,0.0,0.0,0.0,0.0,0.0,0.0,0.0,0.0,0.0,0.0,0.0,0.0,0.0,0.0,0.0,0.0,0.0,0.0,0.0,0.0,0.0,0.0,0.0,0.0,0.0,0.0,0.0,0.0,0.0,0.0,0.0,0.0,0.0,0.0,0.0,0.0,0.0,0.0,0.0,0.0,0.0,0.0,0.0,0.0,0.0,0.0,0.0,0.0,0.0,0.0,0.0,0.0,0.0,0.0,0.0,0.0,0.0,0.0,0.0,0.0,0.0,0.0,0.0,0.0,0.0,0.0,0.0,0.0,0.0,0.0,0.0,0.0,0.0,0.0,0.0,0.0,0.0,0.0,0.0,0.0,0.0,0.0,0.0,0.0,0.0,0.0,0.0,0.0,0.0,0.0,0.0,0.0,0.0,0.0,0.0,0.0,0.0,0.0,0.0,0.0,0.0,0.0,0.0,0.0,0.0,0.0,0.0,0.0,0.0,0.0,0.0,0.0,0.0,0.0,0.0,0.0,0.0,0.0,0.0,0.0,0.0,0.0,0.0,0.0,0.0,0.0,0.0,0.0,0.0,0.0,0.0,0.0,0.0,0.0,0.0,0.0,0.0,0.0,0.0,0.0,0.0,0.0,0.0,0.0,0.0,0.0,0.0,0.0,0.0,0.0,0.0,0.0,0.0,0.0,0.0,0.0,0.0,0.0,0.0,0.0,0.0,0.0,0.0,0.0,0.0,0.0,0.0,0.0,0.0,0.0,0.0,0.0,0.0,0.0,0.0,0.0,0.0,0.0,0.0,0.0,0.0,0.0,0.0,0.0,0.0,0.0,0.0,0.0,0.0,0.0,0.0,0.0,0.0,0.0,0.0,0.0,0.0,0.0,0.0,0.0,0.0,0.0,0.0,0.0,0.0,0.0,0.0,0.0,0.0,0.0,0.0,0.0,0.0,0.0,0.0,0.0,0.0,0.0,0.0,0.0,0.0,0.0,0.0,0.0,0.0,0.0,0.0,0.0,0.0,0.0,0.0,0.0,0.0,0.0,0.0,0.0,0.0,0.0,0.0,0.0,0.0,0.0,0.0,0.0,0.0,0.0,0.0,0.0,0.0,0.0,0.0,0.0,0.0,0.0,0.0,0.0,0.0,0.0,0.0,0.0,0.0,0.0,0.0,0.0,0.0,0.0,0.0,0.0,0.0,0.0,0.0,0.0,0.0,0.0,0.0,0.0,0.0,0.0,0.0,0.0,0.0,0.0,0.0,0.0,0.0,0.0,0.0,0.0,0.0,0.0,0.0,0.0,0.0,0.0,0.0,0.0,0.0,0.0,0.0,0.0,0.0,0.0,0.0,0.0,0.0,0.0,0.0,0.0,0.0,0.0,0.0,0.0,0.0,0.0,0.0,0.0,0.0,0.0,0.0,0.0,0.0,0.0,0.0,0.0,0.0,0.0,0.0,0.0,0.0,0.0,0.0,0.0,0.0,0.0,0.0,0.0,0.0,0.0,0.0,0.0,0.0,0.0,0.0,0.0,0.0,0.0,0.0,0.0,0.0,0.0,0.0,0.0,0.0,0.0,0.0,0.0,0.0,0.0,0.0,0.0,0.0,0.0,0.0,0.0,0.0,0.0,0.0,0.0,0.0,0.0,0.0,0.0,0.0,0.0,0.0,0.0,0.0,0.0,0.0,-1.1211,0.0,0.0,0.0,-1.0445,0.0,0.0,0.0,0.0,0.0,0.0,0.0,0.0,0.0,0.0,0.0,0.0,0.0,0.0,0.0,0.0,0.0,0.0,0.0,0.0,0.0,0.0,0.0,0.0,0.0,0.0,0.0,0.0,0.0,0.0,0.0,0.0,0.0,0.0,0.0,0.0,0.0,0.0,0.0,0.0,0.0,0.0,0.0,0.0,0.0,0.0,0.0,0.0,0.0,0.0,0.0,0.0,0.0,0.0,0.0,0.0,0.0,0.0,0.0,0.0,0.0,0.0,0.0,0.0,0.0,0.0,0.0,0.0,0.0,0.0,0.0,0.0,0.0,0.0,0.0,0.0,0.0,0.0,0.0,0.0,0.0,0.0,0.0,0.0,0.0,0.0,0.0,0.0,0.0,0.0,0.0,0.0,0.0,0.0,0.0,0.0,0.0,0.0,0.0,0.0,0.0,0.0,0.0,0.0,0.0,0.0,0.0,0.0,0.0,0.0,-1.1079,-1.1239,-1.0748,-1.0432,-1.0333,0.0,0.0,0.0,0.0,0.0,0.0,0.0,0.0,0.0,0.0,0.0,0.0,0.0,0.0,0.0,0.0,0.0,0.0,0.0,0.0,0.0,0.0,0.0,0.0,0.0,0.0,0.0,0.0,0.0,0.0,0.0,0.0,0.0,0.0,0.0,0.0,0.0,0.0,0.0,0.0,0.0,0.0,0.0,0.0,0.0,0.0,0.0,0.0,0.0,0.0,0.0,0.0,0.0,0.0,0.0,0.0,0.0,0.0,0.0,0.0,0.0,0.0,0.0,0.0,0.0,0.0,0.0,0.0,0.0,0.0,0.0,0.0,0.0,0.0,0.0,0.0,0.0,0.0,0.0,0.0,0.0,0.0,0.0,0.0,0.0,0.0,0.0,0.0,0.0,0.0,0.0,0.0,0.0,0.0,0.0,0.0,0.0,0.0,0.0,0.0,0.0,0.0,0.0,0.0,0.0,0.0,0.0,0.0,0.0,0.0,0.0,0.0,-1.0368,-1.0055,-1.0061,0.0,0.0,0.0,0.0,0.0,0.0,0.0,0.0,0.0,0.0,0.0,0.0,0.0,0.0,0.0,0.0,0.0,0.0,0.0,0.0,0.0,0.0,0.0,0.0,0.0,0.0,0.0,0.0,0.0,0.0,0.0,0.0,0.0,0.0,0.0,0.0,0.0,0.0,0.0,0.0,0.0,0.0,0.0,0.0,0.0,0.0,0.0,0.0,0.0,0.0,0.0,0.0,0.0,0.0,0.0,0.0,0.0,0.0,0.0,0.0,0.0,0.0,0.0,0.0,0.0,0.0,0.0,0.0,0.0,0.0,0.0,0.0,0.0,0.0,0.0,0.0,0.0,0.0,0.0,0.0,0.0,0.0,0.0,0.0,0.0,0.0,0.0,0.0,0.0,0.0,0.0,0.0,0.0,0.0,0.0,0.0,0.0,0.0,0.0,0.0,0.0,0.0,0.0,0.0,0.0,0.0,0.0,0.0,0.0,0.0,-0.9477,-0.9922,-0.946,0.0,-0.9416,0.0,0.0,0.0,0.0,0.0,0.0,0.0,0.0,0.0,0.0,0.0,0.0,0.0,0.0,0.0,0.0,0.0,0.0,0.0,0.0,0.0,0.0,0.0,0.0,0.0,0.0,0.0,0.0,0.0,0.0,0.0,0.0,0.0,0.0,0.0,0.0,0.0,0.0,0.0,0.0,0.0,0.0,0.0,0.0,0.0,0.0,0.0,0.0,0.0,0.0,0.0,0.0,0.0,0.0,0.0,0.0,0.0,0.0,0.0,0.0,0.0,0.0,0.0,0.0,0.0,0.0,0.0,0.0,0.0,0.0,0.0,0.0,0.0,0.0,0.0,0.0,0.0,0.0,0.0,0.0,0.0,0.0,0.0,0.0,0.0,0.0,0.0,0.0,0.0,0.0,0.0,0.0,0.0,0.0,0.0,0.0,0.0,0.0,0.0,0.0,0.0,0.0,0.0,0.0,0.0,0.0,0.0,0.0,0.0,0.0,-0.903,-0.9391,-0.9199,-0.9156,0.0,0.0,0.0,0.0,0.0,0.0,0.0,0.0,0.0,0.0,0.0,0.0,0.0,0.0,0.0,0.0,0.0,0.0,0.0,0.0,0.0,0.0,0.0,0.0,0.0,0.0,0.0,0.0,0.0,0.0,0.0,0.0,0.0,0.0,0.0,0.0,0.0,0.0,0.0,0.0,0.0,0.0,0.0,0.0,0.0,0.0,0.0,0.0,0.0,0.0,0.0,0.0,0.0,0.0,0.0,0.0,0.0,0.0,0.0,0.0,0.0,0.0,0.0,0.0,0.0,0.0,0.0,0.0,0.0,0.0,0.0,0.0,0.0,0.0,0.0,0.0,0.0,0.0,0.0,0.0,0.0,0.0,0.0,0.0,0.0,0.0,0.0,0.0,0.0,0.0,0.0,0.0,0.0,0.0,0.0,0.0,0.0,0.0,0.0,0.0,0.0,0.0,0.0,0.0,0.0,0.0,0.0,0.0,0.0,0.0,-0.8549,-0.8578,-0.8805,-0.8877,-0.9002,-0.915,0.0,0.0,0.0,0.0,0.0,0.0,0.0,0.0,0.0,0.0,0.0,0.0,0.0,0.0,0.0,0.0,0.0,0.0,0.0,0.0,0.0,0.0,0.0,0.0,0.0,0.0,0.0,0.0,0.0,0.0,0.0,0.0,0.0,0.0,0.0,0.0,0.0,0.0,0.0,0.0,0.0,0.0,0.0,0.0,0.0,0.0,0.0,0.0,0.0,0.0,0.0,0.0,0.0,0.0,0.0,0.0,0.0,0.0,0.0,0.0,0.0,0.0,0.0,0.0,0.0,0.0,0.0,0.0,0.0,0.0,0.0,0.0,0.0,0.0,0.0,0.0,0.0,0.0,0.0,0.0,0.0,0.0,0.0,0.0,0.0,0.0,0.0,0.0,0.0,0.0,0.0,0.0,0.0,0.0,0.0,0.0,0.0,0.0,0.0,0.0,0.0,0.0,0.0,0.0,0.0,0.0,0.0,0.0,-0.824,-0.8046,-0.7987,-0.8061,-0.8348,-0.868,0.0,0.0,0.0,0.0,0.0,0.0,0.0,0.0,0.0,0.0,0.0,0.0,0.0,0.0,0.0,0.0,0.0,0.0,0.0,0.0,0.0,0.0,0.0,0.0,0.0,0.0,0.0,0.0,0.0,0.0,0.0,0.0,0.0,0.0,0.0,0.0,0.0,0.0,0.0,0.0,0.0,0.0,0.0,0.0,0.0,0.0,0.0,0.0,0.0,0.0,0.0,0.0,0.0,0.0,0.0,0.0,0.0,0.0,0.0,0.0,0.0,0.0,0.0,0.0,0.0,0.0,0.0,0.0,0.0,0.0,0.0,0.0,0.0,0.0,0.0,0.0,0.0,0.0,0.0,0.0,0.0,0.0,0.0,0.0,0.0,0.0,0.0,0.0,0.0,0.0,0.0,0.0,0.0,0.0,0.0,0.0,0.0,0.0,0.0,0.0,0.0,0.0,0.0,0.0,0.0,0.0,0.0,0.0,0.0,-0.8002,-0.784,-0.785,-0.8021,-0.8279,-0.8614,0.0,0.0,0.0,0.0,0.0,0.0,0.0,0.0,0.0,0.0,0.0,0.0,0.0,0.0,0.0,0.0,0.0,0.0,0.0,0.0,0.0,0.0,0.0,0.0,0.0,0.0,0.0,0.0,0.0,0.0,0.0,0.0,0.0,0.0,0.0,0.0,0.0,0.0,0.0,0.0,0.0,0.0,0.0,0.0,0.0,0.0,0.0,0.0,0.0,0.0,0.0,0.0,0.0,0.0,0.0,0.0,0.0,0.0,0.0,0.0,0.0,0.0,0.0,0.0,0.0,0.0,0.0,0.0,0.0,0.0,0.0,0.0,0.0,0.0,0.0,0.0,0.0,0.0,0.0,0.0,0.0,0.0,0.0,0.0,0.0,0.0,0.0,0.0,0.0,0.0,0.0,0.0,0.0,0.0,0.0,0.0,0.0,0.0,0.0,0.0,0.0,0.0,0.0,0.0,0.0,0.0,0.0,0.0,0.0,-0.7853,-0.7732,-0.7787,-0.7996,-0.8221,-0.8537,0.0,0.0,0.0,0.0,0.0,0.0,0.0,0.0,0.0,0.0,0.0,0.0,0.0,0.0,0.0,0.0,0.0,0.0,0.0,0.0,0.0,0.0,0.0,0.0,0.0,0.0,0.0,0.0,0.0,0.0,0.0,0.0,0.0,0.0,0.0,0.0,0.0,0.0,0.0,0.0,0.0,0.0,0.0,0.0,0.0,0.0,0.0,0.0,0.0,0.0,0.0,0.0,0.0,0.0,0.0,0.0,0.0,0.0,0.0,0.0,0.0,0.0,0.0,0.0,0.0,0.0,0.0,0.0,0.0,0.0,0.0,0.0,0.0,0.0,0.0,0.0,0.0,0.0,0.0,0.0,0.0,0.0,0.0,0.0,0.0,0.0,0.0,0.0,0.0,0.0,0.0,0.0,0.0,0.0,0.0,0.0,0.0,0.0,0.0,0.0,0.0,0.0,0.0,0.0,0.0,0.0,0.0,0.0,-0.7916,-0.7726,-0.7726,-0.7838,-0.8004,-0.8126,-0.8422,0.0,0.0,0.0,0.0,0.0,0.0,0.0,0.0,0.0,0.0,0.0,0.0,0.0,0.0,0.0,0.0,0.0,0.0,0.0,0.0,0.0,0.0,0.0,0.0,0.0,0.0,0.0,0.0,0.0,0.0,0.0,0.0,0.0,0.0,0.0,0.0,0.0,0.0,0.0,0.0,0.0,0.0,0.0,0.0,0.0,0.0,0.0,0.0,0.0,0.0,0.0,0.0,0.0,0.0,0.0,0.0,0.0,0.0,0.0,0.0,0.0,0.0,0.0,0.0,0.0,0.0,0.0,0.0,0.0,0.0,0.0,0.0,0.0,0.0,0.0,0.0,0.0,0.0,0.0,0.0,0.0,0.0,0.0,0.0,0.0,0.0,0.0,0.0,0.0,0.0,0.0,0.0,0.0,0.0,0.0,0.0,0.0,0.0,0.0,0.0,0.0,0.0,0.0,0.0,0.0,0.0,0.0,0.0,0.0,-0.8048,-0.8048,-0.8146,-0.8325,-0.8242,-0.8426,0.0,0.0,0.0,0.0,0.0,0.0,0.0,0.0,0.0,0.0,0.0,0.0,0.0,0.0,0.0,0.0,0.0,0.0,0.0,0.0,0.0,0.0,0.0,0.0,0.0,0.0,0.0,0.0,0.0,0.0,0.0,0.0,0.0,0.0,0.0,0.0,0.0,0.0,0.0,0.0,0.0,0.0,0.0,0.0,0.0,0.0,0.0,0.0,0.0,0.0,0.0,0.0,0.0,0.0,0.0,0.0,0.0,0.0,0.0,0.0,0.0,0.0,0.0,0.0,0.0,0.0,0.0,0.0,0.0,0.0,0.0,0.0,0.0,0.0,0.0,0.0,0.0,0.0,0.0,0.0,0.0,0.0,0.0,0.0,0.0,0.0,0.0,0.0,0.0,0.0,0.0,0.0,0.0,0.0,0.0,0.0,0.0,0.0,0.0,0.0,0.0,0.0,0.0,0.0,0.0,0.0,0.0,0.0,0.0,-0.8385,-0.8385,-0.8427,-0.8514,-0.8376,-0.8458,-0.8793,0.0,0.0,0.0,0.0,0.0,0.0,0.0,0.0,0.0,0.0,0.0,0.0,0.0,0.0,0.0,0.0,0.0,0.0,0.0,0.0,0.0,0.0,0.0,0.0,0.0,0.0,0.0,0.0,0.0,0.0,0.0,0.0,0.0,0.0,0.0,0.0,0.0,0.0,0.0,0.0,0.0,0.0,0.0,0.0,0.0,0.0,0.0,0.0,0.0,0.0,0.0,0.0,0.0,0.0,0.0,0.0,0.0,0.0,0.0,0.0,0.0,0.0,0.0,0.0,0.0,0.0,0.0,0.0,0.0,0.0,0.0,0.0,0.0,0.0,0.0,0.0,0.0,0.0,0.0,0.0,0.0,0.0,0.0,0.0,0.0,0.0,0.0,0.0,0.0,0.0,0.0,0.0,0.0,0.0,0.0,0.0,0.0,0.0,0.0,0.0,0.0,0.0,0.0,0.0,0.0,0.0,0.0,0.0,-0.871,-0.8729,-0.8698,-0.8564,-0.8525,-0.859,0.0,0.0,0.0,0.0,0.0,0.0,0.0,0.0,0.0,0.0,0.0,0.0,0.0,0.0,0.0,0.0,0.0,0.0,0.0,0.0,0.0,0.0,0.0,0.0,0.0,0.0,0.0,0.0,0.0,0.0,0.0,0.0,0.0,0.0,0.0,0.0,0.0,0.0,0.0,0.0,0.0,0.0,0.0,0.0,0.0,0.0,0.0,0.0,0.0,0.0,0.0,0.0,0.0,0.0,0.0,0.0,0.0,0.0,0.0,0.0,0.0,0.0,0.0,0.0,0.0,0.0,0.0,0.0,0.0,0.0,0.0,0.0,0.0,0.0,0.0,0.0,0.0,0.0,0.0,0.0,0.0,0.0,0.0,0.0,0.0,0.0,0.0,0.0,0.0,0.0,0.0,0.0,0.0,0.0,0.0,0.0,0.0,0.0,0.0,0.0,0.0,0.0,0.0,0.0,0.0,0.0,0.0,0.0,0.0,-0.8843,-0.9169,-0.9318,-0.9232,-0.8852,-0.8832,0.0,0.0,0.0,0.0,0.0,0.0,0.0,0.0,0.0,0.0,0.0,0.0,0.0,0.0,0.0,0.0,0.0,0.0,0.0,0.0,0.0,0.0,0.0,0.0,0.0,0.0,0.0,0.0,0.0,0.0,0.0,0.0,0.0,0.0,0.0,0.0,0.0,0.0,0.0,0.0,0.0,0.0,0.0,0.0,0.0,0.0,0.0,0.0,0.0,0.0,0.0,0.0,0.0,0.0,0.0,0.0,0.0,0.0,0.0,0.0,0.0,0.0,0.0,0.0,0.0,0.0,0.0,0.0,0.0,0.0,0.0,0.0,0.0,0.0,0.0,0.0,0.0,0.0,0.0,0.0,0.0,0.0,0.0,0.0,0.0,0.0,0.0,0.0,0.0,0.0,0.0,0.0,0.0,0.0,0.0,0.0,0.0,0.0,0.0,0.0,0.0,0.0,0.0,0.0,0.0,0.0,0.0,0.0,-0.8636,-0.8909,-0.9292,-0.9585,-0.9707,-0.9202,-0.9062,0.0,0.0,0.0,0.0,0.0,0.0,0.0,0.0,0.0,0.0,0.0,0.0,0.0,0.0,0.0,0.0,0.0,0.0,0.0,0.0,0.0,0.0,0.0,0.0,0.0,0.0,0.0,0.0,0.0,0.0,0.0,0.0,0.0,0.0,0.0,0.0,0.0,0.0,0.0,0.0,0.0,0.0,0.0,0.0,0.0,0.0,0.0,0.0,0.0,0.0,0.0,0.0,0.0,0.0,0.0,0.0,0.0,0.0,0.0,0.0,0.0,0.0,0.0,0.0,0.0,0.0,0.0,0.0,0.0,0.0,0.0,0.0,0.0,0.0,0.0,0.0,0.0,0.0,0.0,0.0,0.0,0.0,0.0,0.0,0.0,0.0,0.0,0.0,0.0,0.0,0.0,0.0,0.0,0.0,0.0,0.0,0.0,0.0,0.0,0.0,0.0,0.0,0.0,0.0,0.0,0.0,0.0,0.0,-0.85,-0.8909,-0.9241,-0.9603,-0.9954,-0.9479,-0.9296,0.0,0.0,0.0,0.0,0.0,0.0,0.0,0.0,0.0,0.0,0.0,0.0,0.0,0.0,0.0,0.0,0.0,0.0,0.0,0.0,0.0,0.0,0.0,0.0,0.0,0.0,0.0,0.0,0.0,0.0,0.0,0.0,0.0,0.0,0.0,0.0,0.0,0.0,0.0,0.0,0.0,0.0,0.0,0.0,0.0,0.0,0.0,0.0,0.0,0.0,0.0,0.0,0.0,0.0,0.0,0.0,0.0,0.0,0.0,0.0,0.0,0.0,0.0,0.0,0.0,0.0,0.0,0.0,0.0,0.0,0.0,0.0,0.0,0.0,0.0,0.0,0.0,0.0,0.0,0.0,0.0,0.0,0.0,0.0,0.0,0.0,0.0,0.0,0.0,0.0,0.0,0.0,0.0,0.0,0.0,0.0,0.0,0.0,0.0,0.0,0.0,0.0,0.0,0.0,0.0,0.0,0.0,0.0,-0.8585,-0.9122,-0.9325,-0.9603,-0.9995,-0.9543,-0.9489,0.0,0.0,0.0,0.0,0.0,0.0,0.0,0.0,0.0,0.0,0.0,0.0,0.0,0.0,0.0,0.0,0.0,0.0,0.0,0.0,0.0,0.0,0.0,0.0,0.0,0.0,0.0,0.0,0.0,0.0,0.0,0.0,0.0,0.0,0.0,0.0,0.0,0.0,0.0,0.0,0.0,0.0,0.0,0.0,0.0,0.0,0.0,0.0,-1.4062,0.0,0.0,0.0,0.0,0.0,0.0,0.0,0.0,0.0,0.0,0.0,0.0,0.0,0.0,0.0,0.0,0.0,0.0,0.0,0.0,0.0,0.0,0.0,0.0,0.0,0.0,0.0,0.0,0.0,0.0,0.0,0.0,0.0,0.0,0.0,0.0,0.0,0.0,0.0,0.0,0.0,0.0,0.0,0.0,0.0,0.0,0.0,0.0,0.0,0.0,0.0,0.0,0.0,0.0,0.0,0.0,0.0,0.0,0.0,-0.8448,-0.9183,-0.9286,-0.9521,-0.9947,-0.9539,-0.9548,0.0,0.0,0.0,0.0,0.0,0.0,0.0,0.0,0.0,0.0,0.0,0.0,0.0,0.0,0.0,0.0,0.0,0.0,0.0,0.0,0.0,0.0,0.0,0.0,0.0,0.0,0.0,0.0,0.0,0.0,0.0,0.0,0.0,0.0,0.0,0.0,0.0,0.0,0.0,0.0,0.0,0.0,0.0,0.0,0.0,0.0,0.0,0.0,0.0,0.0,0.0,0.0,0.0,0.0,0.0,0.0,0.0,0.0,0.0,0.0,0.0,0.0,0.0,0.0,0.0,0.0,0.0,0.0,0.0,0.0,0.0,0.0,0.0,0.0,0.0,0.0,0.0,0.0,0.0,0.0,0.0,0.0,0.0,0.0,0.0,0.0,0.0,0.0,0.0,0.0,0.0,0.0,0.0,0.0,0.0,0.0,0.0,0.0,0.0,0.0,0.0,0.0,0.0,0.0,0.0,0.0,0.0,-0.7905,-0.8336,-0.9154,-0.9178,-0.9476,-0.9962,-0.9547,-0.9552,-1.0052,0.0,0.0,0.0,0.0,0.0,0.0,0.0,0.0,0.0,0.0,0.0,0.0,0.0,0.0,0.0,0.0,0.0,0.0,0.0,0.0,0.0,0.0,0.0,0.0,0.0,0.0,0.0,0.0,0.0,0.0,0.0,0.0,0.0,0.0,0.0,0.0,0.0,0.0,-1.4332,-1.4104,0.0,0.0,0.0,0.0,0.0,0.0,0.0,0.0,-1.3615,0.0,0.0,0.0,0.0,0.0,0.0,0.0,0.0,0.0,0.0,0.0,0.0,0.0,0.0,0.0,0.0,0.0,0.0,0.0,0.0,0.0,0.0,0.0,0.0,0.0,0.0,0.0,0.0,0.0,0.0,0.0,0.0,0.0,0.0,0.0,0.0,0.0,0.0,0.0,0.0,0.0,0.0,0.0,0.0,0.0,0.0,0.0,0.0,0.0,0.0,0.0,0.0,0.0,0.0,0.0,0.0,-0.7895,-0.7905,-0.8329,-0.9164,-0.9178,-0.9446,-0.9954,-0.9543,-0.9548,-1.0066,0.0,0.0,0.0,0.0,0.0,0.0,0.0,0.0,0.0,0.0,0.0,0.0,0.0,0.0,0.0,0.0,0.0,0.0,0.0,0.0,0.0,0.0,0.0,0.0,0.0,0.0,0.0,0.0,0.0,0.0,0.0,0.0,0.0,0.0,0.0,0.0,0.0,0.0,0.0,-1.3873,-1.3797,0.0,0.0,0.0,0.0,0.0,0.0,0.0,0.0,-1.3615,0.0,0.0,0.0,0.0,0.0,0.0,0.0,0.0,0.0,0.0,0.0,0.0,0.0,0.0,0.0,0.0,0.0,0.0,0.0,0.0,0.0,0.0,0.0,0.0,0.0,0.0,0.0,0.0,0.0,0.0,0.0,0.0,0.0,0.0,0.0,0.0,0.0,0.0,0.0,0.0,0.0,0.0,0.0,0.0,0.0,0.0,0.0,0.0,0.0,0.0,0.0,0.0,0.0,0.0,0.0,-0.7862,-0.7905,-0.8329,-0.9157,-0.9256,-0.9528,-0.9988,-0.9615,-0.9613,0.0,0.0,0.0,0.0,0.0,0.0,0.0,0.0,0.0,0.0,0.0,0.0,0.0,0.0,0.0,0.0,0.0,0.0,0.0,0.0,0.0,0.0,0.0,0.0,0.0,0.0,0.0,0.0,0.0,0.0,0.0,0.0,0.0,0.0,0.0,0.0,0.0,0.0,0.0,0.0,-1.3721,-1.3668,-1.3615,0.0,0.0,0.0,0.0,0.0,0.0,-1.3615,-1.3615,0.0,0.0,0.0,0.0,0.0,0.0,0.0,0.0,0.0,0.0,0.0,0.0,0.0,0.0,0.0,0.0,0.0,0.0,0.0,0.0,0.0,0.0,0.0,0.0,0.0,0.0,0.0,0.0,0.0,0.0,0.0,0.0,0.0,0.0,0.0,0.0,0.0,0.0,0.0,0.0,0.0,0.0,0.0,0.0,0.0,0.0,0.0,0.0,0.0,0.0,0.0,0.0,0.0,0.0,0.0,-0.7806,-0.7879,-0.8302,-0.9096,-0.931,-0.9599,-0.9958,-0.9687,-0.9708,0.0,0.0,0.0,0.0,0.0,0.0,0.0,0.0,0.0,0.0,0.0,0.0,0.0,0.0,0.0,0.0,0.0,0.0,0.0,0.0,0.0,0.0,0.0,0.0,0.0,0.0,0.0,0.0,0.0,0.0,0.0,0.0,0.0,0.0,0.0,0.0,0.0,0.0,0.0,0.0,0.0,-1.3592,-1.3568,-1.3573,0.0,0.0,0.0,0.0,-1.3615,-1.3615,0.0,0.0,0.0,0.0,0.0,0.0,0.0,0.0,0.0,0.0,0.0,0.0,0.0,0.0,0.0,0.0,0.0,0.0,0.0,0.0,0.0,0.0,0.0,0.0,0.0,0.0,0.0,0.0,0.0,0.0,0.0,0.0,0.0,0.0,0.0,0.0,0.0,0.0,0.0,0.0,0.0,0.0,0.0,0.0,0.0,0.0,0.0,0.0,0.0,0.0,0.0,0.0,0.0,0.0,0.0,0.0,-0.7521,-0.7762,-0.8207,-0.883,-0.9219,-0.9599,-0.9995,-0.9679,-0.969,0.0,0.0,0.0,0.0,0.0,0.0,0.0,0.0,0.0,0.0,0.0,0.0,0.0,0.0,0.0,0.0,0.0,0.0,0.0,0.0,0.0,0.0,0.0,0.0,0.0,0.0,0.0,0.0,0.0,0.0,0.0,0.0,0.0,0.0,0.0,0.0,0.0,0.0,0.0,0.0,0.0,-1.3568,-1.3443,-1.352,-1.3568,0.0,0.0,-1.3615,-1.3615,-1.3615,0.0,0.0,0.0,0.0,0.0,0.0,0.0,0.0,0.0,0.0,0.0,0.0,0.0,0.0,0.0,0.0,0.0,0.0,0.0,0.0,0.0,0.0,0.0,0.0,0.0,0.0,0.0,0.0,0.0,0.0,0.0,0.0,0.0,0.0,0.0,0.0,0.0,0.0,0.0,0.0,0.0,0.0,0.0,0.0,0.0,0.0,0.0,0.0,0.0,0.0,0.0,0.0,0.0,0.0,0.0,-0.6737,-0.7467,-0.7776,-0.8194,-0.8774,-0.9252,-0.9651,-0.9973,-0.9751,-0.9777,0.0,0.0,0.0,0.0,0.0,0.0,0.0,0.0,0.0,0.0,0.0,0.0,0.0,0.0,0.0,0.0,0.0,0.0,0.0,0.0,0.0,0.0,0.0,0.0,0.0,0.0,0.0,0.0,0.0,0.0,0.0,0.0,0.0,0.0,0.0,0.0,0.0,0.0,0.0,0.0,0.0,0.0,-1.3314,-1.3319,0.0,0.0,0.0,-1.3362,-1.3362,0.0,0.0,0.0,0.0,0.0,0.0,0.0,0.0,0.0,0.0,0.0,0.0,0.0,0.0,0.0,0.0,0.0,0.0,0.0,0.0,0.0,0.0,0.0,0.0,0.0,0.0,0.0,0.0,0.0,0.0,0.0,0.0,0.0,0.0,0.0,0.0,0.0,0.0,0.0,0.0,0.0,0.0,0.0,0.0,0.0,0.0,0.0,0.0,0.0,0.0,0.0,0.0,0.0,0.0,0.0,0.0,0.0,-0.7496,-0.7749,-0.819,-0.8778,-0.9322,-0.9725,-0.9988,-0.9799,0.0,0.0,0.0,0.0,0.0,0.0,0.0,0.0,0.0,0.0,0.0,0.0,0.0,0.0,0.0,0.0,0.0,0.0,0.0,0.0,0.0,0.0,0.0,0.0,0.0,0.0,0.0,-1.1922,0.0,0.0,0.0,0.0,0.0,0.0,0.0,0.0,0.0,0.0,0.0,0.0,0.0,0.0,-1.329,-1.318,-1.3175,-1.3189,0.0,0.0,-1.3218,-1.3218,-1.3218,-1.3218,0.0,0.0,0.0,0.0,0.0,0.0,0.0,0.0,0.0,0.0,0.0,0.0,0.0,0.0,0.0,0.0,0.0,0.0,0.0,0.0,0.0,0.0,0.0,0.0,0.0,0.0,0.0,0.0,0.0,0.0,0.0,0.0,0.0,0.0,0.0,0.0,0.0,0.0,0.0,0.0,0.0,0.0,0.0,0.0,0.0,0.0,0.0,0.0,0.0,0.0,0.0,0.0,0.0,0.0,0.0,-0.7486,-0.7772,-0.819,-0.8778,-0.9332,-0.9725,-0.9962,-0.9803,-0.9819,0.0,0.0,0.0,0.0,0.0,0.0,0.0,0.0,0.0,0.0,0.0,0.0,0.0,0.0,0.0,0.0,0.0,0.0,0.0,0.0,0.0,0.0,0.0,0.0,0.0,0.0,0.0,0.0,0.0,0.0,0.0,0.0,0.0,0.0,0.0,0.0,0.0,0.0,0.0,0.0,0.0,-1.318,-1.3123,-1.3161,-1.318,0.0,0.0,-1.3218,-1.3218,-1.3218,-1.3218,-1.3218,0.0,0.0,0.0,0.0,0.0,0.0,0.0,0.0,0.0,0.0,0.0,0.0,0.0,0.0,0.0,0.0,0.0,0.0,0.0,0.0,0.0,0.0,0.0,0.0,0.0,0.0,0.0,0.0,0.0,0.0,0.0,0.0,0.0,0.0,0.0,0.0,0.0,0.0,0.0,0.0,0.0,0.0,0.0,0.0,0.0,0.0,0.0,0.0,0.0,0.0,0.0,0.0,0.0,-0.6626,-0.7471,-0.7776,-0.819,-0.8774,-0.923,-0.9699,-1.0158,-0.9783,-0.9773,0.0,0.0,0.0,0.0,0.0,0.0,0.0,0.0,0.0,0.0,0.0,0.0,0.0,0.0,0.0,0.0,0.0,0.0,0.0,0.0,0.0,0.0,0.0,0.0,0.0,0.0,0.0,0.0,-1.1879,-1.1754,-1.1349,0.0,0.0,0.0,0.0,0.0,0.0,0.0,0.0,0.0,0.0,-1.3089,-1.3007,-1.2988,0.0,0.0,-1.2992,-1.3007,-1.3007,-1.3007,-1.3002,-1.3007,-1.3002,0.0,0.0,0.0,0.0,0.0,0.0,0.0,0.0,0.0,0.0,0.0,0.0,0.0,0.0,0.0,0.0,0.0,0.0,0.0,0.0,0.0,0.0,0.0,0.0,0.0,0.0,0.0,0.0,0.0,0.0,0.0,0.0,0.0,0.0,0.0,0.0,0.0,0.0,0.0,0.0,0.0,0.0,0.0,0.0,0.0,0.0,0.0,0.0,0.0,0.0,0.0,0.0,-0.6653,-0.7589,-0.7819,-0.821,-0.8842,-0.9199,-0.9651,-1.0124,-0.9834,-0.9861,0.0,0.0,0.0,0.0,0.0,0.0,0.0,0.0,0.0,0.0,0.0,0.0,0.0,0.0,0.0,0.0,0.0,0.0,0.0,0.0,0.0,0.0,0.0,0.0,0.0,0.0,0.0,0.0,-1.1712,-1.1463,-1.1155,0.0,0.0,0.0,0.0,0.0,0.0,0.0,0.0,0.0,0.0,-1.3007,-1.29,-1.291,-1.291,-1.291,-1.291,-1.291,-1.291,-1.291,-1.291,-1.291,0.0,0.0,0.0,0.0,0.0,0.0,0.0,0.0,0.0,0.0,0.0,0.0,0.0,0.0,0.0,0.0,0.0,0.0,0.0,0.0,0.0,0.0,0.0,0.0,0.0,0.0,0.0,0.0,0.0,0.0,-0.7002,0.0,0.0,0.0,0.0,0.0,0.0,0.0,0.0,0.0,0.0,0.0,0.0,0.0,0.0,0.0,0.0,0.0,0.0,0.0,0.0,0.0,0.0,-0.676,-0.7845,-0.7895,-0.8259,-0.8974,-0.926,-0.9521,-0.9814,-0.9977,-1.0081,-1.0088,0.0,0.0,0.0,0.0,0.0,0.0,0.0,0.0,0.0,0.0,0.0,0.0,0.0,0.0,0.0,0.0,0.0,0.0,0.0,0.0,0.0,0.0,0.0,0.0,0.0,0.0,-1.1541,-1.1271,-1.1071,0.0,0.0,0.0,0.0,0.0,0.0,0.0,0.0,0.0,0.0,-1.2973,-1.291,-1.291,-1.291,-1.291,-1.291,-1.291,-1.291,-1.291,-1.291,-1.291,0.0,0.0,0.0,0.0,0.0,0.0,0.0,0.0,0.0,0.0,0.0,0.0,0.0,0.0,0.0,0.0,0.0,0.0,0.0,0.0,0.0,0.0,0.0,0.0,0.0,0.0,0.0,-0.7759,-0.7608,0.0,0.0,0.0,0.0,0.0,0.0,0.0,0.0,0.0,0.0,0.0,-0.7216,-0.7236,0.0,0.0,0.0,0.0,0.0,0.0,0.0,0.0,0.0,0.0,0.0,0.0,-0.6934,-0.7856,-0.7905,-0.8312,-0.9112,-0.9211,-0.9524,-1.0106,-1.0014,-1.0005,-1.0092,0.0,0.0,0.0,0.0,0.0,0.0,0.0,0.0,0.0,0.0,0.0,0.0,0.0,0.0,0.0,0.0,0.0,0.0,0.0,0.0,0.0,0.0,0.0,0.0,0.0,-1.1485,0.0,0.0,0.0,0.0,0.0,0.0,0.0,0.0,0.0,0.0,0.0,-1.3085,-1.2983,-1.2925,-1.291,-1.291,-1.291,-1.291,0.0,0.0,0.0,0.0,0.0,0.0,0.0,0.0,0.0,0.0,0.0,0.0,0.0,0.0,-1.2421,-1.2377,-1.2328,-1.2249,-1.2076,0.0,0.0,0.0,0.0,0.0,0.0,0.0,0.0,0.0,0.0,0.0,0.0,0.0,0.0,-0.7576,0.0,-0.7219,0.0,0.0,0.0,0.0,0.0,0.0,0.0,0.0,-0.7395,-0.7398,-0.7395,-0.7395,-0.7304,0.0,-0.7156,-0.7077,0.0,0.0,0.0,0.0,0.0,0.0,0.0,0.0,-0.711,-0.7872,-0.8012,-0.8416,-0.9105,-0.9188,-0.9502,-1.011,-1.0166,-1.026,-1.048,-1.0202,-0.9825,0.0,0.0,0.0,0.0,0.0,0.0,0.0,0.0,0.0,0.0,0.0,0.0,0.0,0.0,0.0,0.0,0.0,0.0,0.0,0.0,0.0,0.0,0.0,-1.1327,0.0,0.0,0.0,0.0,0.0,0.0,0.0,0.0,0.0,-1.195,-1.2572,-1.3007,-1.2905,-1.291,-1.291,-1.291,0.0,0.0,0.0,0.0,0.0,0.0,0.0,-1.291,-1.291,-1.291,-1.2881,-1.2832,-1.2681,-1.2505,-1.2328,0.0,0.0,-1.2234,-1.218,-1.2105,-1.1952,-1.1823,-1.1728,-1.1644,-1.1498,-1.1343,0.0,0.0,0.0,0.0,0.0,0.0,0.0,0.0,-0.7217,-0.7254,0.0,-0.7188,0.0,0.0,0.0,0.0,0.0,-0.7293,0.0,0.0,-0.7273,-0.723,-0.7236,-0.7243,-0.7255,-0.7321,-0.7321,-0.7374,-0.7434,-0.6779,0.0,0.0,0.0,0.0,0.0,0.0,-0.7316,-0.7915,-0.8227,-0.8587,-0.8995,-0.9136,-0.9394,-0.984,-1.0384,-1.0848,-1.1134,-1.0428,-1.0038,-1.0171,-0.9528,0.0,0.0,0.0,0.0,0.0,0.0,0.0,0.0,0.0,0.0,0.0,0.0,0.0,0.0,0.0,0.0,0.0,0.0,0.0,0.0,-1.1526,0.0,0.0,0.0,0.0,0.0,0.0,0.0,0.0,0.0,0.0,-1.2431,-1.2712,-1.2905,-1.291,0.0,0.0,0.0,0.0,-1.291,-1.291,-1.291,-1.291,-1.291,-1.291,-1.291,-1.291,0.0,0.0,-1.27,-1.2475,-1.2303,-1.2283,-1.218,-1.2076,-1.2101,-1.2002,-1.1902,-1.1873,-1.1669,-1.1528,-1.1477,-1.1301,-1.1129,-0.4653,0.0,0.0,0.0,0.0,-0.6322,-0.6596,-0.6942,-0.694,-0.6996,-0.7073,-0.7005,0.0,0.0,0.0,0.0,0.0,0.0,-0.7462,-0.7725,-0.7725,-0.7702,-0.7699,-0.7696,-0.7648,-0.7511,-0.7514,-0.7465,-0.7347,-0.7164,-0.7017,-0.6994,0.0,0.0,0.0,0.0,-0.7662,-0.8213,-0.8362,-0.8638,-0.9155,-0.9188,-0.955,-1.0286,-1.0851,-1.1161,-1.1272,-1.125,-1.0911,-1.0166,-1.0059,0.0,0.0,0.0,0.0,0.0,0.0,0.0,0.0,0.0,0.0,0.0,0.0,0.0,0.0,0.0,0.0,0.0,0.0,0.0,-1.136,-1.1365,-1.1327,0.0,0.0,0.0,0.0,0.0,0.0,0.0,0.0,0.0,-1.2949,-1.3034,-1.3007,0.0,0.0,-1.291,-1.291,-1.291,-1.291,-1.291,-1.291,0.0,-1.291,-1.291,-1.291,-1.291,-1.2808,-1.2705,-1.2455,-1.2352,-1.2249,-1.217,-1.2026,-1.1952,-1.1947,-1.1923,-1.1848,-1.1648,-1.1548,-1.1448,-1.1242,-1.1146,-1.1078,-0.4075,-0.4482,-0.4871,-0.5175,-0.5471,-0.5744,-0.6043,-0.6349,-0.6433,-0.6545,-0.6707,-0.6707,-0.6711,-0.6722,-0.6803,0.0,0.0,0.0,-0.7506,-0.7765,-0.7785,-0.7815,-0.7815,-0.7875,-0.7844,-0.7713,-0.7733,-0.768,-0.755,-0.749,-0.7452,-0.7463,0.0,0.0,-0.7649,-0.7796,-0.803,-0.8385,-0.8516,-0.8753,-0.9178,-0.9398,-0.9844,-1.0492,-1.1023,-1.1344,-1.1462,-1.1672,-1.1424,-1.0598,-1.0574,-1.0218,0.0,0.0,0.0,0.0,0.0,0.0,0.0,0.0,0.0,0.0,0.0,-0.8816,0.0,0.0,0.0,0.0,-1.1208,-1.1553,-1.167,-1.1705,0.0,0.0,0.0,0.0,0.0,0.0,0.0,-1.2976,-1.3212,-1.3369,-1.3432,-1.3392,-1.3287,-1.3055,-1.3026,-1.3007,-1.3031,0.0,-1.2983,-1.2983,-1.2929,-1.291,-1.291,-1.291,-1.2881,-1.2832,-1.2656,-1.2505,-1.2357,-1.2249,-1.218,-1.2047,-1.1947,-1.1873,-1.1748,-1.1748,-1.1698,-1.1523,-1.1423,-1.1301,-1.112,-1.1027,-1.0918,-0.3663,-0.3852,-0.4543,-0.4814,-0.4899,-0.5117,-0.5418,-0.5744,-0.5748,-0.5966,-0.6327,-0.6354,-0.649,-0.6674,-0.6953,0.0,-0.7263,-0.7413,-0.7467,-0.7491,-0.7622,-0.7673,-0.7696,-0.7815,-0.7901,-0.7872,-0.7904,-0.7904,-0.7886,-0.7785,-0.7714,-0.7755,-0.775,-0.7805,-0.7928,-0.8237,-0.8412,-0.8435,-0.8667,-0.8906,-0.9188,-0.971,-1.015,-1.0492,-1.1023,-1.1427,-1.1681,-1.1814,-1.1662,-1.1279,-1.1053,-1.0626,-0.9948,0.0,0.0,0.0,0.0,0.0,0.0,0.0,0.0,0.0,0.0,0.0,0.0,0.0,0.0,0.0,-1.1439,0.0,-1.2415,-1.2375,0.0,0.0,0.0,-1.2785,-1.2712,-1.3194,-1.3513,-1.3405,0.0,0.0,-1.3863,-1.3839,-1.3716,-1.3343,-1.3261,-1.3218,-1.3218,-1.3147,-1.3099,-1.3099,-1.2992,-1.2929,-1.2934,-1.291,-1.2861,-1.2735,-1.2509,-1.2352,-1.2298,-1.218,-1.2051,-1.1927,-1.1868,-1.1798,-1.1548,-1.1502,-1.1473,-1.1444,-1.1272,-1.1091,-1.1053,-1.0875,-1.0718,-0.361,-0.3692,-0.3935,-0.4267,-0.4598,-0.4655,-0.4903,-0.526,-0.526,-0.5532,-0.5939,-0.5937,-0.6132,-0.649,-0.6707,-0.6871,-0.6987,-0.7039,-0.7147,-0.7341,-0.7392,-0.744,-0.7545,-0.7676,-0.7726,-0.7756,-0.7845,-0.7904,-0.7901,-0.7865,-0.794,-0.8089,-0.8082,-0.8066,-0.808,-0.828,-0.8509,-0.8707,-0.8771,-0.8933,-0.9211,-0.9736,-1.015,-1.0496,-1.1023,-1.1473,-1.1848,-1.2181,-1.2158,-1.1838,-1.1579,-1.1183,-1.067,-1.0108,0.0,0.0,0.0,0.0,0.0,0.0,0.0,0.0,0.0,-0.9571,-1.0148,0.0,-1.0728,0.0,-1.1942,-1.2541,-1.2899,-1.3081,0.0,0.0,-1.3181,-1.3305,-1.364,-1.3806,-1.3972,-1.4268,-1.4411,-1.443,-1.4262,-1.4262,-1.4228,-1.4111,-1.3676,-1.3362,-1.3343,-1.3242,-1.318,-1.318,-1.3132,-1.3123,-1.3056,-1.2954,-1.2847,-1.2735,-1.2558,-1.2426,-1.2303,-1.2101,-1.1932,-1.1898,-1.1723,-1.1569,-1.1494,-1.1347,-1.1196,-1.12,-1.115,-1.1023,-1.0841,-1.0744,-1.0616,-0.3613,-0.3612,-0.3662,-0.391,-0.4187,-0.4268,-0.4489,-0.4822,-0.482,-0.5069,-0.5504,-0.5641,-0.5887,-0.6132,-0.6295,-0.646,-0.6571,-0.6655,-0.6768,-0.6904,-0.7068,-0.7201,-0.733,-0.7515,-0.7646,-0.7696,-0.7815,-0.7904,-0.7904,-0.7904,-0.7981,-0.8062,-0.8168,-0.8167,-0.8168,-0.8371,-0.8556,-0.8715,-0.8877,-0.908,-0.9283,-0.9758,-1.018,-1.0594,-1.1044,-1.1477,-1.1794,-1.2254,-1.2334,-1.1935,-1.1901,-1.1562,-1.0942,-1.0498,-1.0148,0.0,0.0,0.0,0.0,0.0,0.0,0.0,0.0,0.0,0.0,0.0,-1.1437,-1.2182,-1.2658,-1.3105,-1.3545,-1.3738,-1.386,-1.4015,-1.4065,-1.4184,-1.4461,-1.4534,-1.4648,-1.4806,-1.4874,-1.4874,-1.472,-1.4691,-1.4697,-1.464,-1.4264,-1.3912,-1.3771,-1.361,-1.3462,-1.3472,-1.3362,-1.3242,-1.3152,-1.3041,-1.292,-1.2803,-1.2622,-1.2451,-1.2328,-1.2076,-1.1868,-1.1823,-1.1648,-1.1452,-1.1352,-1.1226,-1.1074,-1.0951,-1.0926,-1.0875,-1.0752,-1.062,-1.047,-0.3557,-0.3557,-0.3613,-0.3662,-0.3771,-0.3884,-0.4133,-0.4434,-0.4434,-0.4655,-0.5042,-0.5401,-0.5616,-0.5719,-0.5834,-0.5998,-0.6125,-0.6245,-0.6327,-0.6381,-0.669,-0.6904,-0.7087,-0.7324,-0.7515,-0.767,-0.7815,-0.7875,-0.7904,-0.7904,-0.7904,-0.7904,-0.8091,-0.8168,-0.8168,-0.8421,-0.8573,-0.86,-0.8995,-0.9286,-0.9383,-0.9784,-1.0231,-1.0693,-1.1099,-1.1418,-1.1719,-1.2224,-1.2305,-1.195,-1.2093,-1.1857,-1.1133,-1.102,-1.0699,0.0,-1.0032,0.0,0.0,0.0,0.0,0.0,0.0,0.0,0.0,-1.1508,-1.2404,-1.3285,-1.3372,-1.3625,-1.424,-1.4334,-1.4505,-1.4937,-1.5074,-1.5153,-1.5153,-1.5278,-1.5306,-1.5182,-1.5284,-1.5323,-1.5204,-1.5176,-1.5136,-1.5006,-1.4823,-1.4605,-1.4368,-1.4041,-1.3839,-1.3815,-1.3621,-1.3415,-1.3319,-1.3161,-1.3026,-1.2939,-1.2725,-1.25,-1.2357,-1.2105,-1.1873,-1.1723,-1.1573,-1.1398,-1.1146,-1.107,-1.0977,-1.0748,-1.0675,-1.065,-1.062,-1.047,-1.029,-0.3444,-0.3444,-0.3557,-0.361,-0.3638,-0.3666,-0.3833,-0.4104,-0.4107,-0.4298,-0.4627,-0.5014,-0.5209,-0.5234,-0.5365,-0.5532,-0.5698,-0.5732,-0.5923,-0.623,-0.6282,-0.6556,-0.6931,-0.7085,-0.73,-0.7542,-0.7678,-0.7785,-0.7904,-0.7904,-0.7904,-0.7904,-0.7952,-0.7952,-0.7981,0.0,0.0,0.0,-0.9001,-0.926,-0.9413,-0.9788,-1.0235,-1.0697,-1.1099,0.0,-1.1852,-1.2278,-1.2516,-1.2527,-1.2323,0.0,0.0,0.0,0.0,0.0,0.0,0.0,0.0,0.0,0.0,0.0,-1.1871,-1.1951,-1.168,-1.2285,-1.2997,-1.3635,-1.3804,-1.4158,-1.4845,-1.5032,-1.5173,-1.5355,-1.5395,-1.5424,-1.5424,-1.5525,-1.5592,-1.5598,-1.5665,-1.5709,-1.5675,-1.5608,-1.557,-1.5503,-1.5249,-1.5011,-1.492,-1.446,-1.4093,-1.3962,-1.3839,-1.3739,-1.3697,-1.3467,-1.33,-1.3156,-1.2983,-1.2754,-1.2505,-1.2224,-1.1977,-1.1744,-1.1502,-1.1301,-1.1124,-1.0913,-1.0794,-1.0701,-1.0518,-1.0371,-1.0371,-1.0346,-1.0217,-0.3246,0.0,-0.3444,-0.35,0.0,-0.3557,-0.3666,-0.3803,-0.3884,-0.4078,-0.4356,-0.4686,-0.4849,-0.4906,-0.5036,-0.5146,-0.526,-0.5403,-0.5542,-0.5766,-0.593,-0.6203,-0.6556,-0.668,-0.6923,-0.7303,-0.7512,-0.7649,-0.7785,-0.7875,-0.7904,-0.7904,-0.7904,-0.7904,-0.7904,-0.8088,-0.8348,-0.86,-0.8919,-0.9237,-0.9488,-0.9807,-1.0261,-1.0803,-1.1124,0.0,0.0,0.0,0.0,0.0,0.0,0.0,0.0,0.0,0.0,-1.1616,-1.1601,-1.1628,-1.1693,-1.1819,-1.1965,-1.2104,-1.2651,-1.2931,-1.2701,-1.308,-1.3597,-1.4239,-1.4457,-1.4721,-1.5153,-1.5396,-1.5531,-1.5586,-1.5631,-1.5669,-1.573,-1.5802,-1.5887,-1.5937,-1.5981,-1.5997,-1.5991,-1.5975,-1.5871,-1.576,-1.5586,-1.5385,-1.5176,-1.48,-1.447,-1.4319,-1.4244,-1.4168,-1.3999,-1.3834,-1.3639,-1.3415,-1.3142,-1.2895,-1.273,-1.2377,-1.2031,-1.1823,-1.1573,-1.1322,-1.1124,-1.0951,-1.0777,-1.062,-1.0449,-1.0235,-1.0106,-1.0054,-1.0003,-0.302,-0.3048,-0.3245,-0.3331,-0.3359,-0.3473,-0.3528,-0.3581,0.0,0.0,0.0,-0.4327,-0.4467,-0.4605,-0.468,-0.4791,-0.4842,-0.5046,-0.5215,-0.5272,-0.5574,-0.5845,-0.6146,-0.6302,-0.6598,-0.7031,-0.73,-0.7491,-0.7643,-0.7785,-0.7845,-0.7875,-0.7875,-0.7904,-0.7904,-0.8062,-0.8271,-0.8521,-0.8847,-0.9181,-0.9562,-0.9836,-1.0283,-1.0845,-1.115,-1.1452,-1.1728,-1.2224,-1.2505,-1.2524,-1.2754,-1.2744,-1.2345,-1.232,-1.2178,-1.1848,-1.1854,-1.193,-1.2019,-1.2142,-1.2339,-1.265,-1.3311,-1.3699,-1.3693,-1.385,-1.4189,-1.4789,-1.4989,-1.5153,-1.5335,-1.5553,-1.5709,-1.5738,-1.5776,-1.5875,-1.5966,-1.6038,-1.6116,-1.6222,-1.6237,-1.6253,-1.6237,-1.6237,-1.6166,-1.5969,-1.5852,-1.5732,-1.5396,-1.5068,-1.4788,-1.4713,-1.4667,-1.4587,-1.4391,-1.4192,-1.4004,-1.3763,-1.3382,-1.3079,-1.291,-1.2573,-1.22,-1.2026,-1.1744,-1.1473,-1.1196,-1.0998,-1.0824,-1.0569,-1.0342,-1.014,-0.9844,-0.9744,-0.9718,-0.2661,-0.2772,-0.2909,-0.3048,-0.3132,-0.316,-0.3274,-0.3441,-0.3687,-0.3823,-0.3879,-0.4021,-0.4078,-0.4079,-0.4132,-0.4268,-0.4546,-0.4603,-0.4794,-0.5128,-0.5297,-0.5542,-0.5859,-0.6116,-0.6413,-0.6758,-0.7031,-0.7222,-0.7362,-0.7595,-0.7726,-0.7756,-0.7845,-0.7904,-0.7904,-0.7928,-0.8035,-0.8245,-0.8748,-0.9136,-0.9409,-0.981,-1.0231,-1.0718,-1.1099,-1.1469,-1.1852,-1.2274,-1.2558,-1.2652,-1.2827,-1.2876,-1.2827,-1.2807,-1.2783,-1.2729,-1.282,-1.2892,-1.2906,-1.3204,-1.3588,-1.4062,-1.4322,-1.4458,-1.4452,-1.4475,-1.4607,-1.4869,-1.5011,-1.5204,-1.543,-1.5614,-1.5738,-1.5792,-1.5897,-1.5994,-1.6016,-1.6191,-1.6334,-1.6377,-1.6414,-1.647,-1.6442,-1.6392,-1.6355,-1.629,-1.61,-1.5897,-1.5659,-1.5295,-1.5062,-1.5045,-1.5023,-1.4966,-1.48,-1.4633,-1.4396,-1.4152,-1.3758,-1.343,-1.3228,-1.2958,-1.2642,-1.2303,-1.2022,-1.1723,-1.1347,-1.1074,-1.0824,-1.0569,-1.0286,-0.9969,-0.9703,-0.9569,-0.9465,-0.2268,-0.2353,-0.2574,-0.277,-0.2884,-0.302,-0.3132,-0.3242,-0.3354,-0.3522,-0.369,-0.3776,-0.3777,-0.3776,-0.3856,-0.3965,-0.4128,-0.4272,-0.4437,-0.4632,-0.4855,-0.5101,-0.531,-0.5597,-0.5866,-0.6209,-0.6544,-0.6817,-0.7006,-0.7308,-0.7491,-0.7488,-0.7681,-0.7815,-0.7904,-0.7904,-0.8011,-0.8192,-0.8643,-0.9012,-0.929,-0.9758,-1.018,-1.0565,-1.0968,-1.1347,-1.1678,-1.2076,-1.2382,-1.2578,-1.2735,-1.2832,-1.291,-1.291,-1.291,-1.291,-1.3032,-1.3143,-1.3272,-1.3739,-1.414,-1.4384,-1.4575,-1.4765,-1.4869,-1.4806,-1.4834,-1.4983,-1.5193,-1.5395,-1.5592,-1.5703,-1.5792,-1.5897,-1.5979,-1.6066,-1.6191,-1.6306,-1.6414,-1.6457,-1.6479,-1.6506,-1.6506,-1.6472,-1.6436,-1.6392,-1.6225,-1.605,-1.5987,-1.5808,-1.5586,-1.5401,-1.5305,-1.5232,-1.5125,-1.4926,-1.4697,-1.4507,-1.4098,-1.3792,-1.3544,-1.3286,-1.2924,-1.2569,-1.2303,-1.1977,-1.1598,-1.1221,-1.0922,-1.0645,-1.0253,-0.9936,-0.9673,-0.9387,-0.9181,-0.1847,-0.1932,-0.2214,-0.2437,-0.2606,-0.2882,-0.302,-0.302,-0.3076,-0.3217,-0.3445,-0.3473,-0.3473,-0.3498,-0.3604,-0.3685,-0.3742,-0.3944,-0.4082,-0.4135,-0.4441,-0.4658,-0.4763,-0.5075,-0.5344,-0.5639,-0.605,-0.6352,-0.6542,-0.6955,-0.7206,-0.7311,-0.7568,-0.7756,-0.7845,-0.7875,-0.7981,-0.8141,-0.856,-0.8877,-0.9162,-0.9658,-1.0098,-1.0441,-1.0841,-1.1196,-1.1498,-1.1898,-1.2229,-1.2475,-1.2632,-1.2754,-1.2881,-1.291,-1.2905,-1.2929,-1.3075,-1.3272,-1.3581,-1.4134,-1.4494,-1.4569,-1.48,-1.5046,-1.521,-1.5142,-1.5108,-1.5193,-1.5401,-1.5586,-1.5687,-1.5798,-1.5869,-1.5994,-1.606,-1.6169,-1.6355,-1.6426,-1.6436,-1.6522,-1.6549,-1.6543,-1.6586,-1.6592,-1.6586,-1.6528,-1.6405,-1.6331,-1.6315,-1.6281,-1.6072,-1.5846,-1.5691,-1.558,-1.5435,-1.5221,-1.5006,-1.4834,-1.4459,-1.4174,-1.3934,-1.3639,-1.3276,-1.2924,-1.2632,-1.2314,-1.1927,-1.1528,-1.1146,-1.082,-1.0389,-0.9973,-0.9573,-0.9241,-0.9005,-0.1374,-0.1656,-0.1797,-0.202,-0.2268,-0.2576,-0.2746,-0.2745,-0.2993,-0.3022,-0.3,-0.3107,-0.3132,-0.316,-0.3158,-0.3272,-0.3441,-0.361,-0.3719,-0.3853,-0.4107,-0.4249,-0.4302,-0.4712,-0.4952,-0.5062,-0.5582,-0.5857,-0.5909,-0.6458,-0.6953,-0.7281,-0.7568,-0.7699,-0.7729,-0.7815,-0.7904,-0.7931,-0.8398,-0.8738,-0.9008,-0.9417,-0.9862,-1.0316,-1.0697,-1.1099,-1.1469,-1.1882,-1.2224,-1.2475,-1.2622,-1.2749,-1.2881,-1.291,-1.2959,-1.308,-1.3147,-1.3457,-1.4077,-1.4466,-1.4771,-1.5023,-1.5266,-1.5474,-1.5626,-1.562,-1.557,-1.5519,-1.562,-1.5693,-1.5703,-1.5881,-1.6007,-1.606,-1.6241,-1.6371,-1.642,-1.6457,-1.6543,-1.6669,-1.6669,-1.6733,-1.6806,-1.6861,-1.6848,-1.684,-1.6727,-1.6648,-1.6648,-1.6506,-1.6463,-1.6371,-1.6269,-1.6035,-1.5808,-1.5641,-1.5412,-1.5125,-1.484,-1.4587,-1.435,-1.4098,-1.3797,-1.3348,-1.3074,-1.2759,-1.2318,-1.1927,-1.1469,-1.0998,-1.0543,-1.0054,-0.945,-0.9113,-0.9012,-0.0953,-0.1066,-0.1291,-0.1627,-0.1962,-0.2185,-0.2353,-0.2437,-0.2632,-0.2716,-0.2691,-0.2801,-0.2856,-0.2854,-0.294,-0.3026,-0.311,-0.3217,-0.3327,-0.3409,-0.3692,-0.3833,-0.389,-0.4302,-0.4494,-0.4519,-0.5009,-0.5281,-0.5365,-0.5941,-0.6519,-0.6925,-0.7214,-0.7405,-0.7566,-0.7729,-0.7815,-0.7904,-0.8215,-0.8501,-0.8788,-0.9305,-0.9729,-1.0032,-1.0518,-1.0922,-1.1276,-1.1653,-1.2026,-1.2352,-1.25,-1.2676,-1.2881,-1.291,-1.2954,-1.3104,-1.3392,-1.3747,-1.417,-1.4593,-1.4897,-1.5091,-1.5424,-1.5665,-1.5748,-1.5836,-1.5875,-1.5919,-1.5875,-1.5897,-1.5997,-1.6085,-1.6182,-1.6284,-1.6414,-1.6522,-1.6684,-1.672,-1.6748,-1.6825,-1.6818,-1.6867,-1.6933,-1.7017,-1.7052,-1.708,-1.701,-1.7002,-1.6975,-1.6863,-1.682,-1.6856,-1.6784,-1.6528,-1.6225,-1.6044,-1.5824,-1.5564,-1.5255,-1.4983,-1.4737,-1.4443,-1.4098,-1.3705,-1.3433,-1.3079,-1.2622,-1.215,-1.1673,-1.1221,-1.0565,-0.9973,-0.9521,-0.9211,-0.9035,-0.0533,-0.0617,-0.0869,-0.1234,-0.1628,-0.1737,-0.1904,-0.21,-0.2296,-0.2381,-0.2437,-0.2522,-0.2607,-0.2663,-0.2776,-0.286,-0.2859,-0.2967,-0.3021,-0.3078,-0.3331,-0.3444,-0.3498,-0.3803,-0.3999,-0.4109,-0.4463,-0.4761,-0.5009,-0.5616,-0.6159,-0.6571,-0.6923,-0.719,-0.7383,-0.7563,-0.7756,-0.7872,-0.8058,-0.8318,-0.8577,-0.9103,-0.9521,-0.9821,-1.0334,-1.0799,-1.1095,-1.1494,-1.1873,-1.2278,-1.2426,-1.2632,-1.2876,-1.2929,-1.3056,-1.3239,-1.3684,-1.4075,-1.4298,-1.476,-1.5074,-1.5266,-1.5592,-1.5836,-1.5969,-1.6066,-1.6175,-1.6303,-1.6259,-1.6231,-1.6237,-1.6275,-1.6368,-1.6528,-1.6592,-1.6714,-1.6897,-1.696,-1.7009,-1.703,-1.7051,-1.7093,-1.7184,-1.7309,-1.7413,-1.7392,-1.7406,-1.7379,-1.7365,-1.7268,-1.7184,-1.7351,-1.7226,-1.6967,-1.662,-1.647,-1.6275,-1.5975,-1.5665,-1.5407,-1.5113,-1.4806,-1.4477,-1.4163,-1.3805,-1.3396,-1.2953,-1.2437,-1.1873,-1.1418,-1.0786,-1.0098,-0.9725,-0.9391,-0.9162,-0.0112,-0.0252,-0.0561,-0.0841,-0.115,-0.1262,-0.1515,-0.1796,-0.1961,-0.21,-0.2184,-0.2212,-0.2325,-0.2493,-0.2635,-0.2691,-0.2748,-0.2859,-0.2915,-0.2915,-0.3051,-0.3132,-0.3132,-0.333,-0.3499,-0.3667,-0.3941,-0.4408,-0.5067,-0.5557,-0.5943,-0.6228,-0.679,-0.7109,-0.7192,-0.7488,-0.7696,-0.7753,-0.8005,-0.8271,-0.8421,-0.8692,-0.9169,-0.9747,-1.0239,-1.0663,-1.1095,-1.1469,-1.1873,-1.2283,-1.2426,-1.2627,-1.2876,-1.3027,-1.3234,-1.3578,-1.4069,-1.443,-1.4621,-1.5017,-1.5396,-1.5637,-1.5846,-1.6088,-1.6306,-1.6365,-1.6485,-1.6654,-1.6648,-1.6605,-1.6479,-1.65,-1.6556,-1.6697,-1.6876,-1.6988,-1.7017,-1.7164,-1.7233,-1.7356,-1.7404,-1.748,-1.7652,-1.7774,-1.7835,-1.7862,-1.7855,-1.7848,-1.7821,-1.7652,-1.7611,-1.7706,-1.757,-1.7273,-1.6967,-1.684,-1.6641,-1.6334,-1.605,-1.5824,-1.553,-1.5221,-1.4909,-1.4593,-1.4221,-1.3815,-1.3305,-1.2769,-1.2195,-1.1648,-1.1074,-1.0484,-1.001,-0.9744,-0.9462,0.0308,0.0028,-0.0084,-0.0308,-0.0645,-0.0729,-0.0953,-0.1375,-0.1486,-0.171,-0.1935,-0.2045,-0.2156,-0.2325,-0.2353,-0.2493,-0.2691,-0.2748,-0.2776,-0.2776,-0.2913,-0.2969,-0.2997,-0.3135,-0.3302,-0.347,-0.3666,-0.4136,-0.4798,-0.5254,-0.5645,-0.5982,-0.6547,-0.6869,-0.7006,-0.7281,-0.7542,-0.7699,-0.7833,-0.8049,-0.8374,-0.858,-0.8949,-0.9521,-0.9947,-1.0437,-1.0939,-1.1347,-1.1794,-1.2278,-1.2426,-1.2652,-1.3002,-1.3282,-1.3507,-1.3744,-1.4215,-1.4639,-1.4909,-1.5289,-1.5603,-1.5869,-1.6148,-1.6365,-1.6479,-1.665,-1.6812,-1.6897,-1.6975,-1.7004,-1.7067,-1.6947,-1.6876,-1.7017,-1.7205,-1.7358,-1.744,-1.757,-1.7679,-1.7726,-1.7828,-1.7963,-1.8016,-1.8163,-1.8282,-1.8282,-1.8301,-1.8282,-1.8262,-1.8096,-1.8002,-1.8055,-1.7902,-1.7672,-1.759,-1.7329,-1.7078,-1.6693,-1.6386,-1.6104,-1.5796,-1.5558,-1.5249,-1.4903,-1.4564,-1.4197,-1.3687,-1.3016,-1.2437,-1.1823,-1.1251,-1.0794,-1.0322,-0.9984,-0.9647,0.0645,0.0393,0.0364,0.014,-0.0196,-0.0196,-0.0477,-0.0869,-0.0953,-0.1234,-0.1543,-0.1681,-0.1821,-0.1989,-0.2074,-0.2212,-0.2465,-0.2578,-0.2635,-0.2691,-0.2804,-0.2833,-0.2831,-0.294,-0.3051,-0.3275,-0.3555,-0.3998,-0.4522,-0.5013,-0.5399,-0.5766,-0.6329,-0.6677,-0.6877,-0.7147,-0.7395,-0.7542,-0.7622,-0.7839,-0.8189,-0.8398,-0.8712,-0.9234,-0.9651,-1.0198,-1.0863,-1.1301,-1.1753,-1.2234,-1.2431,-1.27,-1.3157,-1.3507,-1.3763,-1.3999,-1.4419,-1.4834,-1.5159,-1.5485,-1.5796,-1.6076,-1.6343,-1.6515,-1.665,-1.6869,-1.7031,-1.713,-1.7234,-1.7372,-1.7557,-1.7509,-1.7413,-1.7447,-1.7618,-1.776,-1.7855,-1.8003,-1.8083,-1.8123,-1.8235,-1.8347,-1.8406,-1.8556,-1.8646,-1.8685,-1.8697,-1.8697,-1.8685,-1.8549,-1.8445,-1.847,-1.8214,-1.8089,-1.7989,-1.7788,-1.7405,-1.7025,-1.6757,-1.6436,-1.6132,-1.5869,-1.5558,-1.5232,-1.4869,-1.4489,-1.3975,-1.3281,-1.2676,-1.2067,-1.1578,-1.115,-1.0659,-1.0176,-0.981,0.0953,0.0729,0.0701,0.0533,0.0252,0.0224,-0.0028,-0.0364,-0.0393,-0.0673,-0.1066,-0.1094,-0.129,-0.1572,-0.1712,-0.188,-0.2073,-0.2326,-0.255,-0.2663,-0.2692,-0.272,-0.272,-0.2719,-0.283,-0.2971,-0.3522,-0.3909,-0.4247,-0.4796,-0.5234,-0.5618,-0.6112,-0.649,-0.6707,-0.7063,-0.7284,-0.7362,-0.7467,-0.7658,-0.7898,-0.8138,-0.8507,-0.9005,-0.9417,-1.0035,-1.0841,-1.1272,-1.1753,-1.2224,-1.2426,-1.2788,-1.3324,-1.3663,-1.3975,-1.435,-1.472,-1.5006,-1.53,-1.5643,-1.5994,-1.6266,-1.6445,-1.6686,-1.6933,-1.7038,-1.7199,-1.7441,-1.7537,-1.7666,-1.7962,-1.8075,-1.8049,-1.7963,-1.8049,-1.8176,-1.8228,-1.8373,-1.8505,-1.8517,-1.8627,-1.8709,-1.8798,-1.8915,-1.8991,-1.9045,-1.9064,-1.9082,-1.9071,-1.892,-1.8882,-1.8877,-1.8632,-1.8365,-1.8306,-1.8195,-1.7747,-1.7365,-1.7128,-1.6861,-1.6528,-1.6241,-1.5929,-1.5591,-1.5147,-1.4766,-1.4215,-1.3568,-1.3089,-1.253,-1.2042,-1.1477,-1.0994,-1.0484,-0.9991,0.1206,0.1122,0.1122,0.1009,0.0813,0.0729,0.0477,0.0168,0.0056,-0.0224,-0.0561,-0.0617,-0.0869,-0.1178,-0.1319,-0.1515,-0.1852,-0.1992,-0.2216,-0.2522,-0.2635,-0.2691,-0.2691,-0.2691,-0.2776,-0.2972,-0.3416,-0.3747,-0.3993,-0.452,-0.4993,-0.5317,-0.5837,-0.6245,-0.6487,-0.6847,-0.7095,-0.7287,-0.744,-0.7625,-0.7901,-0.8189,-0.8557,-0.8982,-0.9387,-0.995,-1.0722,-1.115,-1.1682,-1.2269,-1.2505,-1.2915,-1.3472,-1.3894,-1.4204,-1.4518,-1.4932,-1.5323,-1.5637,-1.5985,-1.6312,-1.6565,-1.6799,-1.7004,-1.7157,-1.744,-1.7625,-1.7801,-1.7949,-1.8148,-1.8327,-1.8471,-1.8425,-1.8201,-1.8393,-1.8556,-1.8576,-1.8718,-1.8846,-1.8912,-1.9033,-1.9108,-1.9146,-1.9235,-1.9291,-1.9306,-1.9306,-1.9332,-1.9395,-1.9269,-1.9183,-1.9216,-1.8905,-1.8635,-1.8592,-1.8417,-1.8062,-1.7713,-1.7467,-1.7156,-1.6848,-1.6571,-1.6256,-1.5885,-1.5446,-1.4971,-1.4419,-1.3928,-1.3449,-1.289,-1.2304,-1.1789,-1.1267,-1.0765,-1.0249,0.1459,0.1403,0.1403,0.1319,0.1178,0.1066,0.0897,0.0645,0.0505,0.0224,-0.0056,-0.0168,-0.0393,-0.0729,-0.0813,-0.1066,-0.1459,-0.1572,-0.1824,-0.2242,-0.2522,-0.2635,-0.2635,-0.2691,-0.2776,-0.2943,-0.3247,-0.3524,-0.3744,-0.4245,-0.4686,-0.5067,-0.5616,-0.6052,-0.6329,-0.6685,-0.6987,-0.7152,-0.7341,-0.7526,-0.7765,-0.8135,-0.856,-0.8979,-0.9432,-1.001,-1.0667,-1.1175,-1.1703,-1.2278,-1.2696,-1.32,-1.3639,-1.4046,-1.4419,-1.4725,-1.5108,-1.5525,-1.5852,-1.6197,-1.6556,-1.6776,-1.7031,-1.724,-1.7344,-1.7686,-1.7922,-1.8062,-1.8248,-1.845,-1.8653,-1.8788,-1.8767,-1.8681,-1.876,-1.887,-1.8941,-1.9055,-1.9168,-1.9265,-1.935,-1.9417,-1.9472,-1.9516,-1.9578,-1.9589,-1.9614,-1.964,-1.9694,-1.9578,-1.9541,-1.9406,-1.9124,-1.8948,-1.8872,-1.8642,-1.8338,-1.8055,-1.7801,-1.7426,-1.7059,-1.6833,-1.6549,-1.6116,-1.5675,-1.5289,-1.4789,-1.4332,-1.3858,-1.3223,-1.2618,-1.2082,-1.1573,-1.0998,-1.0462,0.1712,0.1628,0.1628,0.1515,0.1347,0.1319,0.1234,0.1122,0.0953,0.0729,0.0449,0.028,0.0084,-0.014,-0.0308,-0.0561,-0.0869,-0.1122,-0.1403,-0.1796,-0.2159,-0.2409,-0.2465,-0.255,-0.2691,-0.2859,-0.3022,-0.3245,-0.3552,-0.397,-0.4408,-0.4901,-0.542,-0.5916,-0.6198,-0.6633,-0.685,-0.696,-0.7179,-0.7395,-0.7547,-0.8002,-0.848,-0.8985,-0.9517,-1.0057,-1.0688,-1.1377,-1.1918,-1.2372,-1.3011,-1.3472,-1.3839,-1.4186,-1.4558,-1.4892,-1.5277,-1.5641,-1.5988,-1.6328,-1.665,-1.6911,-1.7122,-1.7309,-1.7523,-1.7801,-1.8069,-1.8274,-1.8457,-1.8666,-1.8922,-1.9048,-1.9127,-1.9272,-1.9172,-1.9183,-1.9376,-1.9406,-1.945,-1.9574,-1.9637,-1.9673,-1.9762,-1.9797,-1.9851,-1.9919,-1.998,-1.998,-1.9955,-1.9851,-1.9762,-1.9574,-1.9365,-1.9225,-1.9131,-1.8905,-1.8599,-1.8359,-1.8096,-1.772,-1.7309,-1.7044,-1.6727,-1.6297,-1.5903,-1.5541,-1.5153,-1.4679,-1.4168,-1.3592,-1.2987,-1.2437,-1.1848,-1.1251,-1.062,0.1769,0.1769,0.174,0.1712,0.1656,0.1572,0.1487,0.1431,0.1291,0.1094,0.0897,0.0785,0.0533,0.0252,0.0112,-0.0168,-0.0477,-0.0617,-0.0869,-0.1291,-0.1656,-0.1989,-0.224,-0.2325,-0.2437,-0.2606,-0.2773,-0.2939,-0.3242,-0.3715,-0.4159,-0.4625,-0.5095,-0.5559,-0.6003,-0.6282,-0.6581,-0.6879,-0.7179,-0.7416,-0.7676,-0.8103,-0.856,-0.8982,-0.954,-1.0109,-1.0744,-1.1653,-1.2348,-1.2788,-1.3185,-1.3629,-1.4064,-1.4419,-1.4766,-1.5057,-1.5491,-1.5852,-1.6138,-1.647,-1.6791,-1.7094,-1.7323,-1.7536,-1.7788,-1.8029,-1.8247,-1.8457,-1.8692,-1.8929,-1.9059,-1.9183,-1.9313,-1.9457,-1.9402,-1.9406,-1.9552,-1.9632,-1.9687,-1.9838,-1.9874,-1.9902,-1.993,-1.9993,-2.0038,-2.0098,-2.0158,-2.02,-2.0168,-2.0098,-1.9993,-1.9876,-1.9697,-1.9516,-1.9339,-1.9127,-1.8882,-1.8639,-1.8359,-1.8049,-1.7632,-1.7233,-1.6854,-1.642,-1.6035,-1.5659,-1.534,-1.4932,-1.4419,-1.3881,-1.3276,-1.2642,-1.2042,-1.1452,-1.0769,0.1797,0.1797,0.1797,0.1797,0.1797,0.1712,0.1684,0.1656,0.1487,0.1375,0.1291,0.1122,0.0925,0.0701,0.0561,0.0308,-0.0056,-0.0168,-0.0449,-0.0813,-0.1206,-0.1682,-0.2073,-0.2156,-0.224,-0.2493,-0.2578,-0.2798,-0.313,-0.352,-0.3964,-0.4487,-0.4877,-0.5375,-0.5898,-0.6116,-0.6389,-0.6795,-0.7149,-0.744,-0.7696,-0.8232,-0.8709,-0.9159,-0.9695,-1.0344,-1.1242,-1.2026,-1.2622,-1.3099,-1.343,-1.3805,-1.4326,-1.4679,-1.5017,-1.5283,-1.572,-1.6078,-1.6334,-1.6678,-1.6981,-1.722,-1.7468,-1.7733,-1.7955,-1.8201,-1.8431,-1.8632,-1.887,-1.9059,-1.9183,-1.9313,-1.9476,-1.9596,-1.9596,-1.9625,-1.9718,-1.9787,-1.9887,-2.0,-2.0078,-2.0138,-2.0156,-2.027,-2.0306,-2.0315,-2.0407,-2.0399,-2.0382,-2.0296,-2.021,-2.0088,-1.9947,-1.9751,-1.956,-1.9332,-1.9108,-1.887,-1.8509,-1.8213,-1.7814,-1.7385,-1.7002,-1.6577,-1.6166,-1.582,-1.5503,-1.5136,-1.4622,-1.4053,-1.3452,-1.2856,-1.226,-1.1628,-1.0943,0.1797,0.1797,0.1797,0.1797,0.1797,0.1797,0.1797,0.1769,0.1656,0.16,0.1572,0.1403,0.1262,0.115,0.0981,0.0757,0.0421,0.0224,-0.0112,-0.0477,-0.0897,-0.1402,-0.1961,-0.1961,-0.21,-0.2353,-0.2437,-0.2715,-0.3077,-0.3441,-0.3912,-0.4463,-0.4904,-0.535,-0.5763,-0.6039,-0.6359,-0.6707,-0.7093,-0.744,-0.7774,-0.8282,-0.8811,-0.9361,-1.0035,-1.0858,-1.1748,-1.2382,-1.2788,-1.3415,-1.3673,-1.4057,-1.4552,-1.4932,-1.5266,-1.5597,-1.5963,-1.6312,-1.6522,-1.6899,-1.722,-1.7344,-1.7686,-1.7956,-1.8108,-1.8392,-1.8659,-1.8817,-1.9033,-1.9191,-1.9321,-1.9501,-1.9596,-1.9697,-1.9744,-1.9823,-1.9841,-1.9937,-2.0043,-2.0108,-2.0245,-2.0329,-2.0457,-2.0575,-2.0677,-2.0562,-2.0645,-2.0677,-2.0619,-2.051,-2.0416,-2.0321,-2.0141,-1.9947,-1.9751,-1.956,-1.9321,-1.9078,-1.863,-1.8273,-1.7862,-1.7467,-1.7114,-1.6733,-1.6324,-1.6019,-1.5754,-1.5311,-1.4754,-1.424,-1.3647,-1.3084,-1.2486,-1.1823,-1.1146,0.1797,0.1797,0.1797,0.1797,0.1797,0.1797,0.1797,0.1797,0.1769,0.174,0.1712,0.16,0.1515,0.1487,0.1291,0.1038,0.0785,0.0645,0.0336,-0.0393,-0.0673,-0.1038,-0.1458,-0.1626,-0.185,-0.21,-0.224,-0.2574,-0.3048,-0.3441,-0.3913,-0.4489,-0.4906,-0.5321,-0.5766,-0.598,-0.6275,-0.665,-0.7006,-0.7381,-0.7854,-0.8329,-0.8886,-0.9491,-1.0374,-1.1242,-1.1952,-1.2451,-1.2983,-1.3549,-1.3892,-1.4221,-1.4702,-1.5153,-1.5507,-1.5824,-1.6197,-1.6506,-1.6684,-1.7017,-1.733,-1.759,-1.7835,-1.8082,-1.8379,-1.8685,-1.8922,-1.9052,-1.9213,-1.9402,-1.9531,-1.9625,-1.969,-1.9744,-1.9858,-1.9955,-1.998,-2.0043,-2.0166,-2.0295,-2.0363,-2.044,-2.0609,-2.0711,-2.0778,-2.0811,-2.0876,-2.0925,-2.0859,-2.0736,-2.0645,-2.0535,-2.0382,-2.0202,-2.0,-1.9769,-1.949,-1.9246,-1.8829,-1.8475,-1.8062,-1.7625,-1.7309,-1.6918,-1.6482,-1.6194,-1.5903,-1.5356,-1.48,-1.431,-1.3847,-1.3233,-1.2637,-1.1997,-1.1377,0.1797,0.1797,0.1797,0.1797,0.1797,0.1797,0.1797,0.1797,0.1797,0.1797,0.1797,0.1712,0.1684,0.1684,0.1515,0.1291,0.1066,0.0757,0.0364,-0.014,-0.0393,-0.0673,-0.0981,-0.1291,-0.1542,-0.1878,-0.21,-0.249,-0.2963,-0.3442,-0.3913,-0.4491,-0.4906,-0.5348,-0.574,-0.5923,-0.627,-0.662,-0.6898,-0.73,-0.7874,-0.8355,-0.9145,-0.9902,-1.0786,-1.1523,-1.2254,-1.2662,-1.3195,-1.3773,-1.4174,-1.4564,-1.5017,-1.5452,-1.5758,-1.6138,-1.6463,-1.6763,-1.696,-1.7295,-1.7611,-1.7787,-1.8062,-1.8352,-1.8613,-1.8896,-1.9149,-1.9302,-1.945,-1.9596,-1.9774,-1.982,-1.9841,-1.9858,-1.9973,-2.0078,-2.0138,-2.02,-2.027,-2.0398,-2.0517,-2.061,-2.0736,-2.086,-2.0933,-2.0982,-2.1087,-2.1135,-2.1038,-2.0933,-2.0852,-2.0753,-2.0628,-2.046,-2.0254,-1.9993,-1.9646,-1.938,-1.9078,-1.8774,-1.8452,-1.8002,-1.7543,-1.7136,-1.6699,-1.6312,-1.5973,-1.5406,-1.4869,-1.4385,-1.3899,-1.3363,-1.2788,-1.215,-1.1553,0.1797,0.1797,0.1797,0.1797,0.1797,0.1797,0.1797,0.1797,0.1797,0.1797,0.1797,0.1797,0.1769,0.1769,0.1684,0.1515,0.1178,0.0673,0.0252,0.0028,-0.0224,-0.0477,-0.0757,-0.1066,-0.1347,-0.1712,-0.2045,-0.2461,-0.2906,-0.3385,-0.3913,-0.4465,-0.4906,-0.5348,-0.5738,-0.5955,-0.6218,-0.665,-0.6847,-0.7222,-0.7821,-0.8355,-0.9249,-1.0403,-1.1015,-1.1673,-1.2343,-1.2817,-1.3319,-1.401,-1.4471,-1.4971,-1.5446,-1.5764,-1.6044,-1.6494,-1.6784,-1.7044,-1.724,-1.7598,-1.7895,-1.7956,-1.8314,-1.862,-1.8829,-1.9075,-1.9325,-1.9516,-1.9679,-1.982,-1.9962,-1.999,-1.9998,-2.0033,-2.0096,-2.02,-2.0304,-2.039,-2.0483,-2.05,-2.0627,-2.0753,-2.0901,-2.103,-2.1111,-2.1183,-2.1286,-2.1309,-2.1215,-2.1135,-2.1063,-2.0942,-2.0802,-2.0552,-2.0314,-2.0106,-1.978,-1.9527,-1.9254,-1.8991,-1.8723,-1.8293,-1.7814,-1.7345,-1.6928,-1.6524,-1.606,-1.5513,-1.4994,-1.4507,-1.397,-1.3406,-1.2856,-1.2298,-1.1728,0.1797,0.1797,0.1797,0.1797,0.1797,0.1797,0.1797,0.1797,0.1797,0.1797,0.1797,0.1797,0.1797,0.1797,0.1797,0.1572,0.1206,0.0673,0.0308,0.0112,-0.0168,-0.0477,-0.0673,-0.1009,-0.1263,-0.1514,-0.1905,-0.2406,-0.2907,-0.3387,-0.3913,-0.4462,-0.4904,-0.5348,-0.5736,-0.5955,-0.622,-0.6652,-0.6823,-0.7168,-0.7717,-0.8408,-0.9302,-1.059,-1.1095,-1.1723,-1.2392,-1.2856,-1.3375,-1.4129,-1.4588,-1.5147,-1.5647,-1.5969,-1.629,-1.6671,-1.7038,-1.7316,-1.7496,-1.7808,-1.8055,-1.8253,-1.856,-1.8843,-1.9082,-1.9373,-1.9548,-1.9682,-1.9841,-1.998,-1.998,-2.0078,-2.0106,-2.0141,-2.0235,-2.0363,-2.0449,-2.0577,-2.0719,-2.0745,-2.0811,-2.0901,-2.1047,-2.1175,-2.1254,-2.1325,-2.1434,-2.145,-2.1372,-2.1302,-2.1246,-2.1103,-2.0949,-2.0644,-2.0331,-2.0131,-1.9902,-1.9679,-1.9413,-1.912,-1.8836,-1.8488,-1.8061,-1.7605,-1.7117,-1.6631,-1.6141,-1.5625,-1.5091,-1.4581,-1.4017,-1.3454,-1.2968,-1.2461,-1.1898,0.1797,0.1797,0.1797,0.1797,0.1797,0.1797,0.1797,0.1797,0.1797,0.1797,0.1797,0.1797,0.1797,0.1769,0.1712,0.1515,0.1122,0.0645,0.0393,0.0196,-0.0112,-0.0364,-0.0589,-0.0925,-0.115,-0.1374,-0.1794,-0.2297,-0.2797,-0.3359,-0.3885,-0.4463,-0.4904,-0.535,-0.5736,-0.5923,-0.6245,-0.6625,-0.679,-0.7085,-0.7744,-0.8517,-0.9647,-1.0553,-1.1146,-1.1773,-1.2569,-1.2958,-1.3476,-1.4199,-1.476,-1.5266,-1.5742,-1.616,-1.6506,-1.6848,-1.7226,-1.7543,-1.7754,-1.8062,-1.8313,-1.8509,-1.8798,-1.9045,-1.925,-1.9508,-1.9747,-1.9914,-2.0028,-2.0173,-2.0208,-2.0227,-2.0296,-2.0382,-2.0458,-2.0526,-2.0645,-2.0778,-2.0877,-2.0998,-2.1047,-2.1119,-2.1199,-2.1309,-2.1387,-2.1495,-2.1595,-2.1565,-2.1519,-2.1472,-2.1419,-2.1222,-2.1047,-2.0786,-2.0467,-2.0193,-2.0008,-1.9805,-1.9523,-1.9232,-1.8969,-1.8657,-1.8292,-1.7875,-1.7359,-1.6801,-1.6266,-1.5768,-1.5215,-1.4679,-1.4168,-1.365,-1.3137,-1.2628,-1.2067,0.1797,0.1797,0.1797,0.1797,0.1797,0.1797,0.1797,0.1797,0.1797,0.1797,0.1797,0.1797,0.1797,0.174,0.16,0.1375,0.1094,0.0645,0.0393,0.0252,-0.0084,-0.0336,-0.0533,-0.0785,-0.1094,-0.1347,-0.1656,-0.2104,-0.2661,-0.3192,-0.3801,-0.4325,-0.4796,-0.5266,-0.5679,-0.5843,-0.6245,-0.6569,-0.6734,-0.705,-0.7904,-0.8834,-0.9858,-1.0816,-1.1171,-1.1798,-1.2749,-1.306,-1.36,-1.4269,-1.4834,-1.5289,-1.578,-1.6241,-1.6644,-1.7004,-1.7365,-1.772,-1.8035,-1.8365,-1.862,-1.8767,-1.9014,-1.9239,-1.9453,-1.9672,-1.9904,-2.0115,-2.0245,-2.0339,-2.0373,-2.0457,-2.0543,-2.0652,-2.0668,-2.0703,-2.0876,-2.1015,-2.1087,-2.1183,-2.127,-2.1333,-2.1411,-2.1465,-2.1541,-2.1602,-2.1701,-2.1693,-2.1648,-2.1641,-2.1549,-2.1332,-2.1127,-2.0925,-2.0628,-2.0289,-2.0115,-1.9932,-1.9625,-1.9302,-1.9078,-1.8839,-1.8438,-1.7989,-1.7537,-1.697,-1.6454,-1.5872,-1.5316,-1.4789,-1.4343,-1.3821,-1.3252,-1.2754,-1.2224,0.1797,0.1797,0.1797,0.1797,0.1797,0.1797,0.1797,0.1797,0.1797,0.1797,0.1797,0.1797,0.1797,0.1712,0.1459,0.1319,0.1066,0.0673,0.0336,0.0196,-0.0168,-0.0449,-0.0673,-0.0953,-0.1122,-0.1319,-0.1628,-0.2048,-0.2521,-0.2967,-0.3495,-0.4078,-0.4577,-0.5048,-0.5567,-0.5766,-0.6116,-0.6601,-0.6734,-0.7244,-0.8209,-0.8896,-0.9803,-1.0655,-1.1221,-1.1798,-1.272,-1.3108,-1.36,-1.4332,-1.4857,-1.5311,-1.5758,-1.6241,-1.6708,-1.7157,-1.7584,-1.7989,-1.8267,-1.8567,-1.8843,-1.9021,-1.9246,-1.9461,-1.9664,-1.9889,-2.0108,-2.0329,-2.0388,-2.0441,-2.051,-2.0628,-2.0745,-2.0835,-2.09,-2.1006,-2.1151,-2.1175,-2.1254,-2.1394,-2.1472,-2.1535,-2.1596,-2.1649,-2.1701,-2.1746,-2.1783,-2.1783,-2.1759,-2.1738,-2.1656,-2.1449,-2.1214,-2.0998,-2.0745,-2.0418,-2.0185,-2.003,-1.9708,-1.9365,-1.916,-1.8896,-1.8464,-1.8016,-1.7584,-1.7081,-1.6503,-1.5916,-1.5384,-1.4897,-1.4454,-1.3881,-1.329,-1.2822,-1.2406,0.1797,0.1797,0.1797,0.1797,0.1797,0.1797,0.1797,0.1797,0.1797,0.1797,0.1797,0.1797,0.1769,0.1656,0.1403,0.1206,0.0981,0.0589,0.028,0.0056,-0.0252,-0.0533,-0.0701,-0.0897,-0.1066,-0.1319,-0.1487,-0.1823,-0.2297,-0.2853,-0.3409,-0.3967,-0.4465,-0.4941,-0.5403,-0.5683,-0.6064,-0.6522,-0.6953,-0.7566,-0.8315,-0.8975,-0.9729,-1.0739,-1.1124,-1.1852,-1.2593,-1.306,-1.3595,-1.4321,-1.4903,-1.5435,-1.5891,-1.6349,-1.6812,-1.7274,-1.7666,-1.8022,-1.8372,-1.8723,-1.8984,-1.9221,-1.9442,-1.9672,-1.9897,-2.0115,-2.0272,-2.0373,-2.0424,-2.0518,-2.0645,-2.0737,-2.0901,-2.1023,-2.1111,-2.1254,-2.1341,-2.1348,-2.1394,-2.1548,-2.1693,-2.1731,-2.1769,-2.1784,-2.1812,-2.1857,-2.1892,-2.1899,-2.1855,-2.1811,-2.1708,-2.1542,-2.1309,-2.1071,-2.0811,-2.052,-2.0245,-2.0045,-1.9777,-1.9457,-1.9228,-1.892,-1.8477,-1.8055,-1.7639,-1.7096,-1.6531,-1.6016,-1.5513,-1.504,-1.4569,-1.4017,-1.3462,-1.3002,-1.248,0.1797,0.1797,0.1797,0.1797,0.1797,0.1797,0.1797,0.1797,0.1797,0.1797,0.1797,0.1797,0.174,0.16,0.1403,0.1178,0.0953,0.0533,0.0224,-0.0084,-0.0336,-0.0561,-0.0757,-0.0897,-0.1038,-0.1319,-0.1347,-0.1682,-0.2212,-0.2715,-0.3217,-0.383,-0.4244,-0.4743,-0.5185,-0.557,-0.5978,-0.6517,-0.709,-0.7705,-0.8368,-0.8919,-0.9755,-1.0535,-1.1179,-1.1757,-1.2627,-1.304,-1.3576,-1.4339,-1.496,-1.5509,-1.5973,-1.6463,-1.6939,-1.7378,-1.7774,-1.8163,-1.851,-1.8853,-1.9111,-1.9358,-1.9628,-1.9897,-2.0098,-2.0329,-2.0483,-2.0518,-2.0544,-2.0686,-2.0835,-2.0917,-2.1063,-2.1183,-2.127,-2.1427,-2.1542,-2.1541,-2.1577,-2.1735,-2.1846,-2.1884,-2.1922,-2.1915,-2.1945,-2.1966,-2.1986,-2.2007,-2.1963,-2.1899,-2.1789,-2.1649,-2.1434,-2.1199,-2.0949,-2.0678,-2.0399,-2.0078,-1.9802,-1.9512,-1.9221,-1.8901,-1.8503,-1.8088,-1.7652,-1.7137,-1.6573,-1.611,-1.5637,-1.5136,-1.4656,-1.4186,-1.3692,-1.3181,-1.2554,0.1797,0.1797,0.1797,0.1797,0.1797,0.1797,0.1797,0.1797,0.1797,0.1797,0.1797,0.1797,0.1797,0.1712,0.1459,0.1206,0.1066,0.0477,0.0112,-0.0224,-0.0505,-0.0701,-0.0841,-0.0925,-0.1038,-0.1263,-0.1319,-0.1626,-0.21,-0.2437,-0.2912,-0.3413,-0.3938,-0.4406,-0.493,-0.5481,-0.6028,-0.6598,-0.7144,-0.7711,-0.8345,-0.8972,-0.9755,-1.0659,-1.1196,-1.1803,-1.2813,-1.3118,-1.3605,-1.4396,-1.5028,-1.5541,-1.6054,-1.6571,-1.7065,-1.7481,-1.7889,-1.8275,-1.8634,-1.8934,-1.9198,-1.9461,-1.9772,-2.0108,-2.0262,-2.0416,-2.0586,-2.0745,-2.077,-2.0909,-2.1071,-2.1214,-2.1269,-2.1379,-2.1465,-2.158,-2.1686,-2.173,-2.1787,-2.1909,-2.199,-2.1998,-2.2046,-2.2057,-2.2057,-2.2063,-2.2083,-2.2104,-2.2044,-2.1986,-2.1892,-2.1753,-2.1556,-2.134,-2.1151,-2.0851,-2.0494,-2.0158,-1.9848,-1.9516,-1.9176,-1.8817,-1.8464,-1.8055,-1.7618,-1.7123,-1.6644,-1.6132,-1.5653,-1.5198,-1.4714,-1.4181,-1.3568,-1.2929,-1.2343,0.1797,0.1797,0.1797,0.1797,0.1797,0.1797,0.1797,0.1797,0.1797,0.1797,0.1797,0.1797,0.1797,0.1712,0.1459,0.1178,0.0925,0.0449,0.0028,-0.0308,-0.0589,-0.0757,-0.0841,-0.0925,-0.1038,-0.1263,-0.1319,-0.1598,-0.2156,-0.2325,-0.2688,-0.3188,-0.3744,-0.4272,-0.4822,-0.5506,-0.6186,-0.668,-0.7195,-0.7762,-0.8345,-0.8949,-0.9706,-1.0697,-1.1242,-1.1848,-1.2705,-1.3214,-1.3829,-1.4489,-1.5125,-1.5651,-1.6157,-1.6693,-1.7164,-1.7604,-1.8029,-1.8386,-1.8755,-1.9071,-1.9376,-1.9759,-2.0053,-2.0279,-2.0416,-2.0578,-2.0778,-2.0925,-2.1006,-2.1127,-2.1277,-2.1348,-2.1394,-2.1549,-2.1656,-2.1753,-2.1827,-2.1871,-2.1945,-2.2067,-2.205,-2.205,-2.212,-2.2197,-2.2183,-2.2174,-2.218,-2.2186,-2.2141,-2.2075,-2.1974,-2.1857,-2.1663,-2.141,-2.1206,-2.0885,-2.0553,-2.0237,-1.9919,-1.9527,-1.9157,-1.8767,-1.8406,-1.7989,-1.7578,-1.7096,-1.6637,-1.6148,-1.5669,-1.5198,-1.4668,-1.4111,-1.3449,-1.2754,-1.224,0.1797,0.1797,0.1797,0.1797,0.1797,0.1797,0.1797,0.1797,0.1797,0.1797,0.1797,0.1797,0.1797,0.1712,0.1431,0.115,0.0813,0.0393,-0.0028,-0.0364,-0.0645,-0.0785,-0.0869,-0.0925,-0.1009,-0.1234,-0.1347,-0.1626,-0.2183,-0.224,-0.2687,-0.3216,-0.3688,-0.4159,-0.4767,-0.5588,-0.6349,-0.6788,-0.7246,-0.7863,-0.8474,-0.9073,-0.9855,-1.0794,-1.1372,-1.2062,-1.2827,-1.3443,-1.3988,-1.4622,-1.5238,-1.5828,-1.6358,-1.6835,-1.733,-1.7767,-1.8182,-1.8528,-1.8874,-1.9232,-1.9614,-2.0025,-2.0216,-2.0407,-2.0578,-2.077,-2.0958,-2.1119,-2.1222,-2.1333,-2.148,-2.1533,-2.1586,-2.173,-2.1781,-2.1869,-2.1953,-2.2028,-2.2109,-2.218,-2.2178,-2.2189,-2.2198,-2.2282,-2.231,-2.2288,-2.2288,-2.2293,-2.2279,-2.22,-2.2071,-2.1932,-2.1753,-2.1495,-2.1206,-2.0917,-2.062,-2.0272,-1.9947,-1.9552,-1.9183,-1.8767,-1.8366,-1.7962,-1.7543,-1.7096,-1.661,-1.6126,-1.5669,-1.5198,-1.4576,-1.3876,-1.3363,-1.2715,-1.2323,0.1797,0.1797,0.1797,0.1797,0.1769,0.1797,0.1797,0.1797,0.1797,0.1797,0.1797,0.1797,0.1797,0.1712,0.1403,0.1122,0.0757,0.028,-0.014,-0.0421,-0.0701,-0.0869,-0.0897,-0.0925,-0.1038,-0.1234,-0.1347,-0.1626,-0.2212,-0.2353,-0.2798,-0.3326,-0.3799,-0.4184,-0.4598,-0.5504,-0.6273,-0.6847,-0.7276,-0.7966,-0.8676,-0.9276,-1.0131,-1.1015,-1.1673,-1.2309,-1.3055,-1.37,-1.424,-1.48,-1.5468,-1.6044,-1.6522,-1.7081,-1.7584,-1.8089,-1.8509,-1.8848,-1.9113,-1.9483,-1.9869,-2.0218,-2.0371,-2.0535,-2.0769,-2.0966,-2.1135,-2.1293,-2.1371,-2.1503,-2.1632,-2.1753,-2.1804,-2.1869,-2.192,-2.198,-2.2071,-2.2137,-2.2203,-2.2274,-2.2338,-2.238,-2.2349,-2.2349,-2.2391,-2.2405,-2.2399,-2.2399,-2.2394,-2.2302,-2.218,-2.1982,-2.1819,-2.1556,-2.1277,-2.0982,-2.0678,-2.0331,-1.9965,-1.9563,-1.9157,-1.8748,-1.834,-1.7969,-1.7529,-1.7081,-1.6595,-1.611,-1.553,-1.4926,-1.4222,-1.3568,-1.3128,-1.2725,-1.2352,0.1769,0.1656,0.1656,0.1572,0.1515,0.1712,0.1797,0.1797,0.1797,0.1797,0.1797,0.1797,0.174,0.16,0.1319,0.1009,0.0673,0.014,-0.0252,-0.0421,-0.0757,-0.0841,-0.0897,-0.0925,-0.1038,-0.1234,-0.1347,-0.1626,-0.2212,-0.2437,-0.2855,-0.3384,-0.4076,-0.4601,-0.5117,-0.5773,-0.6404,-0.6871,-0.7408,-0.8017,-0.8778,-0.9458,-1.0263,-1.1301,-1.1918,-1.2594,-1.3338,-1.4001,-1.4582,-1.5062,-1.573,-1.629,-1.6757,-1.731,-1.7801,-1.8254,-1.8683,-1.9172,-1.9578,-1.9973,-2.0115,-2.0339,-2.0526,-2.0695,-2.0885,-2.1103,-2.1277,-2.1457,-2.1541,-2.1678,-2.1796,-2.1848,-2.1899,-2.1972,-2.2015,-2.2092,-2.2174,-2.2217,-2.2274,-2.233,-2.2399,-2.2441,-2.2455,-2.2438,-2.2479,-2.2501,-2.2501,-2.2465,-2.2446,-2.2377,-2.2265,-2.2046,-2.1832,-2.1609,-2.134,-2.1006,-2.0645,-2.0296,-1.9922,-1.9519,-1.9131,-1.8702,-1.8327,-1.7936,-1.7516,-1.7067,-1.6509,-1.5923,-1.526,-1.4605,-1.4017,-1.3539,-1.318,-1.2803,-1.2397,0.1684,0.16,0.1487,0.1347,0.1291,0.1515,0.1656,0.1712,0.174,0.1769,0.1797,0.174,0.1684,0.1515,0.1206,0.0869,0.0561,0.0056,-0.0364,-0.0505,-0.0757,-0.0869,-0.0897,-0.0953,-0.1094,-0.1291,-0.1487,-0.1768,-0.2297,-0.2548,-0.3049,-0.3744,-0.4436,-0.4983,-0.55,-0.5989,-0.6482,-0.7028,-0.7646,-0.8312,-0.904,-0.9766,-1.0545,-1.1485,-1.2275,-1.2948,-1.3676,-1.4351,-1.4994,-1.5484,-1.6026,-1.6586,-1.7067,-1.7516,-1.8015,-1.8456,-1.9011,-1.9508,-1.999,-2.0312,-2.0424,-2.051,-2.0712,-2.0876,-2.1023,-2.1222,-2.1402,-2.1565,-2.1709,-2.1812,-2.1876,-2.1913,-2.2026,-2.2083,-2.2126,-2.2211,-2.224,-2.2282,-2.2316,-2.2372,-2.2441,-2.2496,-2.2564,-2.2569,-2.2587,-2.2587,-2.2609,-2.2547,-2.2484,-2.2396,-2.2285,-2.2067,-2.1832,-2.1579,-2.1301,-2.0974,-2.0627,-2.0252,-1.9851,-1.9446,-1.903,-1.8618,-1.8268,-1.7902,-1.7474,-1.6983,-1.6352,-1.574,-1.5125,-1.4587,-1.4075,-1.3634,-1.3261,-1.2861,-1.2446,0.16,0.1543,0.1206,0.1094,0.1094,0.1178,0.1375,0.16,0.16,0.1656,0.1769,0.16,0.1515,0.1431,0.1066,0.0701,0.0336,-0.0084,-0.0393,-0.0645,-0.0813,-0.0869,-0.0953,-0.1038,-0.1206,-0.1403,-0.1628,-0.1963,-0.2465,-0.2909,-0.3465,-0.4104,-0.4769,-0.5258,-0.5693,-0.6127,-0.6645,-0.7268,-0.7913,-0.8626,-0.9402,-1.0105,-1.0956,-1.1839,-1.2647,-1.3362,-1.41,-1.4817,-1.5372,-1.5882,-1.6367,-1.69,-1.7366,-1.7801,-1.8273,-1.8819,-1.9453,-1.9889,-2.0235,-2.05,-2.0694,-2.0745,-2.0819,-2.0998,-2.119,-2.1348,-2.151,-2.1648,-2.1783,-2.184,-2.192,-2.2049,-2.2177,-2.2211,-2.2245,-2.2268,-2.2291,-2.2319,-2.2352,-2.2408,-2.2482,-2.255,-2.2636,-2.2667,-2.2646,-2.2654,-2.2641,-2.2582,-2.2515,-2.2372,-2.2243,-2.2058,-2.1811,-2.1556,-2.1254,-2.0941,-2.0568,-2.0191,-1.9751,-1.9325,-1.8924,-1.8514,-1.8168,-1.7801,-1.7413,-1.6899,-1.625,-1.5635,-1.5062,-1.4535,-1.4122,-1.3658,-1.3285,-1.2871,-1.2475,0.1178,0.1094,0.0897,0.0729,0.0617,0.0645,0.0925,0.1347,0.1375,0.1403,0.1459,0.1319,0.1206,0.1066,0.0617,0.0336,0.0,-0.0308,-0.0533,-0.0729,-0.0869,-0.0953,-0.1009,-0.1122,-0.1319,-0.1599,-0.1907,-0.2214,-0.2717,-0.3242,-0.3852,-0.4437,-0.5016,-0.5454,-0.5889,-0.6295,-0.6942,-0.756,-0.8206,-0.8935,-0.9736,-1.0438,-1.1284,-1.2087,-1.3011,-1.37,-1.438,-1.5096,-1.5651,-1.6166,-1.6633,-1.7145,-1.7666,-1.8115,-1.862,-1.9306,-1.9772,-2.0125,-2.0356,-2.0627,-2.0851,-2.099,-2.1071,-2.1167,-2.1316,-2.1472,-2.1617,-2.173,-2.1834,-2.1913,-2.1995,-2.2115,-2.222,-2.2262,-2.2291,-2.2305,-2.2319,-2.2338,-2.238,-2.2449,-2.2523,-2.2609,-2.2694,-2.2733,-2.2712,-2.2712,-2.2672,-2.2614,-2.2528,-2.2386,-2.2214,-2.203,-2.1796,-2.1549,-2.1238,-2.0916,-2.0517,-2.0103,-1.9643,-1.9213,-1.8791,-1.8417,-1.8062,-1.7659,-1.7199,-1.6686,-1.6104,-1.5552,-1.5068,-1.4679,-1.4262,-1.3771,-1.3314,-1.2924,-1.2554,0.0785,0.0673,0.0449,0.028,0.0168,0.0168,0.0421,0.0841,0.1009,0.1094,0.1122,0.0981,0.0869,0.0673,0.0308,-0.0028,-0.0308,-0.0589,-0.0813,-0.0897,-0.0925,-0.1009,-0.1094,-0.1262,-0.1487,-0.1796,-0.2159,-0.2519,-0.3021,-0.3744,-0.438,-0.4767,-0.5266,-0.5698,-0.6211,-0.6785,-0.7423,-0.8007,-0.8564,-0.9168,-0.9947,-1.0774,-1.1531,-1.232,-1.3266,-1.3983,-1.464,-1.535,-1.5938,-1.6481,-1.697,-1.7421,-1.7982,-1.8496,-1.8995,-1.9617,-1.9965,-2.0262,-2.0526,-2.081,-2.1022,-2.1183,-2.1333,-2.1449,-2.151,-2.1632,-2.1715,-2.1804,-2.1892,-2.1995,-2.2083,-2.2166,-2.224,-2.2305,-2.2305,-2.2305,-2.2324,-2.2358,-2.2427,-2.2496,-2.2582,-2.2659,-2.2725,-2.2751,-2.2756,-2.2729,-2.2677,-2.2592,-2.2506,-2.2399,-2.222,-2.2044,-2.1789,-2.1519,-2.1191,-2.0835,-2.0399,-1.9965,-1.9534,-1.9101,-1.8669,-1.8326,-1.7996,-1.7482,-1.692,-1.6451,-1.6022,-1.5608,-1.5148,-1.4748,-1.435,-1.3889,-1.3438,-1.3055,-1.2696,0.0364,0.0308,-0.0084,-0.0224,-0.0224,-0.0252,-0.0084,0.0168,0.0477,0.0701,0.0785,0.0701,0.0505,0.028,-0.0028,-0.0336,-0.0617,-0.0869,-0.1009,-0.1122,-0.1066,-0.1122,-0.1263,-0.1459,-0.1684,-0.1992,-0.241,-0.2909,-0.3408,-0.4073,-0.471,-0.5122,-0.5586,-0.6077,-0.6596,-0.7139,-0.7803,-0.854,-0.8955,-0.9451,-1.0293,-1.1116,-1.1914,-1.2647,-1.3513,-1.4357,-1.5051,-1.5702,-1.63,-1.6848,-1.7309,-1.7713,-1.8333,-1.8882,-1.9398,-1.9772,-2.0123,-2.0399,-2.0669,-2.0966,-2.1159,-2.1348,-2.1549,-2.1663,-2.1715,-2.1744,-2.1796,-2.1899,-2.2001,-2.2069,-2.2143,-2.2245,-2.231,-2.2333,-2.2324,-2.2324,-2.2352,-2.2399,-2.2482,-2.2542,-2.2601,-2.2685,-2.2725,-2.2751,-2.2738,-2.2729,-2.2703,-2.2605,-2.2479,-2.2372,-2.2206,-2.2015,-2.1768,-2.1472,-2.1087,-2.0696,-2.0256,-1.9818,-1.9409,-1.9014,-1.862,-1.8268,-1.7909,-1.7365,-1.682,-1.6392,-1.5963,-1.557,-1.5193,-1.4794,-1.4391,-1.4006,-1.3586,-1.3176,-1.2793,0.0028,-0.0112,-0.0449,-0.0589,-0.0589,-0.0589,-0.0477,-0.0252,-0.0196,0.0056,0.0308,0.0224,0.0084,-0.0112,-0.0449,-0.0729,-0.0869,-0.1094,-0.1206,-0.1206,-0.1178,-0.1263,-0.1431,-0.1572,-0.1879,-0.2354,-0.2826,-0.3408,-0.4019,-0.4544,-0.4959,-0.5295,-0.5814,-0.6384,-0.6898,-0.7437,-0.815,-0.8965,-0.9506,-0.9998,-1.0761,-1.1514,-1.2284,-1.2996,-1.3789,-1.4588,-1.5255,-1.584,-1.6472,-1.7059,-1.7434,-1.8022,-1.8762,-1.9261,-1.9629,-1.9945,-2.0245,-2.051,-2.0778,-2.1079,-2.1277,-2.1425,-2.1602,-2.1759,-2.1848,-2.1855,-2.1899,-2.2015,-2.2089,-2.2157,-2.2231,-2.231,-2.2366,-2.2366,-2.2344,-2.2358,-2.2386,-2.2468,-2.2542,-2.2596,-2.2632,-2.2672,-2.2725,-2.2725,-2.2712,-2.2712,-2.272,-2.2627,-2.246,-2.233,-2.2135,-2.1951,-2.1746,-2.1442,-2.1015,-2.0614,-2.0197,-1.98,-1.9391,-1.8976,-1.8556,-1.8096,-1.7645,-1.7199,-1.6714,-1.6328,-1.5941,-1.5598,-1.5216,-1.4794,-1.4437,-1.403,-1.3676,-1.3262,-1.29,-0.0449,-0.0561,-0.0841,-0.0953,-0.0953,-0.0981,-0.0869,-0.0729,-0.0701,-0.0589,-0.0336,-0.0252,-0.0308,-0.0477,-0.0813,-0.1094,-0.1178,-0.1347,-0.1403,-0.1403,-0.1375,-0.1431,-0.1572,-0.1712,-0.2046,-0.252,-0.3242,-0.3881,-0.4548,-0.4934,-0.5238,-0.5624,-0.6171,-0.6685,-0.7168,-0.778,-0.8464,-0.9253,-0.9954,-1.0629,-1.1272,-1.1938,-1.255,-1.3242,-1.4019,-1.4817,-1.549,-1.6098,-1.6665,-1.7288,-1.7781,-1.8326,-1.8927,-1.9372,-1.9702,-1.9998,-2.0296,-2.0604,-2.0868,-2.1135,-2.1363,-2.1518,-2.1706,-2.1878,-2.1957,-2.1972,-2.2042,-2.2137,-2.2152,-2.2205,-2.2296,-2.238,-2.2413,-2.2427,-2.2441,-2.2455,-2.2487,-2.2533,-2.2601,-2.2654,-2.2685,-2.2712,-2.2738,-2.2733,-2.2712,-2.2663,-2.2672,-2.256,-2.2405,-2.2243,-2.2069,-2.1857,-2.1641,-2.1371,-2.0982,-2.0588,-2.0195,-1.979,-1.9373,-1.886,-1.8372,-1.7841,-1.7357,-1.6996,-1.665,-1.6278,-1.5919,-1.5509,-1.5148,-1.4748,-1.4391,-1.4059,-1.3705,-1.3305,-1.2929,-0.0953,-0.1009,-0.1234,-0.1319,-0.1347,-0.1319,-0.1234,-0.1122,-0.1122,-0.1122,-0.1038,-0.0673,-0.0729,-0.0841,-0.0981,-0.1291,-0.1487,-0.1572,-0.16,-0.16,-0.1572,-0.1627,-0.1738,-0.1934,-0.2324,-0.2909,-0.3631,-0.4215,-0.477,-0.5181,-0.5591,-0.6028,-0.6514,-0.7028,-0.7619,-0.8259,-0.8972,-0.9651,-1.0374,-1.1146,-1.1744,-1.2304,-1.2856,-1.3542,-1.4317,-1.5096,-1.5794,-1.6389,-1.6926,-1.7509,-1.8089,-1.8613,-1.9014,-1.942,-1.9723,-2.0025,-2.0331,-2.0613,-2.0877,-2.1198,-2.1425,-2.1632,-2.1825,-2.1972,-2.2044,-2.2141,-2.2211,-2.2248,-2.2248,-2.2291,-2.238,-2.2441,-2.246,-2.2487,-2.2515,-2.2555,-2.2587,-2.2614,-2.2646,-2.2712,-2.2712,-2.2725,-2.272,-2.272,-2.2681,-2.2637,-2.2557,-2.2415,-2.2262,-2.2104,-2.1936,-2.1706,-2.1456,-2.1174,-2.0893,-2.0554,-2.0168,-1.9764,-1.9328,-1.875,-1.8187,-1.772,-1.7302,-1.6918,-1.6556,-1.6197,-1.5786,-1.5374,-1.5006,-1.4639,-1.4233,-1.3847,-1.3534,-1.3161,-1.289,-0.1234,-0.1487,-0.1515,-0.1543,-0.1543,-0.1543,-0.1431,-0.1291,-0.1263,-0.1263,-0.1262,-0.1206,-0.1178,-0.1234,-0.1403,-0.1572,-0.16,-0.1712,-0.1769,-0.1769,-0.1684,-0.1766,-0.1961,-0.2211,-0.2768,-0.3408,-0.4076,-0.4575,-0.5018,-0.5456,-0.5866,-0.62,-0.6888,-0.7396,-0.7877,-0.857,-0.929,-0.9991,-1.0753,-1.1519,-1.2053,-1.2633,-1.3227,-1.392,-1.4686,-1.5395,-1.6044,-1.658,-1.7102,-1.7673,-1.8299,-1.8753,-1.9108,-1.9413,-1.9723,-2.0035,-2.0348,-2.0654,-2.0942,-2.1254,-2.148,-2.1715,-2.1922,-2.2132,-2.2226,-2.2332,-2.2391,-2.241,-2.2432,-2.2432,-2.2492,-2.2533,-2.2574,-2.2547,-2.256,-2.2632,-2.269,-2.2685,-2.2685,-2.269,-2.269,-2.2672,-2.2654,-2.2623,-2.256,-2.2511,-2.2457,-2.2304,-2.2095,-2.1957,-2.1802,-2.1547,-2.1293,-2.1079,-2.0836,-2.052,-2.0133,-1.9754,-1.9291,-1.8688,-1.8135,-1.7672,-1.7252,-1.6818,-1.6448,-1.6072,-1.5659,-1.5216,-1.4823,-1.4425,-1.3975,-1.3597,-1.33,-1.304,-1.2764]}]]